<?xml version="1.0" encoding="UTF-8" standalone="no" ?><gpx xmlns="http://www.topografix.com/GPX/1/1" xmlns:gpxx="http://www.garmin.com/xmlschemas/GpxExtensions/v3" xmlns:wptx1="http://www.garmin.com/xmlschemas/WaypointExtension/v1" xmlns:gpxtpx="http://www.garmin.com/xmlschemas/TrackPointExtension/v1" creator="GuideVTT.com" version="1.1" xmlns:xsi="http://www.w3.org/2001/XMLSchema-instance" xsi:schemaLocation="http://www.topografix.com/GPX/1/1 http://www.topografix.com/GPX/1/1/gpx.xsd http://www.garmin.com/xmlschemas/GpxExtensions/v3 http://www8.garmin.com/xmlschemas/GpxExtensionsv3.xsd http://www.garmin.com/xmlschemas/WaypointExtension/v1 http://www8.garmin.com/xmlschemas/WaypointExtensionv1.xsd http://www.garmin.com/xmlschemas/TrackPointExtension/v1 http://www.garmin.com/xmlschemas/TrackPointExtensionv1.xsd">
<metadata><link href="http://www.garmin.com"><text>Garmin International</text></link><time>2013-06-22T15:13:50Z</time></metadata>
<trk><name>2024rp05.gpx</name><extensions><gpxx:TrackExtension><gpxx:DisplayColor>Cyan</gpxx:DisplayColor></gpxx:TrackExtension></extensions><trkseg>
<trkpt lat="46.48914" lon="6.72321"><ele>419</ele><time>2024-05-17T14:53:30Z</time></trkpt>
<trkpt lat="46.48914" lon="6.72321"><ele>419</ele><time>2024-05-17T14:53:38Z</time></trkpt>
<trkpt lat="46.48915" lon="6.72321"><ele>419</ele><time>2024-05-17T14:53:47Z</time></trkpt>
<trkpt lat="46.48915" lon="6.72321"><ele>419</ele><time>2024-05-17T14:53:52Z</time></trkpt>
<trkpt lat="46.48915" lon="6.7232"><ele>419</ele><time>2024-05-17T14:54:01Z</time></trkpt>
<trkpt lat="46.48916" lon="6.7232"><ele>419</ele><time>2024-05-17T14:54:05Z</time></trkpt>
<trkpt lat="46.48915" lon="6.72321"><ele>419</ele><time>2024-05-17T14:54:09Z</time></trkpt>
<trkpt lat="46.48914" lon="6.72321"><ele>419</ele><time>2024-05-17T14:54:14Z</time></trkpt>
<trkpt lat="46.48914" lon="6.72321"><ele>419</ele><time>2024-05-17T14:54:21Z</time></trkpt>
<trkpt lat="46.48914" lon="6.72322"><ele>419</ele><time>2024-05-17T14:54:28Z</time></trkpt>
<trkpt lat="46.48914" lon="6.72323"><ele>419</ele><time>2024-05-17T14:54:34Z</time></trkpt>
<trkpt lat="46.48914" lon="6.72322"><ele>419</ele><time>2024-05-17T14:54:37Z</time></trkpt>
<trkpt lat="46.48914" lon="6.72322"><ele>419</ele><time>2024-05-17T14:54:39Z</time></trkpt>
<trkpt lat="46.48914" lon="6.72322"><ele>419</ele><time>2024-05-17T14:54:44Z</time></trkpt>
<trkpt lat="46.48914" lon="6.7232"><ele>419</ele><time>2024-05-17T14:54:53Z</time></trkpt>
<trkpt lat="46.48914" lon="6.7232"><ele>419</ele><time>2024-05-17T14:54:58Z</time></trkpt>
<trkpt lat="46.48914" lon="6.7232"><ele>419</ele><time>2024-05-17T14:55:07Z</time></trkpt>
<trkpt lat="46.48914" lon="6.7232"><ele>419</ele><time>2024-05-17T14:55:08Z</time></trkpt>
<trkpt lat="46.48915" lon="6.72325"><ele>419</ele><time>2024-05-17T14:55:14Z</time></trkpt>
<trkpt lat="46.48916" lon="6.72326"><ele>419</ele><time>2024-05-17T14:55:15Z</time></trkpt>
<trkpt lat="46.48914" lon="6.7233"><ele>419</ele><time>2024-05-17T14:55:19Z</time></trkpt>
<trkpt lat="46.48914" lon="6.7233"><ele>419</ele><time>2024-05-17T14:55:21Z</time></trkpt>
<trkpt lat="46.48915" lon="6.7233"><ele>418.8</ele><time>2024-05-17T14:55:25Z</time></trkpt>
<trkpt lat="46.48913" lon="6.7233"><ele>419</ele><time>2024-05-17T14:55:31Z</time></trkpt>
<trkpt lat="46.48913" lon="6.72328"><ele>419</ele><time>2024-05-17T14:55:32Z</time></trkpt>
<trkpt lat="46.48912" lon="6.7232"><ele>419</ele><time>2024-05-17T14:55:37Z</time></trkpt>
<trkpt lat="46.48913" lon="6.7231"><ele>419</ele><time>2024-05-17T14:55:42Z</time></trkpt>
<trkpt lat="46.48913" lon="6.72308"><ele>419</ele><time>2024-05-17T14:55:43Z</time></trkpt>
<trkpt lat="46.48912" lon="6.72301"><ele>419</ele><time>2024-05-17T14:55:46Z</time></trkpt>
<trkpt lat="46.48911" lon="6.723"><ele>419</ele><time>2024-05-17T14:55:47Z</time></trkpt>
<trkpt lat="46.4891" lon="6.723"><ele>419</ele><time>2024-05-17T14:55:48Z</time></trkpt>
<trkpt lat="46.48907" lon="6.72298"><ele>419</ele><time>2024-05-17T14:55:51Z</time></trkpt>
<trkpt lat="46.48907" lon="6.72295"><ele>419</ele><time>2024-05-17T14:55:53Z</time></trkpt>
<trkpt lat="46.48908" lon="6.72293"><ele>419</ele><time>2024-05-17T14:55:54Z</time></trkpt>
<trkpt lat="46.48909" lon="6.72293"><ele>419</ele><time>2024-05-17T14:55:55Z</time></trkpt>
<trkpt lat="46.48912" lon="6.72289"><ele>419.2</ele><time>2024-05-17T14:55:58Z</time></trkpt>
<trkpt lat="46.48912" lon="6.72287"><ele>419.2</ele><time>2024-05-17T14:55:59Z</time></trkpt>
<trkpt lat="46.48913" lon="6.72271"><ele>419.2</ele><time>2024-05-17T14:56:05Z</time></trkpt>
<trkpt lat="46.48915" lon="6.72251"><ele>419.4</ele><time>2024-05-17T14:56:13Z</time></trkpt>
<trkpt lat="46.48921" lon="6.72248"><ele>419.8</ele><time>2024-05-17T14:56:19Z</time></trkpt>
<trkpt lat="46.48923" lon="6.72247"><ele>420</ele><time>2024-05-17T14:56:21Z</time></trkpt>
<trkpt lat="46.48928" lon="6.72242"><ele>420</ele><time>2024-05-17T14:56:25Z</time></trkpt>
<trkpt lat="46.48932" lon="6.72228"><ele>420</ele><time>2024-05-17T14:56:31Z</time></trkpt>
<trkpt lat="46.48934" lon="6.72208"><ele>420.6</ele><time>2024-05-17T14:56:38Z</time></trkpt>
<trkpt lat="46.48935" lon="6.72201"><ele>420.8</ele><time>2024-05-17T14:56:40Z</time></trkpt>
<trkpt lat="46.48937" lon="6.72191"><ele>421</ele><time>2024-05-17T14:56:43Z</time></trkpt>
<trkpt lat="46.48939" lon="6.72181"><ele>421</ele><time>2024-05-17T14:56:46Z</time></trkpt>
<trkpt lat="46.48943" lon="6.72172"><ele>421.2</ele><time>2024-05-17T14:56:49Z</time></trkpt>
<trkpt lat="46.48949" lon="6.72162"><ele>421.4</ele><time>2024-05-17T14:56:53Z</time></trkpt>
<trkpt lat="46.48968" lon="6.72142"><ele>422.2</ele><time>2024-05-17T14:57:02Z</time></trkpt>
<trkpt lat="46.48969" lon="6.72139"><ele>422.2</ele><time>2024-05-17T14:57:03Z</time></trkpt>
<trkpt lat="46.48978" lon="6.72129"><ele>422.6</ele><time>2024-05-17T14:57:08Z</time></trkpt>
<trkpt lat="46.48982" lon="6.72125"><ele>422.8</ele><time>2024-05-17T14:57:10Z</time></trkpt>
<trkpt lat="46.48991" lon="6.72114"><ele>423.4</ele><time>2024-05-17T14:57:16Z</time></trkpt>
<trkpt lat="46.48994" lon="6.7211"><ele>423.6</ele><time>2024-05-17T14:57:18Z</time></trkpt>
<trkpt lat="46.49001" lon="6.72099"><ele>424.6</ele><time>2024-05-17T14:57:25Z</time></trkpt>
<trkpt lat="46.49002" lon="6.72097"><ele>424.6</ele><time>2024-05-17T14:57:26Z</time></trkpt>
<trkpt lat="46.49011" lon="6.72089"><ele>425.6</ele><time>2024-05-17T14:57:32Z</time></trkpt>
<trkpt lat="46.49018" lon="6.72085"><ele>426</ele><time>2024-05-17T14:57:36Z</time></trkpt>
<trkpt lat="46.49022" lon="6.72082"><ele>426.8</ele><time>2024-05-17T14:57:40Z</time></trkpt>
<trkpt lat="46.4903" lon="6.72076"><ele>427.8</ele><time>2024-05-17T14:57:47Z</time></trkpt>
<trkpt lat="46.49031" lon="6.72075"><ele>427.8</ele><time>2024-05-17T14:57:48Z</time></trkpt>
<trkpt lat="46.49037" lon="6.72067"><ele>428.8</ele><time>2024-05-17T14:57:55Z</time></trkpt>
<trkpt lat="46.49039" lon="6.72067"><ele>429</ele><time>2024-05-17T14:57:56Z</time></trkpt>
<trkpt lat="46.49045" lon="6.72059"><ele>430</ele><time>2024-05-17T14:58:03Z</time></trkpt>
<trkpt lat="46.49046" lon="6.72057"><ele>430</ele><time>2024-05-17T14:58:04Z</time></trkpt>
<trkpt lat="46.49052" lon="6.72048"><ele>431.2</ele><time>2024-05-17T14:58:11Z</time></trkpt>
<trkpt lat="46.49053" lon="6.72046"><ele>431.2</ele><time>2024-05-17T14:58:12Z</time></trkpt>
<trkpt lat="46.49056" lon="6.72039"><ele>432</ele><time>2024-05-17T14:58:17Z</time></trkpt>
<trkpt lat="46.49057" lon="6.72035"><ele>432.2</ele><time>2024-05-17T14:58:19Z</time></trkpt>
<trkpt lat="46.49058" lon="6.72032"><ele>432.6</ele><time>2024-05-17T14:58:21Z</time></trkpt>
<trkpt lat="46.4906" lon="6.72025"><ele>433.2</ele><time>2024-05-17T14:58:25Z</time></trkpt>
<trkpt lat="46.49063" lon="6.72018"><ele>433.8</ele><time>2024-05-17T14:58:29Z</time></trkpt>
<trkpt lat="46.49063" lon="6.72012"><ele>434.4</ele><time>2024-05-17T14:58:32Z</time></trkpt>
<trkpt lat="46.49065" lon="6.72004"><ele>435</ele><time>2024-05-17T14:58:37Z</time></trkpt>
<trkpt lat="46.49066" lon="6.72001"><ele>435.4</ele><time>2024-05-17T14:58:39Z</time></trkpt>
<trkpt lat="46.49068" lon="6.71989"><ele>436.6</ele><time>2024-05-17T14:58:46Z</time></trkpt>
<trkpt lat="46.49071" lon="6.71975"><ele>437.6</ele><time>2024-05-17T14:58:54Z</time></trkpt>
<trkpt lat="46.49072" lon="6.71973"><ele>437.8</ele><time>2024-05-17T14:58:55Z</time></trkpt>
<trkpt lat="46.49074" lon="6.71962"><ele>438.6</ele><time>2024-05-17T14:59:01Z</time></trkpt>
<trkpt lat="46.49075" lon="6.71961"><ele>438.8</ele><time>2024-05-17T14:59:02Z</time></trkpt>
<trkpt lat="46.49077" lon="6.71951"><ele>439.6</ele><time>2024-05-17T14:59:08Z</time></trkpt>
<trkpt lat="46.49079" lon="6.71948"><ele>440</ele><time>2024-05-17T14:59:10Z</time></trkpt>
<trkpt lat="46.49082" lon="6.71934"><ele>440.8</ele><time>2024-05-17T14:59:18Z</time></trkpt>
<trkpt lat="46.49083" lon="6.71932"><ele>441</ele><time>2024-05-17T14:59:19Z</time></trkpt>
<trkpt lat="46.49088" lon="6.71918"><ele>441.6</ele><time>2024-05-17T14:59:27Z</time></trkpt>
<trkpt lat="46.49089" lon="6.71915"><ele>442</ele><time>2024-05-17T14:59:29Z</time></trkpt>
<trkpt lat="46.49093" lon="6.719"><ele>442.8</ele><time>2024-05-17T14:59:37Z</time></trkpt>
<trkpt lat="46.49094" lon="6.71896"><ele>443</ele><time>2024-05-17T14:59:39Z</time></trkpt>
<trkpt lat="46.49097" lon="6.71883"><ele>443.4</ele><time>2024-05-17T14:59:46Z</time></trkpt>
<trkpt lat="46.49103" lon="6.71874"><ele>444.2</ele><time>2024-05-17T14:59:52Z</time></trkpt>
<trkpt lat="46.49102" lon="6.71872"><ele>444.2</ele><time>2024-05-17T14:59:53Z</time></trkpt>
<trkpt lat="46.49099" lon="6.71866"><ele>444.4</ele><time>2024-05-17T14:59:57Z</time></trkpt>
<trkpt lat="46.491" lon="6.71864"><ele>444.4</ele><time>2024-05-17T14:59:58Z</time></trkpt>
<trkpt lat="46.49101" lon="6.71863"><ele>444.6</ele><time>2024-05-17T14:59:59Z</time></trkpt>
<trkpt lat="46.49107" lon="6.71862"><ele>444.8</ele><time>2024-05-17T15:00:03Z</time></trkpt>
<trkpt lat="46.49116" lon="6.71866"><ele>445.2</ele><time>2024-05-17T15:00:09Z</time></trkpt>
<trkpt lat="46.49118" lon="6.71866"><ele>445.4</ele><time>2024-05-17T15:00:11Z</time></trkpt>
<trkpt lat="46.49129" lon="6.71869"><ele>446</ele><time>2024-05-17T15:00:18Z</time></trkpt>
<trkpt lat="46.4913" lon="6.7187"><ele>446.2</ele><time>2024-05-17T15:00:19Z</time></trkpt>
<trkpt lat="46.49141" lon="6.71871"><ele>447.2</ele><time>2024-05-17T15:00:26Z</time></trkpt>
<trkpt lat="46.4915" lon="6.71871"><ele>448.4</ele><time>2024-05-17T15:00:33Z</time></trkpt>
<trkpt lat="46.49153" lon="6.7187"><ele>448.6</ele><time>2024-05-17T15:00:35Z</time></trkpt>
<trkpt lat="46.49161" lon="6.71865"><ele>449.4</ele><time>2024-05-17T15:00:42Z</time></trkpt>
<trkpt lat="46.49163" lon="6.71862"><ele>449.8</ele><time>2024-05-17T15:00:44Z</time></trkpt>
<trkpt lat="46.49169" lon="6.71856"><ele>450.6</ele><time>2024-05-17T15:00:50Z</time></trkpt>
<trkpt lat="46.4917" lon="6.71856"><ele>450.6</ele><time>2024-05-17T15:00:51Z</time></trkpt>
<trkpt lat="46.49175" lon="6.71848"><ele>451.6</ele><time>2024-05-17T15:00:57Z</time></trkpt>
<trkpt lat="46.49176" lon="6.71847"><ele>451.6</ele><time>2024-05-17T15:00:58Z</time></trkpt>
<trkpt lat="46.49181" lon="6.71842"><ele>452.6</ele><time>2024-05-17T15:01:04Z</time></trkpt>
<trkpt lat="46.49186" lon="6.71835"><ele>453.4</ele><time>2024-05-17T15:01:10Z</time></trkpt>
<trkpt lat="46.49187" lon="6.71833"><ele>453.8</ele><time>2024-05-17T15:01:12Z</time></trkpt>
<trkpt lat="46.4919" lon="6.71829"><ele>454.4</ele><time>2024-05-17T15:01:16Z</time></trkpt>
<trkpt lat="46.49193" lon="6.71827"><ele>454.8</ele><time>2024-05-17T15:01:19Z</time></trkpt>
<trkpt lat="46.49197" lon="6.71823"><ele>455.4</ele><time>2024-05-17T15:01:24Z</time></trkpt>
<trkpt lat="46.49198" lon="6.71821"><ele>456</ele><time>2024-05-17T15:01:27Z</time></trkpt>
<trkpt lat="46.49201" lon="6.71817"><ele>456.6</ele><time>2024-05-17T15:01:31Z</time></trkpt>
<trkpt lat="46.49202" lon="6.71816"><ele>456.8</ele><time>2024-05-17T15:01:32Z</time></trkpt>
<trkpt lat="46.49204" lon="6.71814"><ele>457</ele><time>2024-05-17T15:01:34Z</time></trkpt>
<trkpt lat="46.49207" lon="6.71811"><ele>457.8</ele><time>2024-05-17T15:01:38Z</time></trkpt>
<trkpt lat="46.49209" lon="6.71808"><ele>458.2</ele><time>2024-05-17T15:01:41Z</time></trkpt>
<trkpt lat="46.49211" lon="6.71803"><ele>458.8</ele><time>2024-05-17T15:01:45Z</time></trkpt>
<trkpt lat="46.49213" lon="6.718"><ele>459.2</ele><time>2024-05-17T15:01:48Z</time></trkpt>
<trkpt lat="46.49215" lon="6.71796"><ele>460</ele><time>2024-05-17T15:01:52Z</time></trkpt>
<trkpt lat="46.49217" lon="6.71793"><ele>460.4</ele><time>2024-05-17T15:01:55Z</time></trkpt>
<trkpt lat="46.4922" lon="6.7179"><ele>460.8</ele><time>2024-05-17T15:01:58Z</time></trkpt>
<trkpt lat="46.49223" lon="6.71784"><ele>461.6</ele><time>2024-05-17T15:02:03Z</time></trkpt>
<trkpt lat="46.49223" lon="6.71783"><ele>461.8</ele><time>2024-05-17T15:02:04Z</time></trkpt>
<trkpt lat="46.49226" lon="6.71776"><ele>462.6</ele><time>2024-05-17T15:02:10Z</time></trkpt>
<trkpt lat="46.49227" lon="6.71775"><ele>462.6</ele><time>2024-05-17T15:02:11Z</time></trkpt>
<trkpt lat="46.49229" lon="6.71769"><ele>463.4</ele><time>2024-05-17T15:02:16Z</time></trkpt>
<trkpt lat="46.4923" lon="6.71766"><ele>463.8</ele><time>2024-05-17T15:02:18Z</time></trkpt>
<trkpt lat="46.49232" lon="6.71761"><ele>464.4</ele><time>2024-05-17T15:02:23Z</time></trkpt>
<trkpt lat="46.49233" lon="6.71759"><ele>464.8</ele><time>2024-05-17T15:02:25Z</time></trkpt>
<trkpt lat="46.49235" lon="6.71752"><ele>465.6</ele><time>2024-05-17T15:02:30Z</time></trkpt>
<trkpt lat="46.49236" lon="6.71749"><ele>465.8</ele><time>2024-05-17T15:02:32Z</time></trkpt>
<trkpt lat="46.49238" lon="6.71747"><ele>466.2</ele><time>2024-05-17T15:02:34Z</time></trkpt>
<trkpt lat="46.49239" lon="6.71744"><ele>466.6</ele><time>2024-05-17T15:02:36Z</time></trkpt>
<trkpt lat="46.49239" lon="6.7174"><ele>466.8</ele><time>2024-05-17T15:02:39Z</time></trkpt>
<trkpt lat="46.49241" lon="6.71733"><ele>467.6</ele><time>2024-05-17T15:02:44Z</time></trkpt>
<trkpt lat="46.49243" lon="6.7173"><ele>468</ele><time>2024-05-17T15:02:46Z</time></trkpt>
<trkpt lat="46.49247" lon="6.71725"><ele>468.8</ele><time>2024-05-17T15:02:51Z</time></trkpt>
<trkpt lat="46.49248" lon="6.71723"><ele>469</ele><time>2024-05-17T15:02:53Z</time></trkpt>
<trkpt lat="46.49251" lon="6.71716"><ele>470</ele><time>2024-05-17T15:02:58Z</time></trkpt>
<trkpt lat="46.49251" lon="6.71715"><ele>470.2</ele><time>2024-05-17T15:02:59Z</time></trkpt>
<trkpt lat="46.49255" lon="6.71709"><ele>470.8</ele><time>2024-05-17T15:03:04Z</time></trkpt>
<trkpt lat="46.49255" lon="6.71708"><ele>471.2</ele><time>2024-05-17T15:03:05Z</time></trkpt>
<trkpt lat="46.49256" lon="6.71706"><ele>471.4</ele><time>2024-05-17T15:03:07Z</time></trkpt>
<trkpt lat="46.49257" lon="6.71702"><ele>471.6</ele><time>2024-05-17T15:03:09Z</time></trkpt>
<trkpt lat="46.4926" lon="6.71699"><ele>472.2</ele><time>2024-05-17T15:03:12Z</time></trkpt>
<trkpt lat="46.49262" lon="6.71698"><ele>472.6</ele><time>2024-05-17T15:03:14Z</time></trkpt>
<trkpt lat="46.49266" lon="6.71691"><ele>473.2</ele><time>2024-05-17T15:03:20Z</time></trkpt>
<trkpt lat="46.49267" lon="6.7169"><ele>473.4</ele><time>2024-05-17T15:03:21Z</time></trkpt>
<trkpt lat="46.49269" lon="6.71687"><ele>474.2</ele><time>2024-05-17T15:03:25Z</time></trkpt>
<trkpt lat="46.49271" lon="6.71683"><ele>474.6</ele><time>2024-05-17T15:03:28Z</time></trkpt>
<trkpt lat="46.49274" lon="6.71677"><ele>475.4</ele><time>2024-05-17T15:03:33Z</time></trkpt>
<trkpt lat="46.49276" lon="6.71674"><ele>475.8</ele><time>2024-05-17T15:03:36Z</time></trkpt>
<trkpt lat="46.49279" lon="6.71669"><ele>476.4</ele><time>2024-05-17T15:03:41Z</time></trkpt>
<trkpt lat="46.49281" lon="6.71667"><ele>476.8</ele><time>2024-05-17T15:03:43Z</time></trkpt>
<trkpt lat="46.49286" lon="6.71664"><ele>477.6</ele><time>2024-05-17T15:03:48Z</time></trkpt>
<trkpt lat="46.49288" lon="6.71661"><ele>478</ele><time>2024-05-17T15:03:51Z</time></trkpt>
<trkpt lat="46.49292" lon="6.71659"><ele>478.6</ele><time>2024-05-17T15:03:55Z</time></trkpt>
<trkpt lat="46.49296" lon="6.71656"><ele>479.2</ele><time>2024-05-17T15:03:59Z</time></trkpt>
<trkpt lat="46.49298" lon="6.71655"><ele>479.6</ele><time>2024-05-17T15:04:01Z</time></trkpt>
<trkpt lat="46.49302" lon="6.71649"><ele>480.2</ele><time>2024-05-17T15:04:06Z</time></trkpt>
<trkpt lat="46.49305" lon="6.71647"><ele>480.8</ele><time>2024-05-17T15:04:09Z</time></trkpt>
<trkpt lat="46.49308" lon="6.71645"><ele>481.4</ele><time>2024-05-17T15:04:13Z</time></trkpt>
<trkpt lat="46.49312" lon="6.71643"><ele>481.8</ele><time>2024-05-17T15:04:16Z</time></trkpt>
<trkpt lat="46.49316" lon="6.71643"><ele>482.6</ele><time>2024-05-17T15:04:20Z</time></trkpt>
<trkpt lat="46.49318" lon="6.71642"><ele>483</ele><time>2024-05-17T15:04:22Z</time></trkpt>
<trkpt lat="46.49324" lon="6.71641"><ele>483.8</ele><time>2024-05-17T15:04:28Z</time></trkpt>
<trkpt lat="46.49325" lon="6.71641"><ele>484.2</ele><time>2024-05-17T15:04:29Z</time></trkpt>
<trkpt lat="46.49329" lon="6.71638"><ele>485</ele><time>2024-05-17T15:04:34Z</time></trkpt>
<trkpt lat="46.4933" lon="6.71637"><ele>485.2</ele><time>2024-05-17T15:04:35Z</time></trkpt>
<trkpt lat="46.49339" lon="6.71633"><ele>486.4</ele><time>2024-05-17T15:04:42Z</time></trkpt>
<trkpt lat="46.49346" lon="6.7163"><ele>487.6</ele><time>2024-05-17T15:04:47Z</time></trkpt>
<trkpt lat="46.4935" lon="6.71626"><ele>488.2</ele><time>2024-05-17T15:04:50Z</time></trkpt>
<trkpt lat="46.49351" lon="6.71626"><ele>488.4</ele><time>2024-05-17T15:04:51Z</time></trkpt>
<trkpt lat="46.49352" lon="6.71627"><ele>488.8</ele><time>2024-05-17T15:04:52Z</time></trkpt>
<trkpt lat="46.49352" lon="6.71632"><ele>489.4</ele><time>2024-05-17T15:04:54Z</time></trkpt>
<trkpt lat="46.49351" lon="6.71634"><ele>489.8</ele><time>2024-05-17T15:04:55Z</time></trkpt>
<trkpt lat="46.4935" lon="6.71652"><ele>490.4</ele><time>2024-05-17T15:05:01Z</time></trkpt>
<trkpt lat="46.49361" lon="6.71668"><ele>490.2</ele><time>2024-05-17T15:05:05Z</time></trkpt>
<trkpt lat="46.49369" lon="6.71676"><ele>489.2</ele><time>2024-05-17T15:05:07Z</time></trkpt>
<trkpt lat="46.49374" lon="6.7168"><ele>488.6</ele><time>2024-05-17T15:05:08Z</time></trkpt>
<trkpt lat="46.49378" lon="6.71687"><ele>488.4</ele><time>2024-05-17T15:05:09Z</time></trkpt>
<trkpt lat="46.49381" lon="6.71694"><ele>488.4</ele><time>2024-05-17T15:05:10Z</time></trkpt>
<trkpt lat="46.49382" lon="6.71701"><ele>488.4</ele><time>2024-05-17T15:05:11Z</time></trkpt>
<trkpt lat="46.49383" lon="6.71714"><ele>488.4</ele><time>2024-05-17T15:05:13Z</time></trkpt>
<trkpt lat="46.4938" lon="6.71737"><ele>489.4</ele><time>2024-05-17T15:05:18Z</time></trkpt>
<trkpt lat="46.4938" lon="6.71741"><ele>489.6</ele><time>2024-05-17T15:05:19Z</time></trkpt>
<trkpt lat="46.49377" lon="6.71761"><ele>489.8</ele><time>2024-05-17T15:05:23Z</time></trkpt>
<trkpt lat="46.49376" lon="6.71768"><ele>489.6</ele><time>2024-05-17T15:05:24Z</time></trkpt>
<trkpt lat="46.49375" lon="6.71784"><ele>489</ele><time>2024-05-17T15:05:26Z</time></trkpt>
<trkpt lat="46.49374" lon="6.71793"><ele>488.6</ele><time>2024-05-17T15:05:27Z</time></trkpt>
<trkpt lat="46.49373" lon="6.71803"><ele>488</ele><time>2024-05-17T15:05:28Z</time></trkpt>
<trkpt lat="46.49375" lon="6.71826"><ele>487.4</ele><time>2024-05-17T15:05:30Z</time></trkpt>
<trkpt lat="46.49375" lon="6.71845"><ele>486</ele><time>2024-05-17T15:05:32Z</time></trkpt>
<trkpt lat="46.49373" lon="6.71876"><ele>485.4</ele><time>2024-05-17T15:05:35Z</time></trkpt>
<trkpt lat="46.49372" lon="6.71907"><ele>485</ele><time>2024-05-17T15:05:38Z</time></trkpt>
<trkpt lat="46.49372" lon="6.71917"><ele>484.8</ele><time>2024-05-17T15:05:39Z</time></trkpt>
<trkpt lat="46.49373" lon="6.71926"><ele>484.6</ele><time>2024-05-17T15:05:40Z</time></trkpt>
<trkpt lat="46.4938" lon="6.71954"><ele>485.4</ele><time>2024-05-17T15:05:44Z</time></trkpt>
<trkpt lat="46.49384" lon="6.71964"><ele>486.2</ele><time>2024-05-17T15:05:46Z</time></trkpt>
<trkpt lat="46.49389" lon="6.71975"><ele>487.4</ele><time>2024-05-17T15:05:49Z</time></trkpt>
<trkpt lat="46.49395" lon="6.71987"><ele>488.2</ele><time>2024-05-17T15:05:53Z</time></trkpt>
<trkpt lat="46.49395" lon="6.7199"><ele>488.6</ele><time>2024-05-17T15:05:54Z</time></trkpt>
<trkpt lat="46.49397" lon="6.71996"><ele>488.8</ele><time>2024-05-17T15:05:56Z</time></trkpt>
<trkpt lat="46.49399" lon="6.72008"><ele>489.8</ele><time>2024-05-17T15:06:00Z</time></trkpt>
<trkpt lat="46.49401" lon="6.72017"><ele>490.2</ele><time>2024-05-17T15:06:03Z</time></trkpt>
<trkpt lat="46.494" lon="6.72028"><ele>490.8</ele><time>2024-05-17T15:06:07Z</time></trkpt>
<trkpt lat="46.494" lon="6.7204"><ele>491.4</ele><time>2024-05-17T15:06:11Z</time></trkpt>
<trkpt lat="46.49401" lon="6.72051"><ele>491.8</ele><time>2024-05-17T15:06:15Z</time></trkpt>
<trkpt lat="46.49404" lon="6.72064"><ele>492.4</ele><time>2024-05-17T15:06:20Z</time></trkpt>
<trkpt lat="46.4941" lon="6.72086"><ele>492.8</ele><time>2024-05-17T15:06:26Z</time></trkpt>
<trkpt lat="46.49411" lon="6.72122"><ele>491.8</ele><time>2024-05-17T15:06:31Z</time></trkpt>
<trkpt lat="46.49413" lon="6.72158"><ele>490.8</ele><time>2024-05-17T15:06:35Z</time></trkpt>
<trkpt lat="46.49415" lon="6.72177"><ele>490.4</ele><time>2024-05-17T15:06:37Z</time></trkpt>
<trkpt lat="46.49416" lon="6.72237"><ele>489.6</ele><time>2024-05-17T15:06:43Z</time></trkpt>
<trkpt lat="46.49418" lon="6.72263"><ele>489.6</ele><time>2024-05-17T15:06:46Z</time></trkpt>
<trkpt lat="46.4942" lon="6.72297"><ele>490.4</ele><time>2024-05-17T15:06:50Z</time></trkpt>
<trkpt lat="46.49421" lon="6.7233"><ele>490.6</ele><time>2024-05-17T15:06:54Z</time></trkpt>
<trkpt lat="46.49424" lon="6.72375"><ele>490.8</ele><time>2024-05-17T15:07:00Z</time></trkpt>
<trkpt lat="46.49427" lon="6.72429"><ele>491.6</ele><time>2024-05-17T15:07:08Z</time></trkpt>
<trkpt lat="46.49427" lon="6.72442"><ele>492.2</ele><time>2024-05-17T15:07:10Z</time></trkpt>
<trkpt lat="46.49429" lon="6.72476"><ele>492.8</ele><time>2024-05-17T15:07:16Z</time></trkpt>
<trkpt lat="46.49429" lon="6.7248"><ele>493</ele><time>2024-05-17T15:07:17Z</time></trkpt>
<trkpt lat="46.49431" lon="6.72511"><ele>493.8</ele><time>2024-05-17T15:07:24Z</time></trkpt>
<trkpt lat="46.49432" lon="6.72519"><ele>494</ele><time>2024-05-17T15:07:26Z</time></trkpt>
<trkpt lat="46.49437" lon="6.72539"><ele>494.8</ele><time>2024-05-17T15:07:31Z</time></trkpt>
<trkpt lat="46.49441" lon="6.72546"><ele>495.2</ele><time>2024-05-17T15:07:33Z</time></trkpt>
<trkpt lat="46.49457" lon="6.72571"><ele>495.8</ele><time>2024-05-17T15:07:41Z</time></trkpt>
<trkpt lat="46.49459" lon="6.72577"><ele>496</ele><time>2024-05-17T15:07:43Z</time></trkpt>
<trkpt lat="46.49464" lon="6.72593"><ele>496</ele><time>2024-05-17T15:07:48Z</time></trkpt>
<trkpt lat="46.49464" lon="6.72597"><ele>496</ele><time>2024-05-17T15:07:49Z</time></trkpt>
<trkpt lat="46.4946" lon="6.72627"><ele>495.4</ele><time>2024-05-17T15:07:54Z</time></trkpt>
<trkpt lat="46.49455" lon="6.72642"><ele>494.8</ele><time>2024-05-17T15:07:56Z</time></trkpt>
<trkpt lat="46.49447" lon="6.72656"><ele>494.2</ele><time>2024-05-17T15:07:58Z</time></trkpt>
<trkpt lat="46.49435" lon="6.72668"><ele>493.8</ele><time>2024-05-17T15:08:00Z</time></trkpt>
<trkpt lat="46.49429" lon="6.72673"><ele>493.4</ele><time>2024-05-17T15:08:01Z</time></trkpt>
<trkpt lat="46.49422" lon="6.72678"><ele>493</ele><time>2024-05-17T15:08:02Z</time></trkpt>
<trkpt lat="46.49409" lon="6.72688"><ele>492.4</ele><time>2024-05-17T15:08:04Z</time></trkpt>
<trkpt lat="46.49388" lon="6.72702"><ele>491.2</ele><time>2024-05-17T15:08:07Z</time></trkpt>
<trkpt lat="46.49372" lon="6.72713"><ele>490.4</ele><time>2024-05-17T15:08:09Z</time></trkpt>
<trkpt lat="46.49364" lon="6.72719"><ele>489.8</ele><time>2024-05-17T15:08:10Z</time></trkpt>
<trkpt lat="46.49348" lon="6.72731"><ele>488.4</ele><time>2024-05-17T15:08:12Z</time></trkpt>
<trkpt lat="46.4934" lon="6.72737"><ele>487</ele><time>2024-05-17T15:08:13Z</time></trkpt>
<trkpt lat="46.49324" lon="6.72748"><ele>485.8</ele><time>2024-05-17T15:08:15Z</time></trkpt>
<trkpt lat="46.49298" lon="6.72765"><ele>485</ele><time>2024-05-17T15:08:18Z</time></trkpt>
<trkpt lat="46.49289" lon="6.72771"><ele>484</ele><time>2024-05-17T15:08:19Z</time></trkpt>
<trkpt lat="46.49271" lon="6.72783"><ele>482.4</ele><time>2024-05-17T15:08:21Z</time></trkpt>
<trkpt lat="46.49262" lon="6.72789"><ele>481.2</ele><time>2024-05-17T15:08:22Z</time></trkpt>
<trkpt lat="46.49254" lon="6.72796"><ele>480.8</ele><time>2024-05-17T15:08:23Z</time></trkpt>
<trkpt lat="46.49247" lon="6.72806"><ele>480.4</ele><time>2024-05-17T15:08:24Z</time></trkpt>
<trkpt lat="46.49242" lon="6.72817"><ele>479.8</ele><time>2024-05-17T15:08:25Z</time></trkpt>
<trkpt lat="46.49236" lon="6.72844"><ele>478</ele><time>2024-05-17T15:08:27Z</time></trkpt>
<trkpt lat="46.49238" lon="6.72871"><ele>477</ele><time>2024-05-17T15:08:29Z</time></trkpt>
<trkpt lat="46.49242" lon="6.72884"><ele>476.4</ele><time>2024-05-17T15:08:30Z</time></trkpt>
<trkpt lat="46.49246" lon="6.72897"><ele>475.8</ele><time>2024-05-17T15:08:31Z</time></trkpt>
<trkpt lat="46.49253" lon="6.72924"><ele>474</ele><time>2024-05-17T15:08:33Z</time></trkpt>
<trkpt lat="46.4926" lon="6.72951"><ele>472.8</ele><time>2024-05-17T15:08:35Z</time></trkpt>
<trkpt lat="46.49267" lon="6.72978"><ele>471.8</ele><time>2024-05-17T15:08:37Z</time></trkpt>
<trkpt lat="46.4927" lon="6.72991"><ele>471.2</ele><time>2024-05-17T15:08:38Z</time></trkpt>
<trkpt lat="46.49273" lon="6.73006"><ele>470.2</ele><time>2024-05-17T15:08:39Z</time></trkpt>
<trkpt lat="46.49274" lon="6.73021"><ele>469.4</ele><time>2024-05-17T15:08:40Z</time></trkpt>
<trkpt lat="46.49274" lon="6.73036"><ele>468.2</ele><time>2024-05-17T15:08:41Z</time></trkpt>
<trkpt lat="46.49273" lon="6.7305"><ele>466.2</ele><time>2024-05-17T15:08:42Z</time></trkpt>
<trkpt lat="46.49268" lon="6.7308"><ele>465.2</ele><time>2024-05-17T15:08:44Z</time></trkpt>
<trkpt lat="46.49266" lon="6.73126"><ele>464</ele><time>2024-05-17T15:08:47Z</time></trkpt>
<trkpt lat="46.49271" lon="6.73155"><ele>463</ele><time>2024-05-17T15:08:49Z</time></trkpt>
<trkpt lat="46.49275" lon="6.73169"><ele>462.2</ele><time>2024-05-17T15:08:50Z</time></trkpt>
<trkpt lat="46.49279" lon="6.73184"><ele>460.2</ele><time>2024-05-17T15:08:51Z</time></trkpt>
<trkpt lat="46.49287" lon="6.73213"><ele>459</ele><time>2024-05-17T15:08:53Z</time></trkpt>
<trkpt lat="46.49299" lon="6.73257"><ele>456.8</ele><time>2024-05-17T15:08:56Z</time></trkpt>
<trkpt lat="46.49303" lon="6.73272"><ele>455.6</ele><time>2024-05-17T15:08:57Z</time></trkpt>
<trkpt lat="46.49316" lon="6.73316"><ele>454</ele><time>2024-05-17T15:09:00Z</time></trkpt>
<trkpt lat="46.49322" lon="6.73329"><ele>453</ele><time>2024-05-17T15:09:01Z</time></trkpt>
<trkpt lat="46.49329" lon="6.7334"><ele>451.8</ele><time>2024-05-17T15:09:02Z</time></trkpt>
<trkpt lat="46.49338" lon="6.73349"><ele>451.2</ele><time>2024-05-17T15:09:03Z</time></trkpt>
<trkpt lat="46.49348" lon="6.73357"><ele>449.8</ele><time>2024-05-17T15:09:04Z</time></trkpt>
<trkpt lat="46.49357" lon="6.73363"><ele>449.4</ele><time>2024-05-17T15:09:05Z</time></trkpt>
<trkpt lat="46.49373" lon="6.73378"><ele>448.2</ele><time>2024-05-17T15:09:07Z</time></trkpt>
<trkpt lat="46.49378" lon="6.73389"><ele>447.4</ele><time>2024-05-17T15:09:08Z</time></trkpt>
<trkpt lat="46.4938" lon="6.734"><ele>447</ele><time>2024-05-17T15:09:09Z</time></trkpt>
<trkpt lat="46.49378" lon="6.73408"><ele>446.8</ele><time>2024-05-17T15:09:10Z</time></trkpt>
<trkpt lat="46.49374" lon="6.73414"><ele>446.2</ele><time>2024-05-17T15:09:11Z</time></trkpt>
<trkpt lat="46.49368" lon="6.73418"><ele>445.8</ele><time>2024-05-17T15:09:12Z</time></trkpt>
<trkpt lat="46.49364" lon="6.73424"><ele>445.4</ele><time>2024-05-17T15:09:13Z</time></trkpt>
<trkpt lat="46.49362" lon="6.73431"><ele>444.6</ele><time>2024-05-17T15:09:14Z</time></trkpt>
<trkpt lat="46.49362" lon="6.73438"><ele>444</ele><time>2024-05-17T15:09:15Z</time></trkpt>
<trkpt lat="46.49354" lon="6.73457"><ele>445</ele><time>2024-05-17T15:09:19Z</time></trkpt>
<trkpt lat="46.49352" lon="6.7346"><ele>445.6</ele><time>2024-05-17T15:09:20Z</time></trkpt>
<trkpt lat="46.49343" lon="6.73477"><ele>446.8</ele><time>2024-05-17T15:09:26Z</time></trkpt>
<trkpt lat="46.49337" lon="6.73496"><ele>447.4</ele><time>2024-05-17T15:09:32Z</time></trkpt>
<trkpt lat="46.49336" lon="6.73499"><ele>447.6</ele><time>2024-05-17T15:09:33Z</time></trkpt>
<trkpt lat="46.49336" lon="6.73502"><ele>447.8</ele><time>2024-05-17T15:09:34Z</time></trkpt>
<trkpt lat="46.49335" lon="6.73526"><ele>448.8</ele><time>2024-05-17T15:09:41Z</time></trkpt>
<trkpt lat="46.49338" lon="6.73544"><ele>449.8</ele><time>2024-05-17T15:09:46Z</time></trkpt>
<trkpt lat="46.49339" lon="6.73547"><ele>450</ele><time>2024-05-17T15:09:47Z</time></trkpt>
<trkpt lat="46.4934" lon="6.73554"><ele>450.2</ele><time>2024-05-17T15:09:49Z</time></trkpt>
<trkpt lat="46.49341" lon="6.73574"><ele>451</ele><time>2024-05-17T15:09:54Z</time></trkpt>
<trkpt lat="46.4934" lon="6.73583"><ele>451</ele><time>2024-05-17T15:09:56Z</time></trkpt>
<trkpt lat="46.49338" lon="6.73611"><ele>451.8</ele><time>2024-05-17T15:10:02Z</time></trkpt>
<trkpt lat="46.49334" lon="6.73658"><ele>451.2</ele><time>2024-05-17T15:10:09Z</time></trkpt>
<trkpt lat="46.4933" lon="6.73702"><ele>451</ele><time>2024-05-17T15:10:15Z</time></trkpt>
<trkpt lat="46.49329" lon="6.73709"><ele>451</ele><time>2024-05-17T15:10:16Z</time></trkpt>
<trkpt lat="46.49329" lon="6.73716"><ele>451</ele><time>2024-05-17T15:10:17Z</time></trkpt>
<trkpt lat="46.49324" lon="6.73735"><ele>451.4</ele><time>2024-05-17T15:10:20Z</time></trkpt>
<trkpt lat="46.4932" lon="6.73753"><ele>451.6</ele><time>2024-05-17T15:10:23Z</time></trkpt>
<trkpt lat="46.49304" lon="6.73792"><ele>452</ele><time>2024-05-17T15:10:30Z</time></trkpt>
<trkpt lat="46.49301" lon="6.73798"><ele>452</ele><time>2024-05-17T15:10:31Z</time></trkpt>
<trkpt lat="46.49288" lon="6.73841"><ele>453</ele><time>2024-05-17T15:10:39Z</time></trkpt>
<trkpt lat="46.49283" lon="6.7386"><ele>453.2</ele><time>2024-05-17T15:10:43Z</time></trkpt>
<trkpt lat="46.4928" lon="6.73881"><ele>453.8</ele><time>2024-05-17T15:10:47Z</time></trkpt>
<trkpt lat="46.49277" lon="6.73899"><ele>454.2</ele><time>2024-05-17T15:10:51Z</time></trkpt>
<trkpt lat="46.49276" lon="6.73915"><ele>455</ele><time>2024-05-17T15:10:55Z</time></trkpt>
<trkpt lat="46.49276" lon="6.73923"><ele>455.4</ele><time>2024-05-17T15:10:57Z</time></trkpt>
<trkpt lat="46.49277" lon="6.73955"><ele>456.2</ele><time>2024-05-17T15:11:05Z</time></trkpt>
<trkpt lat="46.49278" lon="6.73967"><ele>456.4</ele><time>2024-05-17T15:11:08Z</time></trkpt>
<trkpt lat="46.49281" lon="6.74"><ele>457.4</ele><time>2024-05-17T15:11:15Z</time></trkpt>
<trkpt lat="46.49282" lon="6.74009"><ele>457.6</ele><time>2024-05-17T15:11:17Z</time></trkpt>
<trkpt lat="46.49281" lon="6.74046"><ele>458.6</ele><time>2024-05-17T15:11:25Z</time></trkpt>
<trkpt lat="46.4928" lon="6.74051"><ele>458.8</ele><time>2024-05-17T15:11:26Z</time></trkpt>
<trkpt lat="46.49274" lon="6.74085"><ele>459.8</ele><time>2024-05-17T15:11:34Z</time></trkpt>
<trkpt lat="46.49271" lon="6.74098"><ele>460.2</ele><time>2024-05-17T15:11:37Z</time></trkpt>
<trkpt lat="46.49268" lon="6.74115"><ele>460.8</ele><time>2024-05-17T15:11:41Z</time></trkpt>
<trkpt lat="46.49259" lon="6.74155"><ele>461.8</ele><time>2024-05-17T15:11:50Z</time></trkpt>
<trkpt lat="46.49251" lon="6.74196"><ele>462.8</ele><time>2024-05-17T15:11:59Z</time></trkpt>
<trkpt lat="46.49251" lon="6.74205"><ele>463.4</ele><time>2024-05-17T15:12:01Z</time></trkpt>
<trkpt lat="46.49255" lon="6.74237"><ele>464</ele><time>2024-05-17T15:12:08Z</time></trkpt>
<trkpt lat="46.49258" lon="6.74277"><ele>465</ele><time>2024-05-17T15:12:16Z</time></trkpt>
<trkpt lat="46.49258" lon="6.74282"><ele>465.2</ele><time>2024-05-17T15:12:17Z</time></trkpt>
<trkpt lat="46.49252" lon="6.74313"><ele>466.2</ele><time>2024-05-17T15:12:24Z</time></trkpt>
<trkpt lat="46.4924" lon="6.74334"><ele>467</ele><time>2024-05-17T15:12:31Z</time></trkpt>
<trkpt lat="46.49234" lon="6.74345"><ele>467.4</ele><time>2024-05-17T15:12:34Z</time></trkpt>
<trkpt lat="46.49229" lon="6.74368"><ele>468</ele><time>2024-05-17T15:12:38Z</time></trkpt>
<trkpt lat="46.49229" lon="6.74373"><ele>468</ele><time>2024-05-17T15:12:39Z</time></trkpt>
<trkpt lat="46.49231" lon="6.74393"><ele>468.2</ele><time>2024-05-17T15:12:42Z</time></trkpt>
<trkpt lat="46.49235" lon="6.74424"><ele>468</ele><time>2024-05-17T15:12:46Z</time></trkpt>
<trkpt lat="46.49236" lon="6.74429"><ele>467.6</ele><time>2024-05-17T15:12:47Z</time></trkpt>
<trkpt lat="46.49235" lon="6.74432"><ele>467</ele><time>2024-05-17T15:12:50Z</time></trkpt>
<trkpt lat="46.49237" lon="6.74438"><ele>466.8</ele><time>2024-05-17T15:12:56Z</time></trkpt>
<trkpt lat="46.49246" lon="6.74453"><ele>466.4</ele><time>2024-05-17T15:13:01Z</time></trkpt>
<trkpt lat="46.4925" lon="6.74463"><ele>466.4</ele><time>2024-05-17T15:13:03Z</time></trkpt>
<trkpt lat="46.49252" lon="6.74476"><ele>466</ele><time>2024-05-17T15:13:05Z</time></trkpt>
<trkpt lat="46.49252" lon="6.74483"><ele>466</ele><time>2024-05-17T15:13:06Z</time></trkpt>
<trkpt lat="46.49248" lon="6.74504"><ele>466.4</ele><time>2024-05-17T15:13:10Z</time></trkpt>
<trkpt lat="46.49236" lon="6.74522"><ele>467</ele><time>2024-05-17T15:13:15Z</time></trkpt>
<trkpt lat="46.49232" lon="6.74529"><ele>467.4</ele><time>2024-05-17T15:13:17Z</time></trkpt>
<trkpt lat="46.49219" lon="6.74542"><ele>468</ele><time>2024-05-17T15:13:21Z</time></trkpt>
<trkpt lat="46.49202" lon="6.74562"><ele>467</ele><time>2024-05-17T15:13:25Z</time></trkpt>
<trkpt lat="46.49195" lon="6.74577"><ele>466.6</ele><time>2024-05-17T15:13:27Z</time></trkpt>
<trkpt lat="46.49191" lon="6.74595"><ele>466.4</ele><time>2024-05-17T15:13:29Z</time></trkpt>
<trkpt lat="46.4919" lon="6.74604"><ele>466</ele><time>2024-05-17T15:13:30Z</time></trkpt>
<trkpt lat="46.49184" lon="6.74651"><ele>464.4</ele><time>2024-05-17T15:13:35Z</time></trkpt>
<trkpt lat="46.49181" lon="6.7467"><ele>463.8</ele><time>2024-05-17T15:13:37Z</time></trkpt>
<trkpt lat="46.49178" lon="6.74688"><ele>463.4</ele><time>2024-05-17T15:13:39Z</time></trkpt>
<trkpt lat="46.49171" lon="6.74723"><ele>463.2</ele><time>2024-05-17T15:13:43Z</time></trkpt>
<trkpt lat="46.49165" lon="6.74736"><ele>463.4</ele><time>2024-05-17T15:13:45Z</time></trkpt>
<trkpt lat="46.49161" lon="6.74743"><ele>463.4</ele><time>2024-05-17T15:13:47Z</time></trkpt>
<trkpt lat="46.49157" lon="6.74747"><ele>463.8</ele><time>2024-05-17T15:13:51Z</time></trkpt>
<trkpt lat="46.49157" lon="6.74749"><ele>463.8</ele><time>2024-05-17T15:13:53Z</time></trkpt>
<trkpt lat="46.49154" lon="6.74751"><ele>463.8</ele><time>2024-05-17T15:13:56Z</time></trkpt>
<trkpt lat="46.49155" lon="6.74753"><ele>463.8</ele><time>2024-05-17T15:13:57Z</time></trkpt>
<trkpt lat="46.49157" lon="6.74753"><ele>463.8</ele><time>2024-05-17T15:13:59Z</time></trkpt>
<trkpt lat="46.49164" lon="6.74742"><ele>463.6</ele><time>2024-05-17T15:14:05Z</time></trkpt>
<trkpt lat="46.49165" lon="6.74738"><ele>463.6</ele><time>2024-05-17T15:14:07Z</time></trkpt>
<trkpt lat="46.49162" lon="6.74737"><ele>463.6</ele><time>2024-05-17T15:14:09Z</time></trkpt>
<trkpt lat="46.49161" lon="6.7474"><ele>463.2</ele><time>2024-05-17T15:14:11Z</time></trkpt>
<trkpt lat="46.4916" lon="6.74743"><ele>463.2</ele><time>2024-05-17T15:14:13Z</time></trkpt>
<trkpt lat="46.4916" lon="6.74743"><ele>463.4</ele><time>2024-05-17T15:14:17Z</time></trkpt>
<trkpt lat="46.4916" lon="6.74743"><ele>463.2</ele><time>2024-05-17T15:14:21Z</time></trkpt>
<trkpt lat="46.4916" lon="6.74743"><ele>463.2</ele><time>2024-05-17T15:14:24Z</time></trkpt>
<trkpt lat="46.4916" lon="6.74743"><ele>463.2</ele><time>2024-05-17T15:14:27Z</time></trkpt>
<trkpt lat="46.4916" lon="6.74743"><ele>463</ele><time>2024-05-17T15:14:29Z</time></trkpt>
<trkpt lat="46.4916" lon="6.74743"><ele>463</ele><time>2024-05-17T15:14:38Z</time></trkpt>
<trkpt lat="46.4916" lon="6.74743"><ele>462.4</ele><time>2024-05-17T15:14:56Z</time></trkpt>
<trkpt lat="46.4916" lon="6.74743"><ele>462.4</ele><time>2024-05-17T15:14:59Z</time></trkpt>
<trkpt lat="46.4916" lon="6.74743"><ele>462.4</ele><time>2024-05-17T15:15:04Z</time></trkpt>
<trkpt lat="46.49162" lon="6.74742"><ele>462</ele><time>2024-05-17T15:15:11Z</time></trkpt>
<trkpt lat="46.49162" lon="6.74742"><ele>462</ele><time>2024-05-17T15:15:22Z</time></trkpt>
<trkpt lat="46.49162" lon="6.74742"><ele>461.8</ele><time>2024-05-17T15:15:27Z</time></trkpt>
<trkpt lat="46.49162" lon="6.74741"><ele>461.8</ele><time>2024-05-17T15:15:36Z</time></trkpt>
<trkpt lat="46.49161" lon="6.74742"><ele>461.6</ele><time>2024-05-17T15:15:49Z</time></trkpt>
<trkpt lat="46.49161" lon="6.74742"><ele>461.6</ele><time>2024-05-17T15:15:50Z</time></trkpt>
<trkpt lat="46.49161" lon="6.74742"><ele>461.4</ele><time>2024-05-17T15:15:52Z</time></trkpt>
<trkpt lat="46.49161" lon="6.74741"><ele>461.2</ele><time>2024-05-17T15:15:57Z</time></trkpt>
<trkpt lat="46.4916" lon="6.74741"><ele>461.2</ele><time>2024-05-17T15:16:04Z</time></trkpt>
<trkpt lat="46.4916" lon="6.7474"><ele>461.2</ele><time>2024-05-17T15:16:06Z</time></trkpt>
<trkpt lat="46.4916" lon="6.74741"><ele>461</ele><time>2024-05-17T15:16:16Z</time></trkpt>
<trkpt lat="46.4916" lon="6.7474"><ele>461</ele><time>2024-05-17T15:16:27Z</time></trkpt>
<trkpt lat="46.49161" lon="6.7474"><ele>461</ele><time>2024-05-17T15:16:35Z</time></trkpt>
<trkpt lat="46.49161" lon="6.74744"><ele>460.8</ele><time>2024-05-17T15:16:47Z</time></trkpt>
<trkpt lat="46.49161" lon="6.74744"><ele>460.8</ele><time>2024-05-17T15:16:50Z</time></trkpt>
<trkpt lat="46.49161" lon="6.74743"><ele>460.8</ele><time>2024-05-17T15:16:53Z</time></trkpt>
<trkpt lat="46.49158" lon="6.74749"><ele>460.8</ele><time>2024-05-17T15:16:58Z</time></trkpt>
<trkpt lat="46.49151" lon="6.74766"><ele>461</ele><time>2024-05-17T15:17:04Z</time></trkpt>
<trkpt lat="46.49142" lon="6.74778"><ele>461</ele><time>2024-05-17T15:17:08Z</time></trkpt>
<trkpt lat="46.49136" lon="6.74783"><ele>460.8</ele><time>2024-05-17T15:17:09Z</time></trkpt>
<trkpt lat="46.49131" lon="6.74786"><ele>460.8</ele><time>2024-05-17T15:17:10Z</time></trkpt>
<trkpt lat="46.49124" lon="6.74795"><ele>460.8</ele><time>2024-05-17T15:17:12Z</time></trkpt>
<trkpt lat="46.49121" lon="6.74802"><ele>460.8</ele><time>2024-05-17T15:17:13Z</time></trkpt>
<trkpt lat="46.49106" lon="6.74828"><ele>462.2</ele><time>2024-05-17T15:17:19Z</time></trkpt>
<trkpt lat="46.49103" lon="6.74832"><ele>462.4</ele><time>2024-05-17T15:17:20Z</time></trkpt>
<trkpt lat="46.49082" lon="6.74854"><ele>463.6</ele><time>2024-05-17T15:17:26Z</time></trkpt>
<trkpt lat="46.49073" lon="6.74862"><ele>463.8</ele><time>2024-05-17T15:17:28Z</time></trkpt>
<trkpt lat="46.49052" lon="6.74873"><ele>465.2</ele><time>2024-05-17T15:17:33Z</time></trkpt>
<trkpt lat="46.49047" lon="6.74874"><ele>465.8</ele><time>2024-05-17T15:17:34Z</time></trkpt>
<trkpt lat="46.49043" lon="6.74876"><ele>466.2</ele><time>2024-05-17T15:17:35Z</time></trkpt>
<trkpt lat="46.49039" lon="6.7488"><ele>466.4</ele><time>2024-05-17T15:17:36Z</time></trkpt>
<trkpt lat="46.49036" lon="6.74885"><ele>466.4</ele><time>2024-05-17T15:17:37Z</time></trkpt>
<trkpt lat="46.49033" lon="6.7489"><ele>466.4</ele><time>2024-05-17T15:17:38Z</time></trkpt>
<trkpt lat="46.49031" lon="6.74897"><ele>466.4</ele><time>2024-05-17T15:17:39Z</time></trkpt>
<trkpt lat="46.49022" lon="6.74928"><ele>466.2</ele><time>2024-05-17T15:17:43Z</time></trkpt>
<trkpt lat="46.49019" lon="6.74937"><ele>466.2</ele><time>2024-05-17T15:17:44Z</time></trkpt>
<trkpt lat="46.49017" lon="6.74946"><ele>466</ele><time>2024-05-17T15:17:45Z</time></trkpt>
<trkpt lat="46.49014" lon="6.74955"><ele>466</ele><time>2024-05-17T15:17:46Z</time></trkpt>
<trkpt lat="46.49013" lon="6.74964"><ele>466</ele><time>2024-05-17T15:17:47Z</time></trkpt>
<trkpt lat="46.49011" lon="6.74972"><ele>466.2</ele><time>2024-05-17T15:17:48Z</time></trkpt>
<trkpt lat="46.4901" lon="6.74979"><ele>466.6</ele><time>2024-05-17T15:17:49Z</time></trkpt>
<trkpt lat="46.49008" lon="6.74985"><ele>467.2</ele><time>2024-05-17T15:17:50Z</time></trkpt>
<trkpt lat="46.49007" lon="6.74991"><ele>467.6</ele><time>2024-05-17T15:17:51Z</time></trkpt>
<trkpt lat="46.49005" lon="6.74995"><ele>468.6</ele><time>2024-05-17T15:17:52Z</time></trkpt>
<trkpt lat="46.49002" lon="6.75"><ele>468.6</ele><time>2024-05-17T15:17:53Z</time></trkpt>
<trkpt lat="46.48999" lon="6.75005"><ele>469.2</ele><time>2024-05-17T15:17:54Z</time></trkpt>
<trkpt lat="46.48992" lon="6.75012"><ele>470</ele><time>2024-05-17T15:17:56Z</time></trkpt>
<trkpt lat="46.48985" lon="6.75019"><ele>470.4</ele><time>2024-05-17T15:17:58Z</time></trkpt>
<trkpt lat="46.48978" lon="6.75027"><ele>471</ele><time>2024-05-17T15:18:00Z</time></trkpt>
<trkpt lat="46.48963" lon="6.75046"><ele>471.2</ele><time>2024-05-17T15:18:05Z</time></trkpt>
<trkpt lat="46.48951" lon="6.75061"><ele>472</ele><time>2024-05-17T15:18:09Z</time></trkpt>
<trkpt lat="46.48942" lon="6.7508"><ele>472.6</ele><time>2024-05-17T15:18:13Z</time></trkpt>
<trkpt lat="46.48938" lon="6.75102"><ele>473</ele><time>2024-05-17T15:18:17Z</time></trkpt>
<trkpt lat="46.48937" lon="6.75119"><ele>473.6</ele><time>2024-05-17T15:18:20Z</time></trkpt>
<trkpt lat="46.48936" lon="6.7516"><ele>474.2</ele><time>2024-05-17T15:18:27Z</time></trkpt>
<trkpt lat="46.48933" lon="6.7517"><ele>474.6</ele><time>2024-05-17T15:18:29Z</time></trkpt>
<trkpt lat="46.48924" lon="6.75194"><ele>475.4</ele><time>2024-05-17T15:18:34Z</time></trkpt>
<trkpt lat="46.48918" lon="6.75199"><ele>475.8</ele><time>2024-05-17T15:18:36Z</time></trkpt>
<trkpt lat="46.48906" lon="6.75209"><ele>476.4</ele><time>2024-05-17T15:18:40Z</time></trkpt>
<trkpt lat="46.48895" lon="6.75219"><ele>477.2</ele><time>2024-05-17T15:18:44Z</time></trkpt>
<trkpt lat="46.48889" lon="6.75223"><ele>477.4</ele><time>2024-05-17T15:18:46Z</time></trkpt>
<trkpt lat="46.48868" lon="6.75241"><ele>478.6</ele><time>2024-05-17T15:18:53Z</time></trkpt>
<trkpt lat="46.48863" lon="6.75247"><ele>478.6</ele><time>2024-05-17T15:18:55Z</time></trkpt>
<trkpt lat="46.48847" lon="6.75272"><ele>479.6</ele><time>2024-05-17T15:19:02Z</time></trkpt>
<trkpt lat="46.48841" lon="6.75284"><ele>480</ele><time>2024-05-17T15:19:05Z</time></trkpt>
<trkpt lat="46.48829" lon="6.75308"><ele>480.8</ele><time>2024-05-17T15:19:11Z</time></trkpt>
<trkpt lat="46.48817" lon="6.75333"><ele>481.6</ele><time>2024-05-17T15:19:17Z</time></trkpt>
<trkpt lat="46.48811" lon="6.75344"><ele>481.8</ele><time>2024-05-17T15:19:20Z</time></trkpt>
<trkpt lat="46.48799" lon="6.75368"><ele>483</ele><time>2024-05-17T15:19:26Z</time></trkpt>
<trkpt lat="46.48794" lon="6.75376"><ele>483</ele><time>2024-05-17T15:19:28Z</time></trkpt>
<trkpt lat="46.48773" lon="6.75418"><ele>483.8</ele><time>2024-05-17T15:19:38Z</time></trkpt>
<trkpt lat="46.4877" lon="6.75422"><ele>484</ele><time>2024-05-17T15:19:39Z</time></trkpt>
<trkpt lat="46.48744" lon="6.7546"><ele>485.2</ele><time>2024-05-17T15:19:49Z</time></trkpt>
<trkpt lat="46.48741" lon="6.75464"><ele>485.4</ele><time>2024-05-17T15:19:50Z</time></trkpt>
<trkpt lat="46.48721" lon="6.75486"><ele>486.2</ele><time>2024-05-17T15:19:57Z</time></trkpt>
<trkpt lat="46.48716" lon="6.75492"><ele>486.6</ele><time>2024-05-17T15:19:59Z</time></trkpt>
<trkpt lat="46.48703" lon="6.75508"><ele>487.2</ele><time>2024-05-17T15:20:04Z</time></trkpt>
<trkpt lat="46.4869" lon="6.75525"><ele>487.6</ele><time>2024-05-17T15:20:09Z</time></trkpt>
<trkpt lat="46.48675" lon="6.75545"><ele>488.2</ele><time>2024-05-17T15:20:15Z</time></trkpt>
<trkpt lat="46.48663" lon="6.75561"><ele>488.6</ele><time>2024-05-17T15:20:20Z</time></trkpt>
<trkpt lat="46.48655" lon="6.75573"><ele>489.4</ele><time>2024-05-17T15:20:24Z</time></trkpt>
<trkpt lat="46.48648" lon="6.75586"><ele>490.8</ele><time>2024-05-17T15:20:29Z</time></trkpt>
<trkpt lat="46.48647" lon="6.75589"><ele>490.8</ele><time>2024-05-17T15:20:30Z</time></trkpt>
<trkpt lat="46.48634" lon="6.75613"><ele>491.4</ele><time>2024-05-17T15:20:37Z</time></trkpt>
<trkpt lat="46.48622" lon="6.75632"><ele>491.8</ele><time>2024-05-17T15:20:43Z</time></trkpt>
<trkpt lat="46.48611" lon="6.75653"><ele>492.8</ele><time>2024-05-17T15:20:48Z</time></trkpt>
<trkpt lat="46.48602" lon="6.7567"><ele>493.8</ele><time>2024-05-17T15:20:52Z</time></trkpt>
<trkpt lat="46.48597" lon="6.75679"><ele>494.4</ele><time>2024-05-17T15:20:54Z</time></trkpt>
<trkpt lat="46.4859" lon="6.75692"><ele>495</ele><time>2024-05-17T15:20:57Z</time></trkpt>
<trkpt lat="46.4858" lon="6.7571"><ele>496</ele><time>2024-05-17T15:21:01Z</time></trkpt>
<trkpt lat="46.48571" lon="6.75726"><ele>497.4</ele><time>2024-05-17T15:21:05Z</time></trkpt>
<trkpt lat="46.48562" lon="6.75741"><ele>498.4</ele><time>2024-05-17T15:21:09Z</time></trkpt>
<trkpt lat="46.48555" lon="6.75752"><ele>498.8</ele><time>2024-05-17T15:21:13Z</time></trkpt>
<trkpt lat="46.4855" lon="6.75759"><ele>499.6</ele><time>2024-05-17T15:21:16Z</time></trkpt>
<trkpt lat="46.48541" lon="6.75775"><ele>500.6</ele><time>2024-05-17T15:21:22Z</time></trkpt>
<trkpt lat="46.48539" lon="6.75781"><ele>501</ele><time>2024-05-17T15:21:24Z</time></trkpt>
<trkpt lat="46.48528" lon="6.75798"><ele>501.8</ele><time>2024-05-17T15:21:31Z</time></trkpt>
<trkpt lat="46.48522" lon="6.75808"><ele>502.4</ele><time>2024-05-17T15:21:35Z</time></trkpt>
<trkpt lat="46.48518" lon="6.75815"><ele>502.8</ele><time>2024-05-17T15:21:38Z</time></trkpt>
<trkpt lat="46.48508" lon="6.75832"><ele>504</ele><time>2024-05-17T15:21:45Z</time></trkpt>
<trkpt lat="46.48503" lon="6.75839"><ele>504.4</ele><time>2024-05-17T15:21:48Z</time></trkpt>
<trkpt lat="46.48497" lon="6.75849"><ele>505</ele><time>2024-05-17T15:21:52Z</time></trkpt>
<trkpt lat="46.48486" lon="6.75866"><ele>506</ele><time>2024-05-17T15:21:59Z</time></trkpt>
<trkpt lat="46.48483" lon="6.75871"><ele>506.4</ele><time>2024-05-17T15:22:01Z</time></trkpt>
<trkpt lat="46.4847" lon="6.75888"><ele>507.2</ele><time>2024-05-17T15:22:08Z</time></trkpt>
<trkpt lat="46.48465" lon="6.75896"><ele>507.6</ele><time>2024-05-17T15:22:11Z</time></trkpt>
<trkpt lat="46.48456" lon="6.75907"><ele>508.4</ele><time>2024-05-17T15:22:16Z</time></trkpt>
<trkpt lat="46.48445" lon="6.7592"><ele>509.2</ele><time>2024-05-17T15:22:22Z</time></trkpt>
<trkpt lat="46.48443" lon="6.75922"><ele>509.4</ele><time>2024-05-17T15:22:23Z</time></trkpt>
<trkpt lat="46.4843" lon="6.75934"><ele>510.6</ele><time>2024-05-17T15:22:30Z</time></trkpt>
<trkpt lat="46.48427" lon="6.75936"><ele>510.6</ele><time>2024-05-17T15:22:32Z</time></trkpt>
<trkpt lat="46.48412" lon="6.75953"><ele>511.6</ele><time>2024-05-17T15:22:40Z</time></trkpt>
<trkpt lat="46.48405" lon="6.75963"><ele>511.8</ele><time>2024-05-17T15:22:43Z</time></trkpt>
<trkpt lat="46.48397" lon="6.75976"><ele>512.6</ele><time>2024-05-17T15:22:48Z</time></trkpt>
<trkpt lat="46.48386" lon="6.75992"><ele>513.2</ele><time>2024-05-17T15:22:54Z</time></trkpt>
<trkpt lat="46.48379" lon="6.76003"><ele>513.6</ele><time>2024-05-17T15:22:58Z</time></trkpt>
<trkpt lat="46.48363" lon="6.76027"><ele>514.8</ele><time>2024-05-17T15:23:07Z</time></trkpt>
<trkpt lat="46.48349" lon="6.76047"><ele>516</ele><time>2024-05-17T15:23:15Z</time></trkpt>
<trkpt lat="46.48338" lon="6.76057"><ele>517</ele><time>2024-05-17T15:23:20Z</time></trkpt>
<trkpt lat="46.48336" lon="6.76059"><ele>517.2</ele><time>2024-05-17T15:23:21Z</time></trkpt>
<trkpt lat="46.48324" lon="6.76076"><ele>518</ele><time>2024-05-17T15:23:28Z</time></trkpt>
<trkpt lat="46.48321" lon="6.76082"><ele>518.4</ele><time>2024-05-17T15:23:30Z</time></trkpt>
<trkpt lat="46.48308" lon="6.76103"><ele>519.2</ele><time>2024-05-17T15:23:38Z</time></trkpt>
<trkpt lat="46.48305" lon="6.76108"><ele>519.6</ele><time>2024-05-17T15:23:40Z</time></trkpt>
<trkpt lat="46.48292" lon="6.76133"><ele>520.8</ele><time>2024-05-17T15:23:49Z</time></trkpt>
<trkpt lat="46.48286" lon="6.76144"><ele>521.2</ele><time>2024-05-17T15:23:53Z</time></trkpt>
<trkpt lat="46.48277" lon="6.76159"><ele>521.8</ele><time>2024-05-17T15:23:58Z</time></trkpt>
<trkpt lat="46.48266" lon="6.76178"><ele>523</ele><time>2024-05-17T15:24:05Z</time></trkpt>
<trkpt lat="46.48264" lon="6.76181"><ele>523.2</ele><time>2024-05-17T15:24:06Z</time></trkpt>
<trkpt lat="46.48252" lon="6.762"><ele>524.2</ele><time>2024-05-17T15:24:13Z</time></trkpt>
<trkpt lat="46.48247" lon="6.76206"><ele>524.8</ele><time>2024-05-17T15:24:16Z</time></trkpt>
<trkpt lat="46.48241" lon="6.76213"><ele>525.2</ele><time>2024-05-17T15:24:20Z</time></trkpt>
<trkpt lat="46.48234" lon="6.76225"><ele>526</ele><time>2024-05-17T15:24:25Z</time></trkpt>
<trkpt lat="46.48229" lon="6.76235"><ele>526.4</ele><time>2024-05-17T15:24:27Z</time></trkpt>
<trkpt lat="46.48215" lon="6.76263"><ele>527.6</ele><time>2024-05-17T15:24:36Z</time></trkpt>
<trkpt lat="46.48202" lon="6.76289"><ele>528.6</ele><time>2024-05-17T15:24:45Z</time></trkpt>
<trkpt lat="46.48201" lon="6.76292"><ele>528.8</ele><time>2024-05-17T15:24:46Z</time></trkpt>
<trkpt lat="46.48191" lon="6.76313"><ele>529.8</ele><time>2024-05-17T15:24:53Z</time></trkpt>
<trkpt lat="46.48185" lon="6.76328"><ele>530.2</ele><time>2024-05-17T15:24:58Z</time></trkpt>
<trkpt lat="46.48179" lon="6.7634"><ele>531</ele><time>2024-05-17T15:25:03Z</time></trkpt>
<trkpt lat="46.48175" lon="6.76346"><ele>531.2</ele><time>2024-05-17T15:25:06Z</time></trkpt>
<trkpt lat="46.48174" lon="6.76346"><ele>531.8</ele><time>2024-05-17T15:25:11Z</time></trkpt>
<trkpt lat="46.48174" lon="6.76347"><ele>531.8</ele><time>2024-05-17T15:25:20Z</time></trkpt>
<trkpt lat="46.48175" lon="6.76347"><ele>531.8</ele><time>2024-05-17T15:25:25Z</time></trkpt>
<trkpt lat="46.48174" lon="6.76347"><ele>531.6</ele><time>2024-05-17T15:25:32Z</time></trkpt>
<trkpt lat="46.48174" lon="6.76347"><ele>531.4</ele><time>2024-05-17T15:25:39Z</time></trkpt>
<trkpt lat="46.48174" lon="6.76346"><ele>531.4</ele><time>2024-05-17T15:25:46Z</time></trkpt>
<trkpt lat="46.48174" lon="6.76347"><ele>531.4</ele><time>2024-05-17T15:25:50Z</time></trkpt>
<trkpt lat="46.48174" lon="6.76347"><ele>531.4</ele><time>2024-05-17T15:25:51Z</time></trkpt>
<trkpt lat="46.48173" lon="6.76346"><ele>531.6</ele><time>2024-05-17T15:25:54Z</time></trkpt>
<trkpt lat="46.48173" lon="6.76346"><ele>531.8</ele><time>2024-05-17T15:25:57Z</time></trkpt>
<trkpt lat="46.48173" lon="6.76346"><ele>531.8</ele><time>2024-05-17T15:25:59Z</time></trkpt>
<trkpt lat="46.4817" lon="6.76356"><ele>531.4</ele><time>2024-05-17T15:26:04Z</time></trkpt>
<trkpt lat="46.48164" lon="6.76371"><ele>532</ele><time>2024-05-17T15:26:09Z</time></trkpt>
<trkpt lat="46.48162" lon="6.76379"><ele>532.4</ele><time>2024-05-17T15:26:11Z</time></trkpt>
<trkpt lat="46.48151" lon="6.76402"><ele>533</ele><time>2024-05-17T15:26:18Z</time></trkpt>
<trkpt lat="46.48149" lon="6.76406"><ele>533.2</ele><time>2024-05-17T15:26:19Z</time></trkpt>
<trkpt lat="46.48143" lon="6.76423"><ele>534.2</ele><time>2024-05-17T15:26:24Z</time></trkpt>
<trkpt lat="46.48141" lon="6.76427"><ele>534.4</ele><time>2024-05-17T15:26:25Z</time></trkpt>
<trkpt lat="46.48138" lon="6.76438"><ele>535</ele><time>2024-05-17T15:26:28Z</time></trkpt>
<trkpt lat="46.48135" lon="6.76445"><ele>535.2</ele><time>2024-05-17T15:26:30Z</time></trkpt>
<trkpt lat="46.4813" lon="6.76455"><ele>535.6</ele><time>2024-05-17T15:26:33Z</time></trkpt>
<trkpt lat="46.48127" lon="6.76463"><ele>536.2</ele><time>2024-05-17T15:26:35Z</time></trkpt>
<trkpt lat="46.4812" lon="6.76481"><ele>536.6</ele><time>2024-05-17T15:26:40Z</time></trkpt>
<trkpt lat="46.48119" lon="6.76485"><ele>537</ele><time>2024-05-17T15:26:41Z</time></trkpt>
<trkpt lat="46.48111" lon="6.76508"><ele>538</ele><time>2024-05-17T15:26:47Z</time></trkpt>
<trkpt lat="46.48105" lon="6.76527"><ele>538.8</ele><time>2024-05-17T15:26:52Z</time></trkpt>
<trkpt lat="46.48103" lon="6.76534"><ele>539.4</ele><time>2024-05-17T15:26:54Z</time></trkpt>
<trkpt lat="46.48099" lon="6.76545"><ele>539.6</ele><time>2024-05-17T15:26:57Z</time></trkpt>
<trkpt lat="46.48093" lon="6.76561"><ele>540.6</ele><time>2024-05-17T15:27:02Z</time></trkpt>
<trkpt lat="46.48079" lon="6.76586"><ele>541.6</ele><time>2024-05-17T15:27:10Z</time></trkpt>
<trkpt lat="46.48075" lon="6.76592"><ele>542</ele><time>2024-05-17T15:27:12Z</time></trkpt>
<trkpt lat="46.48067" lon="6.76604"><ele>542.6</ele><time>2024-05-17T15:27:16Z</time></trkpt>
<trkpt lat="46.4806" lon="6.76621"><ele>543.8</ele><time>2024-05-17T15:27:21Z</time></trkpt>
<trkpt lat="46.48053" lon="6.76648"><ele>545</ele><time>2024-05-17T15:27:28Z</time></trkpt>
<trkpt lat="46.48052" lon="6.76652"><ele>545</ele><time>2024-05-17T15:27:29Z</time></trkpt>
<trkpt lat="46.48043" lon="6.7668"><ele>546</ele><time>2024-05-17T15:27:37Z</time></trkpt>
<trkpt lat="46.48041" lon="6.76687"><ele>546.4</ele><time>2024-05-17T15:27:39Z</time></trkpt>
<trkpt lat="46.48035" lon="6.76705"><ele>547</ele><time>2024-05-17T15:27:44Z</time></trkpt>
<trkpt lat="46.4803" lon="6.76719"><ele>548.2</ele><time>2024-05-17T15:27:48Z</time></trkpt>
<trkpt lat="46.48028" lon="6.76727"><ele>548.2</ele><time>2024-05-17T15:27:50Z</time></trkpt>
<trkpt lat="46.48025" lon="6.76748"><ele>549.2</ele><time>2024-05-17T15:27:56Z</time></trkpt>
<trkpt lat="46.48024" lon="6.76758"><ele>549.6</ele><time>2024-05-17T15:27:59Z</time></trkpt>
<trkpt lat="46.48024" lon="6.76771"><ele>550.2</ele><time>2024-05-17T15:28:03Z</time></trkpt>
<trkpt lat="46.48028" lon="6.76786"><ele>550.6</ele><time>2024-05-17T15:28:08Z</time></trkpt>
<trkpt lat="46.48033" lon="6.76793"><ele>551.2</ele><time>2024-05-17T15:28:11Z</time></trkpt>
<trkpt lat="46.48037" lon="6.76805"><ele>551.6</ele><time>2024-05-17T15:28:15Z</time></trkpt>
<trkpt lat="46.48047" lon="6.76833"><ele>552.4</ele><time>2024-05-17T15:28:23Z</time></trkpt>
<trkpt lat="46.48049" lon="6.76843"><ele>552.6</ele><time>2024-05-17T15:28:26Z</time></trkpt>
<trkpt lat="46.4805" lon="6.76857"><ele>553.4</ele><time>2024-05-17T15:28:30Z</time></trkpt>
<trkpt lat="46.48049" lon="6.76875"><ele>554.2</ele><time>2024-05-17T15:28:35Z</time></trkpt>
<trkpt lat="46.48048" lon="6.76882"><ele>554.6</ele><time>2024-05-17T15:28:37Z</time></trkpt>
<trkpt lat="46.48044" lon="6.76904"><ele>555.6</ele><time>2024-05-17T15:28:43Z</time></trkpt>
<trkpt lat="46.48043" lon="6.76911"><ele>555.8</ele><time>2024-05-17T15:28:45Z</time></trkpt>
<trkpt lat="46.48042" lon="6.76934"><ele>556.6</ele><time>2024-05-17T15:28:51Z</time></trkpt>
<trkpt lat="46.48042" lon="6.76941"><ele>556.8</ele><time>2024-05-17T15:28:53Z</time></trkpt>
<trkpt lat="46.48043" lon="6.76969"><ele>558</ele><time>2024-05-17T15:29:00Z</time></trkpt>
<trkpt lat="46.48043" lon="6.76974"><ele>558</ele><time>2024-05-17T15:29:01Z</time></trkpt>
<trkpt lat="46.48043" lon="6.77005"><ele>559.2</ele><time>2024-05-17T15:29:09Z</time></trkpt>
<trkpt lat="46.48042" lon="6.77022"><ele>559.6</ele><time>2024-05-17T15:29:13Z</time></trkpt>
<trkpt lat="46.48041" lon="6.7703"><ele>560.2</ele><time>2024-05-17T15:29:15Z</time></trkpt>
<trkpt lat="46.48036" lon="6.77051"><ele>561</ele><time>2024-05-17T15:29:21Z</time></trkpt>
<trkpt lat="46.48034" lon="6.77058"><ele>561.4</ele><time>2024-05-17T15:29:23Z</time></trkpt>
<trkpt lat="46.48031" lon="6.77084"><ele>562.6</ele><time>2024-05-17T15:29:31Z</time></trkpt>
<trkpt lat="46.48027" lon="6.77113"><ele>563.8</ele><time>2024-05-17T15:29:39Z</time></trkpt>
<trkpt lat="46.48026" lon="6.7712"><ele>564</ele><time>2024-05-17T15:29:41Z</time></trkpt>
<trkpt lat="46.48023" lon="6.77157"><ele>564.8</ele><time>2024-05-17T15:29:51Z</time></trkpt>
<trkpt lat="46.48022" lon="6.77182"><ele>566</ele><time>2024-05-17T15:29:57Z</time></trkpt>
<trkpt lat="46.48021" lon="6.77197"><ele>566.4</ele><time>2024-05-17T15:30:01Z</time></trkpt>
<trkpt lat="46.48017" lon="6.77216"><ele>567</ele><time>2024-05-17T15:30:06Z</time></trkpt>
<trkpt lat="46.48014" lon="6.7724"><ele>568</ele><time>2024-05-17T15:30:12Z</time></trkpt>
<trkpt lat="46.48013" lon="6.77244"><ele>568.2</ele><time>2024-05-17T15:30:13Z</time></trkpt>
<trkpt lat="46.4801" lon="6.77267"><ele>569.2</ele><time>2024-05-17T15:30:19Z</time></trkpt>
<trkpt lat="46.48007" lon="6.77293"><ele>570.2</ele><time>2024-05-17T15:30:26Z</time></trkpt>
<trkpt lat="46.48006" lon="6.77296"><ele>570.4</ele><time>2024-05-17T15:30:27Z</time></trkpt>
<trkpt lat="46.48004" lon="6.77325"><ele>571.4</ele><time>2024-05-17T15:30:35Z</time></trkpt>
<trkpt lat="46.48004" lon="6.77332"><ele>571.8</ele><time>2024-05-17T15:30:37Z</time></trkpt>
<trkpt lat="46.48008" lon="6.77351"><ele>572.4</ele><time>2024-05-17T15:30:42Z</time></trkpt>
<trkpt lat="46.48011" lon="6.77365"><ele>572.6</ele><time>2024-05-17T15:30:45Z</time></trkpt>
<trkpt lat="46.48022" lon="6.77387"><ele>572.8</ele><time>2024-05-17T15:30:51Z</time></trkpt>
<trkpt lat="46.48039" lon="6.77396"><ele>573.2</ele><time>2024-05-17T15:30:57Z</time></trkpt>
<trkpt lat="46.48061" lon="6.7739"><ele>573.2</ele><time>2024-05-17T15:31:03Z</time></trkpt>
<trkpt lat="46.48078" lon="6.77375"><ele>573</ele><time>2024-05-17T15:31:08Z</time></trkpt>
<trkpt lat="46.48091" lon="6.77372"><ele>573</ele><time>2024-05-17T15:31:10Z</time></trkpt>
<trkpt lat="46.48105" lon="6.77374"><ele>573.2</ele><time>2024-05-17T15:31:13Z</time></trkpt>
<trkpt lat="46.48113" lon="6.77379"><ele>573.4</ele><time>2024-05-17T15:31:15Z</time></trkpt>
<trkpt lat="46.48117" lon="6.77382"><ele>573.4</ele><time>2024-05-17T15:31:16Z</time></trkpt>
<trkpt lat="46.4812" lon="6.77387"><ele>573.6</ele><time>2024-05-17T15:31:17Z</time></trkpt>
<trkpt lat="46.48123" lon="6.77392"><ele>573.6</ele><time>2024-05-17T15:31:18Z</time></trkpt>
<trkpt lat="46.48129" lon="6.77403"><ele>573.8</ele><time>2024-05-17T15:31:20Z</time></trkpt>
<trkpt lat="46.48146" lon="6.77438"><ele>574.6</ele><time>2024-05-17T15:31:27Z</time></trkpt>
<trkpt lat="46.48154" lon="6.77451"><ele>575.2</ele><time>2024-05-17T15:31:30Z</time></trkpt>
<trkpt lat="46.4816" lon="6.77459"><ele>575.8</ele><time>2024-05-17T15:31:33Z</time></trkpt>
<trkpt lat="46.48178" lon="6.77484"><ele>576.6</ele><time>2024-05-17T15:31:39Z</time></trkpt>
<trkpt lat="46.48186" lon="6.77497"><ele>576.8</ele><time>2024-05-17T15:31:41Z</time></trkpt>
<trkpt lat="46.48192" lon="6.7752"><ele>577</ele><time>2024-05-17T15:31:46Z</time></trkpt>
<trkpt lat="46.48184" lon="6.77539"><ele>576</ele><time>2024-05-17T15:31:51Z</time></trkpt>
<trkpt lat="46.48181" lon="6.77546"><ele>575.6</ele><time>2024-05-17T15:31:52Z</time></trkpt>
<trkpt lat="46.48177" lon="6.77551"><ele>573.8</ele><time>2024-05-17T15:31:54Z</time></trkpt>
<trkpt lat="46.4817" lon="6.7756"><ele>573.8</ele><time>2024-05-17T15:31:56Z</time></trkpt>
<trkpt lat="46.48158" lon="6.77569"><ele>574.4</ele><time>2024-05-17T15:32:00Z</time></trkpt>
<trkpt lat="46.4815" lon="6.77577"><ele>574.8</ele><time>2024-05-17T15:32:05Z</time></trkpt>
<trkpt lat="46.48147" lon="6.77581"><ele>575</ele><time>2024-05-17T15:32:07Z</time></trkpt>
<trkpt lat="46.4813" lon="6.77597"><ele>574.8</ele><time>2024-05-17T15:32:13Z</time></trkpt>
<trkpt lat="46.48121" lon="6.77618"><ele>574</ele><time>2024-05-17T15:32:15Z</time></trkpt>
<trkpt lat="46.48119" lon="6.77626"><ele>573.4</ele><time>2024-05-17T15:32:16Z</time></trkpt>
<trkpt lat="46.48117" lon="6.77636"><ele>572.6</ele><time>2024-05-17T15:32:18Z</time></trkpt>
<trkpt lat="46.48112" lon="6.77653"><ele>572</ele><time>2024-05-17T15:32:20Z</time></trkpt>
<trkpt lat="46.4811" lon="6.77661"><ele>570.8</ele><time>2024-05-17T15:32:21Z</time></trkpt>
<trkpt lat="46.48111" lon="6.77672"><ele>570.8</ele><time>2024-05-17T15:32:23Z</time></trkpt>
<trkpt lat="46.48117" lon="6.77687"><ele>570.8</ele><time>2024-05-17T15:32:27Z</time></trkpt>
<trkpt lat="46.48121" lon="6.77693"><ele>571.4</ele><time>2024-05-17T15:32:30Z</time></trkpt>
<trkpt lat="46.48124" lon="6.77698"><ele>572</ele><time>2024-05-17T15:32:32Z</time></trkpt>
<trkpt lat="46.48132" lon="6.77713"><ele>573.2</ele><time>2024-05-17T15:32:37Z</time></trkpt>
<trkpt lat="46.48134" lon="6.77714"><ele>573.2</ele><time>2024-05-17T15:32:38Z</time></trkpt>
<trkpt lat="46.48139" lon="6.77719"><ele>574.2</ele><time>2024-05-17T15:32:41Z</time></trkpt>
<trkpt lat="46.48145" lon="6.77724"><ele>575</ele><time>2024-05-17T15:32:45Z</time></trkpt>
<trkpt lat="46.48146" lon="6.77724"><ele>575.2</ele><time>2024-05-17T15:32:46Z</time></trkpt>
<trkpt lat="46.48148" lon="6.77727"><ele>575.8</ele><time>2024-05-17T15:32:50Z</time></trkpt>
<trkpt lat="46.48154" lon="6.77733"><ele>575.8</ele><time>2024-05-17T15:32:55Z</time></trkpt>
<trkpt lat="46.48154" lon="6.77736"><ele>575.8</ele><time>2024-05-17T15:32:56Z</time></trkpt>
<trkpt lat="46.48154" lon="6.77751"><ele>575.4</ele><time>2024-05-17T15:32:59Z</time></trkpt>
<trkpt lat="46.48155" lon="6.77764"><ele>574.8</ele><time>2024-05-17T15:33:01Z</time></trkpt>
<trkpt lat="46.48157" lon="6.77777"><ele>574.6</ele><time>2024-05-17T15:33:03Z</time></trkpt>
<trkpt lat="46.4816" lon="6.77791"><ele>574.4</ele><time>2024-05-17T15:33:05Z</time></trkpt>
<trkpt lat="46.48162" lon="6.77798"><ele>574.4</ele><time>2024-05-17T15:33:06Z</time></trkpt>
<trkpt lat="46.48163" lon="6.77806"><ele>574.2</ele><time>2024-05-17T15:33:07Z</time></trkpt>
<trkpt lat="46.48168" lon="6.77831"><ele>573</ele><time>2024-05-17T15:33:10Z</time></trkpt>
<trkpt lat="46.4817" lon="6.77852"><ele>572.6</ele><time>2024-05-17T15:33:12Z</time></trkpt>
<trkpt lat="46.48171" lon="6.77863"><ele>571.6</ele><time>2024-05-17T15:33:13Z</time></trkpt>
<trkpt lat="46.48176" lon="6.77898"><ele>570.4</ele><time>2024-05-17T15:33:16Z</time></trkpt>
<trkpt lat="46.48179" lon="6.77911"><ele>569.4</ele><time>2024-05-17T15:33:17Z</time></trkpt>
<trkpt lat="46.48181" lon="6.77924"><ele>567.8</ele><time>2024-05-17T15:33:18Z</time></trkpt>
<trkpt lat="46.48181" lon="6.77938"><ele>567.2</ele><time>2024-05-17T15:33:19Z</time></trkpt>
<trkpt lat="46.48179" lon="6.7795"><ele>566.8</ele><time>2024-05-17T15:33:20Z</time></trkpt>
<trkpt lat="46.48175" lon="6.77963"><ele>565.6</ele><time>2024-05-17T15:33:21Z</time></trkpt>
<trkpt lat="46.48162" lon="6.77983"><ele>564</ele><time>2024-05-17T15:33:23Z</time></trkpt>
<trkpt lat="46.48154" lon="6.77991"><ele>562.2</ele><time>2024-05-17T15:33:24Z</time></trkpt>
<trkpt lat="46.48138" lon="6.78009"><ele>561</ele><time>2024-05-17T15:33:26Z</time></trkpt>
<trkpt lat="46.48123" lon="6.78027"><ele>557.8</ele><time>2024-05-17T15:33:28Z</time></trkpt>
<trkpt lat="46.48107" lon="6.78046"><ele>557</ele><time>2024-05-17T15:33:30Z</time></trkpt>
<trkpt lat="46.481" lon="6.78053"><ele>556.6</ele><time>2024-05-17T15:33:31Z</time></trkpt>
<trkpt lat="46.4808" lon="6.78069"><ele>556.2</ele><time>2024-05-17T15:33:34Z</time></trkpt>
<trkpt lat="46.48069" lon="6.78078"><ele>556.2</ele><time>2024-05-17T15:33:36Z</time></trkpt>
<trkpt lat="46.48059" lon="6.78089"><ele>555.8</ele><time>2024-05-17T15:33:38Z</time></trkpt>
<trkpt lat="46.48055" lon="6.78096"><ele>555.6</ele><time>2024-05-17T15:33:39Z</time></trkpt>
<trkpt lat="46.48053" lon="6.78104"><ele>555.4</ele><time>2024-05-17T15:33:40Z</time></trkpt>
<trkpt lat="46.48051" lon="6.78122"><ele>554.8</ele><time>2024-05-17T15:33:42Z</time></trkpt>
<trkpt lat="46.48051" lon="6.78131"><ele>554.6</ele><time>2024-05-17T15:33:43Z</time></trkpt>
<trkpt lat="46.48046" lon="6.7816"><ele>553.4</ele><time>2024-05-17T15:33:46Z</time></trkpt>
<trkpt lat="46.48041" lon="6.78168"><ele>553.2</ele><time>2024-05-17T15:33:47Z</time></trkpt>
<trkpt lat="46.48035" lon="6.78176"><ele>552.4</ele><time>2024-05-17T15:33:48Z</time></trkpt>
<trkpt lat="46.48029" lon="6.78184"><ele>551.2</ele><time>2024-05-17T15:33:49Z</time></trkpt>
<trkpt lat="46.48025" lon="6.78194"><ele>550.6</ele><time>2024-05-17T15:33:50Z</time></trkpt>
<trkpt lat="46.48021" lon="6.78205"><ele>550.2</ele><time>2024-05-17T15:33:51Z</time></trkpt>
<trkpt lat="46.48018" lon="6.78217"><ele>549</ele><time>2024-05-17T15:33:52Z</time></trkpt>
<trkpt lat="46.48013" lon="6.78242"><ele>548</ele><time>2024-05-17T15:33:54Z</time></trkpt>
<trkpt lat="46.48005" lon="6.78265"><ele>546.2</ele><time>2024-05-17T15:33:56Z</time></trkpt>
<trkpt lat="46.47999" lon="6.78275"><ele>545.8</ele><time>2024-05-17T15:33:57Z</time></trkpt>
<trkpt lat="46.47992" lon="6.78283"><ele>545.2</ele><time>2024-05-17T15:33:58Z</time></trkpt>
<trkpt lat="46.47986" lon="6.78293"><ele>545</ele><time>2024-05-17T15:33:59Z</time></trkpt>
<trkpt lat="46.47977" lon="6.78314"><ele>544.2</ele><time>2024-05-17T15:34:01Z</time></trkpt>
<trkpt lat="46.47973" lon="6.78326"><ele>543.8</ele><time>2024-05-17T15:34:02Z</time></trkpt>
<trkpt lat="46.4797" lon="6.78338"><ele>543.6</ele><time>2024-05-17T15:34:03Z</time></trkpt>
<trkpt lat="46.47966" lon="6.78362"><ele>543.2</ele><time>2024-05-17T15:34:05Z</time></trkpt>
<trkpt lat="46.47965" lon="6.78374"><ele>542.8</ele><time>2024-05-17T15:34:06Z</time></trkpt>
<trkpt lat="46.47963" lon="6.78387"><ele>541.6</ele><time>2024-05-17T15:34:07Z</time></trkpt>
<trkpt lat="46.47959" lon="6.78426"><ele>540.6</ele><time>2024-05-17T15:34:10Z</time></trkpt>
<trkpt lat="46.47955" lon="6.78453"><ele>539.6</ele><time>2024-05-17T15:34:12Z</time></trkpt>
<trkpt lat="46.4795" lon="6.78481"><ele>538.4</ele><time>2024-05-17T15:34:14Z</time></trkpt>
<trkpt lat="46.4794" lon="6.78523"><ele>536.4</ele><time>2024-05-17T15:34:17Z</time></trkpt>
<trkpt lat="46.47934" lon="6.7855"><ele>533.4</ele><time>2024-05-17T15:34:19Z</time></trkpt>
<trkpt lat="46.47928" lon="6.78577"><ele>532</ele><time>2024-05-17T15:34:21Z</time></trkpt>
<trkpt lat="46.47916" lon="6.78616"><ele>531</ele><time>2024-05-17T15:34:24Z</time></trkpt>
<trkpt lat="46.47908" lon="6.78641"><ele>530.2</ele><time>2024-05-17T15:34:26Z</time></trkpt>
<trkpt lat="46.47904" lon="6.78653"><ele>529.8</ele><time>2024-05-17T15:34:27Z</time></trkpt>
<trkpt lat="46.4788" lon="6.78708"><ele>529.4</ele><time>2024-05-17T15:34:32Z</time></trkpt>
<trkpt lat="46.47862" lon="6.78747"><ele>528.4</ele><time>2024-05-17T15:34:36Z</time></trkpt>
<trkpt lat="46.47849" lon="6.78775"><ele>528</ele><time>2024-05-17T15:34:39Z</time></trkpt>
<trkpt lat="46.47838" lon="6.78801"><ele>528.2</ele><time>2024-05-17T15:34:42Z</time></trkpt>
<trkpt lat="46.47825" lon="6.78833"><ele>528.2</ele><time>2024-05-17T15:34:46Z</time></trkpt>
<trkpt lat="46.47814" lon="6.78871"><ele>527.4</ele><time>2024-05-17T15:34:50Z</time></trkpt>
<trkpt lat="46.47811" lon="6.78881"><ele>526.8</ele><time>2024-05-17T15:34:51Z</time></trkpt>
<trkpt lat="46.47807" lon="6.78901"><ele>526.2</ele><time>2024-05-17T15:34:53Z</time></trkpt>
<trkpt lat="46.47806" lon="6.78921"><ele>526.2</ele><time>2024-05-17T15:34:55Z</time></trkpt>
<trkpt lat="46.47805" lon="6.78928"><ele>526.2</ele><time>2024-05-17T15:34:56Z</time></trkpt>
<trkpt lat="46.47804" lon="6.78934"><ele>526.4</ele><time>2024-05-17T15:34:57Z</time></trkpt>
<trkpt lat="46.47802" lon="6.78939"><ele>528.2</ele><time>2024-05-17T15:34:58Z</time></trkpt>
<trkpt lat="46.478" lon="6.78946"><ele>529.6</ele><time>2024-05-17T15:35:00Z</time></trkpt>
<trkpt lat="46.47799" lon="6.78956"><ele>530.2</ele><time>2024-05-17T15:35:03Z</time></trkpt>
<trkpt lat="46.47797" lon="6.78971"><ele>530.4</ele><time>2024-05-17T15:35:07Z</time></trkpt>
<trkpt lat="46.47796" lon="6.78979"><ele>530.4</ele><time>2024-05-17T15:35:09Z</time></trkpt>
<trkpt lat="46.47795" lon="6.78983"><ele>530.6</ele><time>2024-05-17T15:35:10Z</time></trkpt>
<trkpt lat="46.47794" lon="6.78993"><ele>530.6</ele><time>2024-05-17T15:35:12Z</time></trkpt>
<trkpt lat="46.47793" lon="6.79016"><ele>530.6</ele><time>2024-05-17T15:35:17Z</time></trkpt>
<trkpt lat="46.47794" lon="6.7902"><ele>530.6</ele><time>2024-05-17T15:35:18Z</time></trkpt>
<trkpt lat="46.47795" lon="6.79024"><ele>530.8</ele><time>2024-05-17T15:35:19Z</time></trkpt>
<trkpt lat="46.47797" lon="6.79028"><ele>530.8</ele><time>2024-05-17T15:35:20Z</time></trkpt>
<trkpt lat="46.47799" lon="6.79037"><ele>531</ele><time>2024-05-17T15:35:22Z</time></trkpt>
<trkpt lat="46.47799" lon="6.79045"><ele>531.2</ele><time>2024-05-17T15:35:24Z</time></trkpt>
<trkpt lat="46.47797" lon="6.79063"><ele>531.2</ele><time>2024-05-17T15:35:28Z</time></trkpt>
<trkpt lat="46.47794" lon="6.79074"><ele>531.2</ele><time>2024-05-17T15:35:31Z</time></trkpt>
<trkpt lat="46.47793" lon="6.79078"><ele>531.6</ele><time>2024-05-17T15:35:32Z</time></trkpt>
<trkpt lat="46.47791" lon="6.79087"><ele>532.8</ele><time>2024-05-17T15:35:36Z</time></trkpt>
<trkpt lat="46.47786" lon="6.79098"><ele>533.6</ele><time>2024-05-17T15:35:43Z</time></trkpt>
<trkpt lat="46.47786" lon="6.79102"><ele>534</ele><time>2024-05-17T15:35:45Z</time></trkpt>
<trkpt lat="46.47783" lon="6.79113"><ele>535</ele><time>2024-05-17T15:35:50Z</time></trkpt>
<trkpt lat="46.47782" lon="6.79129"><ele>536.2</ele><time>2024-05-17T15:35:56Z</time></trkpt>
<trkpt lat="46.47779" lon="6.79151"><ele>536.2</ele><time>2024-05-17T15:36:02Z</time></trkpt>
<trkpt lat="46.47768" lon="6.79175"><ele>536.2</ele><time>2024-05-17T15:36:08Z</time></trkpt>
<trkpt lat="46.47749" lon="6.7921"><ele>536.4</ele><time>2024-05-17T15:36:17Z</time></trkpt>
<trkpt lat="46.47745" lon="6.79217"><ele>536.4</ele><time>2024-05-17T15:36:19Z</time></trkpt>
<trkpt lat="46.47736" lon="6.79235"><ele>537.2</ele><time>2024-05-17T15:36:24Z</time></trkpt>
<trkpt lat="46.47733" lon="6.79244"><ele>537.4</ele><time>2024-05-17T15:36:26Z</time></trkpt>
<trkpt lat="46.47733" lon="6.79248"><ele>537.6</ele><time>2024-05-17T15:36:27Z</time></trkpt>
<trkpt lat="46.4773" lon="6.79274"><ele>538.4</ele><time>2024-05-17T15:36:33Z</time></trkpt>
<trkpt lat="46.47729" lon="6.79281"><ele>538.8</ele><time>2024-05-17T15:36:35Z</time></trkpt>
<trkpt lat="46.47729" lon="6.7929"><ele>539.4</ele><time>2024-05-17T15:36:39Z</time></trkpt>
<trkpt lat="46.47727" lon="6.79298"><ele>540</ele><time>2024-05-17T15:36:43Z</time></trkpt>
<trkpt lat="46.47725" lon="6.79309"><ele>540.6</ele><time>2024-05-17T15:36:49Z</time></trkpt>
<trkpt lat="46.47724" lon="6.79313"><ele>541</ele><time>2024-05-17T15:36:51Z</time></trkpt>
<trkpt lat="46.47723" lon="6.79324"><ele>541.6</ele><time>2024-05-17T15:36:57Z</time></trkpt>
<trkpt lat="46.47721" lon="6.79336"><ele>542.6</ele><time>2024-05-17T15:37:03Z</time></trkpt>
<trkpt lat="46.4772" lon="6.79338"><ele>542.6</ele><time>2024-05-17T15:37:04Z</time></trkpt>
<trkpt lat="46.47716" lon="6.79356"><ele>543.8</ele><time>2024-05-17T15:37:10Z</time></trkpt>
<trkpt lat="46.47712" lon="6.79369"><ele>545</ele><time>2024-05-17T15:37:14Z</time></trkpt>
<trkpt lat="46.47707" lon="6.7938"><ele>546.2</ele><time>2024-05-17T15:37:17Z</time></trkpt>
<trkpt lat="46.477" lon="6.79394"><ele>547.2</ele><time>2024-05-17T15:37:21Z</time></trkpt>
<trkpt lat="46.47696" lon="6.79403"><ele>548.4</ele><time>2024-05-17T15:37:24Z</time></trkpt>
<trkpt lat="46.47694" lon="6.79405"><ele>549.4</ele><time>2024-05-17T15:37:26Z</time></trkpt>
<trkpt lat="46.47692" lon="6.79408"><ele>549.6</ele><time>2024-05-17T15:37:28Z</time></trkpt>
<trkpt lat="46.4769" lon="6.79414"><ele>550</ele><time>2024-05-17T15:37:32Z</time></trkpt>
<trkpt lat="46.47688" lon="6.79418"><ele>550.6</ele><time>2024-05-17T15:37:35Z</time></trkpt>
<trkpt lat="46.47685" lon="6.79423"><ele>551.2</ele><time>2024-05-17T15:37:38Z</time></trkpt>
<trkpt lat="46.47682" lon="6.7943"><ele>551.8</ele><time>2024-05-17T15:37:42Z</time></trkpt>
<trkpt lat="46.47681" lon="6.79436"><ele>552.4</ele><time>2024-05-17T15:37:45Z</time></trkpt>
<trkpt lat="46.4768" lon="6.7944"><ele>552.6</ele><time>2024-05-17T15:37:47Z</time></trkpt>
<trkpt lat="46.47679" lon="6.79446"><ele>553</ele><time>2024-05-17T15:37:50Z</time></trkpt>
<trkpt lat="46.47679" lon="6.79455"><ele>553.6</ele><time>2024-05-17T15:37:55Z</time></trkpt>
<trkpt lat="46.47679" lon="6.79459"><ele>554</ele><time>2024-05-17T15:37:57Z</time></trkpt>
<trkpt lat="46.47679" lon="6.79469"><ele>554.8</ele><time>2024-05-17T15:38:02Z</time></trkpt>
<trkpt lat="46.4768" lon="6.79473"><ele>555</ele><time>2024-05-17T15:38:04Z</time></trkpt>
<trkpt lat="46.47682" lon="6.79484"><ele>556</ele><time>2024-05-17T15:38:09Z</time></trkpt>
<trkpt lat="46.47682" lon="6.79486"><ele>556.2</ele><time>2024-05-17T15:38:10Z</time></trkpt>
<trkpt lat="46.4768" lon="6.795"><ele>557.2</ele><time>2024-05-17T15:38:16Z</time></trkpt>
<trkpt lat="46.47678" lon="6.79504"><ele>557.2</ele><time>2024-05-17T15:38:18Z</time></trkpt>
<trkpt lat="46.47677" lon="6.79506"><ele>557.2</ele><time>2024-05-17T15:38:19Z</time></trkpt>
<trkpt lat="46.47665" lon="6.79529"><ele>557.4</ele><time>2024-05-17T15:38:28Z</time></trkpt>
<trkpt lat="46.47658" lon="6.79554"><ele>557.6</ele><time>2024-05-17T15:38:37Z</time></trkpt>
<trkpt lat="46.47653" lon="6.79574"><ele>558.2</ele><time>2024-05-17T15:38:44Z</time></trkpt>
<trkpt lat="46.47651" lon="6.79579"><ele>558.4</ele><time>2024-05-17T15:38:46Z</time></trkpt>
<trkpt lat="46.47647" lon="6.79598"><ele>559.2</ele><time>2024-05-17T15:38:53Z</time></trkpt>
<trkpt lat="46.47646" lon="6.79604"><ele>559.4</ele><time>2024-05-17T15:38:55Z</time></trkpt>
<trkpt lat="46.47644" lon="6.79612"><ele>559.8</ele><time>2024-05-17T15:38:58Z</time></trkpt>
<trkpt lat="46.47642" lon="6.79617"><ele>560</ele><time>2024-05-17T15:39:00Z</time></trkpt>
<trkpt lat="46.47638" lon="6.79631"><ele>560.4</ele><time>2024-05-17T15:39:05Z</time></trkpt>
<trkpt lat="46.47634" lon="6.7964"><ele>560.4</ele><time>2024-05-17T15:39:08Z</time></trkpt>
<trkpt lat="46.47623" lon="6.79664"><ele>559.6</ele><time>2024-05-17T15:39:14Z</time></trkpt>
<trkpt lat="46.47621" lon="6.7967"><ele>559.2</ele><time>2024-05-17T15:39:15Z</time></trkpt>
<trkpt lat="46.47617" lon="6.79684"><ele>558</ele><time>2024-05-17T15:39:17Z</time></trkpt>
<trkpt lat="46.47617" lon="6.79693"><ele>558</ele><time>2024-05-17T15:39:18Z</time></trkpt>
<trkpt lat="46.47617" lon="6.79701"><ele>557.2</ele><time>2024-05-17T15:39:19Z</time></trkpt>
<trkpt lat="46.47617" lon="6.79711"><ele>556.4</ele><time>2024-05-17T15:39:20Z</time></trkpt>
<trkpt lat="46.47616" lon="6.79731"><ele>555.6</ele><time>2024-05-17T15:39:22Z</time></trkpt>
<trkpt lat="46.47614" lon="6.79742"><ele>555.4</ele><time>2024-05-17T15:39:23Z</time></trkpt>
<trkpt lat="46.4761" lon="6.79752"><ele>554.8</ele><time>2024-05-17T15:39:24Z</time></trkpt>
<trkpt lat="46.47605" lon="6.7976"><ele>554</ele><time>2024-05-17T15:39:25Z</time></trkpt>
<trkpt lat="46.47599" lon="6.79768"><ele>553.2</ele><time>2024-05-17T15:39:26Z</time></trkpt>
<trkpt lat="46.47594" lon="6.79775"><ele>552.4</ele><time>2024-05-17T15:39:27Z</time></trkpt>
<trkpt lat="46.4759" lon="6.79784"><ele>552</ele><time>2024-05-17T15:39:28Z</time></trkpt>
<trkpt lat="46.47586" lon="6.79792"><ele>552</ele><time>2024-05-17T15:39:29Z</time></trkpt>
<trkpt lat="46.47584" lon="6.79801"><ele>552</ele><time>2024-05-17T15:39:30Z</time></trkpt>
<trkpt lat="46.4758" lon="6.79818"><ele>552.4</ele><time>2024-05-17T15:39:32Z</time></trkpt>
<trkpt lat="46.47579" lon="6.79827"><ele>552.6</ele><time>2024-05-17T15:39:33Z</time></trkpt>
<trkpt lat="46.47574" lon="6.79849"><ele>552.6</ele><time>2024-05-17T15:39:36Z</time></trkpt>
<trkpt lat="46.47575" lon="6.79863"><ele>553</ele><time>2024-05-17T15:39:38Z</time></trkpt>
<trkpt lat="46.4758" lon="6.79885"><ele>553</ele><time>2024-05-17T15:39:41Z</time></trkpt>
<trkpt lat="46.47588" lon="6.79897"><ele>552.8</ele><time>2024-05-17T15:39:43Z</time></trkpt>
<trkpt lat="46.47606" lon="6.79918"><ele>552.8</ele><time>2024-05-17T15:39:47Z</time></trkpt>
<trkpt lat="46.47608" lon="6.79925"><ele>553</ele><time>2024-05-17T15:39:48Z</time></trkpt>
<trkpt lat="46.47609" lon="6.79931"><ele>553.2</ele><time>2024-05-17T15:39:49Z</time></trkpt>
<trkpt lat="46.47608" lon="6.79938"><ele>553.4</ele><time>2024-05-17T15:39:50Z</time></trkpt>
<trkpt lat="46.47606" lon="6.79943"><ele>553.6</ele><time>2024-05-17T15:39:51Z</time></trkpt>
<trkpt lat="46.47602" lon="6.79949"><ele>554.4</ele><time>2024-05-17T15:39:53Z</time></trkpt>
<trkpt lat="46.476" lon="6.79952"><ele>555.2</ele><time>2024-05-17T15:39:55Z</time></trkpt>
<trkpt lat="46.47598" lon="6.79954"><ele>555.4</ele><time>2024-05-17T15:39:56Z</time></trkpt>
<trkpt lat="46.47593" lon="6.79962"><ele>556</ele><time>2024-05-17T15:40:01Z</time></trkpt>
<trkpt lat="46.4759" lon="6.79966"><ele>556.6</ele><time>2024-05-17T15:40:03Z</time></trkpt>
<trkpt lat="46.47588" lon="6.79979"><ele>557.6</ele><time>2024-05-17T15:40:08Z</time></trkpt>
<trkpt lat="46.47587" lon="6.79982"><ele>557.8</ele><time>2024-05-17T15:40:09Z</time></trkpt>
<trkpt lat="46.47585" lon="6.80003"><ele>558.2</ele><time>2024-05-17T15:40:15Z</time></trkpt>
<trkpt lat="46.47582" lon="6.80027"><ele>558.2</ele><time>2024-05-17T15:40:21Z</time></trkpt>
<trkpt lat="46.47575" lon="6.8007"><ele>558.6</ele><time>2024-05-17T15:40:30Z</time></trkpt>
<trkpt lat="46.47565" lon="6.80112"><ele>558.2</ele><time>2024-05-17T15:40:37Z</time></trkpt>
<trkpt lat="46.47558" lon="6.80137"><ele>556</ele><time>2024-05-17T15:40:40Z</time></trkpt>
<trkpt lat="46.47555" lon="6.80147"><ele>554.8</ele><time>2024-05-17T15:40:41Z</time></trkpt>
<trkpt lat="46.47547" lon="6.8017"><ele>552.4</ele><time>2024-05-17T15:40:43Z</time></trkpt>
<trkpt lat="46.47542" lon="6.80182"><ele>550.8</ele><time>2024-05-17T15:40:44Z</time></trkpt>
<trkpt lat="46.47537" lon="6.80195"><ele>549.2</ele><time>2024-05-17T15:40:45Z</time></trkpt>
<trkpt lat="46.47533" lon="6.80209"><ele>547.8</ele><time>2024-05-17T15:40:46Z</time></trkpt>
<trkpt lat="46.47528" lon="6.80223"><ele>545.8</ele><time>2024-05-17T15:40:47Z</time></trkpt>
<trkpt lat="46.47524" lon="6.80238"><ele>544.4</ele><time>2024-05-17T15:40:48Z</time></trkpt>
<trkpt lat="46.47518" lon="6.80269"><ele>542.4</ele><time>2024-05-17T15:40:50Z</time></trkpt>
<trkpt lat="46.47515" lon="6.80285"><ele>541.2</ele><time>2024-05-17T15:40:51Z</time></trkpt>
<trkpt lat="46.47514" lon="6.80317"><ele>539.8</ele><time>2024-05-17T15:40:53Z</time></trkpt>
<trkpt lat="46.47514" lon="6.80332"><ele>539</ele><time>2024-05-17T15:40:54Z</time></trkpt>
<trkpt lat="46.47514" lon="6.80347"><ele>538.6</ele><time>2024-05-17T15:40:55Z</time></trkpt>
<trkpt lat="46.47511" lon="6.80391"><ele>537.6</ele><time>2024-05-17T15:40:58Z</time></trkpt>
<trkpt lat="46.47504" lon="6.80416"><ele>537.6</ele><time>2024-05-17T15:40:59Z</time></trkpt>
<trkpt lat="46.47496" lon="6.80451"><ele>538</ele><time>2024-05-17T15:41:03Z</time></trkpt>
<trkpt lat="46.47494" lon="6.80462"><ele>538.2</ele><time>2024-05-17T15:41:04Z</time></trkpt>
<trkpt lat="46.4749" lon="6.80481"><ele>538.4</ele><time>2024-05-17T15:41:06Z</time></trkpt>
<trkpt lat="46.47482" lon="6.80506"><ele>539</ele><time>2024-05-17T15:41:09Z</time></trkpt>
<trkpt lat="46.47478" lon="6.80523"><ele>539</ele><time>2024-05-17T15:41:11Z</time></trkpt>
<trkpt lat="46.47472" lon="6.80556"><ele>537.2</ele><time>2024-05-17T15:41:14Z</time></trkpt>
<trkpt lat="46.47469" lon="6.80568"><ele>535.6</ele><time>2024-05-17T15:41:15Z</time></trkpt>
<trkpt lat="46.47465" lon="6.8058"><ele>534</ele><time>2024-05-17T15:41:16Z</time></trkpt>
<trkpt lat="46.4746" lon="6.80592"><ele>531.2</ele><time>2024-05-17T15:41:17Z</time></trkpt>
<trkpt lat="46.47454" lon="6.80604"><ele>530.2</ele><time>2024-05-17T15:41:18Z</time></trkpt>
<trkpt lat="46.47447" lon="6.80615"><ele>528.8</ele><time>2024-05-17T15:41:19Z</time></trkpt>
<trkpt lat="46.4744" lon="6.80626"><ele>527.4</ele><time>2024-05-17T15:41:20Z</time></trkpt>
<trkpt lat="46.47425" lon="6.80659"><ele>526.6</ele><time>2024-05-17T15:41:23Z</time></trkpt>
<trkpt lat="46.47421" lon="6.80668"><ele>526.2</ele><time>2024-05-17T15:41:24Z</time></trkpt>
<trkpt lat="46.47415" lon="6.80676"><ele>525.8</ele><time>2024-05-17T15:41:25Z</time></trkpt>
<trkpt lat="46.47404" lon="6.80687"><ele>525.4</ele><time>2024-05-17T15:41:27Z</time></trkpt>
<trkpt lat="46.47399" lon="6.80693"><ele>525</ele><time>2024-05-17T15:41:28Z</time></trkpt>
<trkpt lat="46.47396" lon="6.80698"><ele>523.8</ele><time>2024-05-17T15:41:29Z</time></trkpt>
<trkpt lat="46.47394" lon="6.80703"><ele>523.6</ele><time>2024-05-17T15:41:30Z</time></trkpt>
<trkpt lat="46.47393" lon="6.80708"><ele>523.4</ele><time>2024-05-17T15:41:31Z</time></trkpt>
<trkpt lat="46.4739" lon="6.8072"><ele>523</ele><time>2024-05-17T15:41:33Z</time></trkpt>
<trkpt lat="46.4739" lon="6.80726"><ele>523</ele><time>2024-05-17T15:41:34Z</time></trkpt>
<trkpt lat="46.47389" lon="6.8075"><ele>523.6</ele><time>2024-05-17T15:41:39Z</time></trkpt>
<trkpt lat="46.47391" lon="6.80761"><ele>524.6</ele><time>2024-05-17T15:41:44Z</time></trkpt>
<trkpt lat="46.47391" lon="6.80763"><ele>524.8</ele><time>2024-05-17T15:41:45Z</time></trkpt>
<trkpt lat="46.47393" lon="6.80775"><ele>525.8</ele><time>2024-05-17T15:41:50Z</time></trkpt>
<trkpt lat="46.47393" lon="6.80778"><ele>526</ele><time>2024-05-17T15:41:51Z</time></trkpt>
<trkpt lat="46.47395" lon="6.80793"><ele>527</ele><time>2024-05-17T15:41:57Z</time></trkpt>
<trkpt lat="46.47395" lon="6.80795"><ele>527.2</ele><time>2024-05-17T15:41:58Z</time></trkpt>
<trkpt lat="46.47396" lon="6.80808"><ele>528.2</ele><time>2024-05-17T15:42:03Z</time></trkpt>
<trkpt lat="46.47395" lon="6.80813"><ele>528.6</ele><time>2024-05-17T15:42:05Z</time></trkpt>
<trkpt lat="46.47393" lon="6.80826"><ele>529</ele><time>2024-05-17T15:42:10Z</time></trkpt>
<trkpt lat="46.4739" lon="6.80855"><ele>527.2</ele><time>2024-05-17T15:42:14Z</time></trkpt>
<trkpt lat="46.47388" lon="6.80865"><ele>526.4</ele><time>2024-05-17T15:42:15Z</time></trkpt>
<trkpt lat="46.47385" lon="6.80888"><ele>524</ele><time>2024-05-17T15:42:17Z</time></trkpt>
<trkpt lat="46.47384" lon="6.809"><ele>523</ele><time>2024-05-17T15:42:18Z</time></trkpt>
<trkpt lat="46.47384" lon="6.80913"><ele>522.2</ele><time>2024-05-17T15:42:19Z</time></trkpt>
<trkpt lat="46.47385" lon="6.80926"><ele>521.8</ele><time>2024-05-17T15:42:20Z</time></trkpt>
<trkpt lat="46.47386" lon="6.8095"><ele>520.8</ele><time>2024-05-17T15:42:22Z</time></trkpt>
<trkpt lat="46.47391" lon="6.81021"><ele>521.8</ele><time>2024-05-17T15:42:29Z</time></trkpt>
<trkpt lat="46.47395" lon="6.81085"><ele>522.2</ele><time>2024-05-17T15:42:36Z</time></trkpt>
<trkpt lat="46.47396" lon="6.81093"><ele>522.4</ele><time>2024-05-17T15:42:37Z</time></trkpt>
<trkpt lat="46.47395" lon="6.81115"><ele>522.6</ele><time>2024-05-17T15:42:40Z</time></trkpt>
<trkpt lat="46.47392" lon="6.81128"><ele>522.6</ele><time>2024-05-17T15:42:42Z</time></trkpt>
<trkpt lat="46.47381" lon="6.81172"><ele>522</ele><time>2024-05-17T15:42:48Z</time></trkpt>
<trkpt lat="46.4738" lon="6.81193"><ele>520.4</ele><time>2024-05-17T15:42:50Z</time></trkpt>
<trkpt lat="46.47379" lon="6.81204"><ele>519.2</ele><time>2024-05-17T15:42:51Z</time></trkpt>
<trkpt lat="46.47379" lon="6.81215"><ele>519</ele><time>2024-05-17T15:42:52Z</time></trkpt>
<trkpt lat="46.47378" lon="6.81259"><ele>520</ele><time>2024-05-17T15:42:57Z</time></trkpt>
<trkpt lat="46.47378" lon="6.81273"><ele>520.6</ele><time>2024-05-17T15:42:59Z</time></trkpt>
<trkpt lat="46.47381" lon="6.81302"><ele>521.2</ele><time>2024-05-17T15:43:04Z</time></trkpt>
<trkpt lat="46.47385" lon="6.81319"><ele>521.8</ele><time>2024-05-17T15:43:07Z</time></trkpt>
<trkpt lat="46.47393" lon="6.81351"><ele>522.4</ele><time>2024-05-17T15:43:13Z</time></trkpt>
<trkpt lat="46.47405" lon="6.81394"><ele>523.2</ele><time>2024-05-17T15:43:21Z</time></trkpt>
<trkpt lat="46.47406" lon="6.81398"><ele>523.2</ele><time>2024-05-17T15:43:22Z</time></trkpt>
<trkpt lat="46.47411" lon="6.81415"><ele>524.4</ele><time>2024-05-17T15:43:27Z</time></trkpt>
<trkpt lat="46.47411" lon="6.81418"><ele>524.6</ele><time>2024-05-17T15:43:28Z</time></trkpt>
<trkpt lat="46.47416" lon="6.81434"><ele>525.4</ele><time>2024-05-17T15:43:34Z</time></trkpt>
<trkpt lat="46.47418" lon="6.81439"><ele>526</ele><time>2024-05-17T15:43:36Z</time></trkpt>
<trkpt lat="46.47419" lon="6.81444"><ele>526.4</ele><time>2024-05-17T15:43:38Z</time></trkpt>
<trkpt lat="46.47422" lon="6.8145"><ele>526.8</ele><time>2024-05-17T15:43:42Z</time></trkpt>
<trkpt lat="46.47424" lon="6.81453"><ele>527</ele><time>2024-05-17T15:43:44Z</time></trkpt>
<trkpt lat="46.47426" lon="6.81466"><ele>527</ele><time>2024-05-17T15:43:49Z</time></trkpt>
<trkpt lat="46.47427" lon="6.81491"><ele>526</ele><time>2024-05-17T15:43:54Z</time></trkpt>
<trkpt lat="46.47428" lon="6.81505"><ele>525.2</ele><time>2024-05-17T15:43:56Z</time></trkpt>
<trkpt lat="46.47432" lon="6.81528"><ele>524.4</ele><time>2024-05-17T15:43:59Z</time></trkpt>
<trkpt lat="46.47435" lon="6.81536"><ele>524</ele><time>2024-05-17T15:44:00Z</time></trkpt>
<trkpt lat="46.47449" lon="6.81567"><ele>523</ele><time>2024-05-17T15:44:04Z</time></trkpt>
<trkpt lat="46.47451" lon="6.81576"><ele>522.6</ele><time>2024-05-17T15:44:05Z</time></trkpt>
<trkpt lat="46.47452" lon="6.81585"><ele>522.6</ele><time>2024-05-17T15:44:06Z</time></trkpt>
<trkpt lat="46.47452" lon="6.81595"><ele>522</ele><time>2024-05-17T15:44:07Z</time></trkpt>
<trkpt lat="46.47451" lon="6.81604"><ele>521.4</ele><time>2024-05-17T15:44:08Z</time></trkpt>
<trkpt lat="46.47445" lon="6.81631"><ele>520.4</ele><time>2024-05-17T15:44:11Z</time></trkpt>
<trkpt lat="46.47438" lon="6.81656"><ele>520.2</ele><time>2024-05-17T15:44:14Z</time></trkpt>
<trkpt lat="46.47437" lon="6.81665"><ele>520.2</ele><time>2024-05-17T15:44:15Z</time></trkpt>
<trkpt lat="46.47437" lon="6.81683"><ele>519.8</ele><time>2024-05-17T15:44:17Z</time></trkpt>
<trkpt lat="46.47438" lon="6.81702"><ele>518.8</ele><time>2024-05-17T15:44:19Z</time></trkpt>
<trkpt lat="46.4744" lon="6.81734"><ele>517.8</ele><time>2024-05-17T15:44:22Z</time></trkpt>
<trkpt lat="46.47441" lon="6.81746"><ele>517.2</ele><time>2024-05-17T15:44:23Z</time></trkpt>
<trkpt lat="46.47442" lon="6.81758"><ele>516.8</ele><time>2024-05-17T15:44:24Z</time></trkpt>
<trkpt lat="46.47444" lon="6.81782"><ele>515.6</ele><time>2024-05-17T15:44:26Z</time></trkpt>
<trkpt lat="46.47447" lon="6.81828"><ele>514.6</ele><time>2024-05-17T15:44:30Z</time></trkpt>
<trkpt lat="46.47448" lon="6.81872"><ele>515.8</ele><time>2024-05-17T15:44:35Z</time></trkpt>
<trkpt lat="46.47447" lon="6.81895"><ele>516.6</ele><time>2024-05-17T15:44:38Z</time></trkpt>
<trkpt lat="46.47443" lon="6.81912"><ele>517.4</ele><time>2024-05-17T15:44:41Z</time></trkpt>
<trkpt lat="46.47443" lon="6.81917"><ele>517.8</ele><time>2024-05-17T15:44:42Z</time></trkpt>
<trkpt lat="46.47447" lon="6.81928"><ele>518.4</ele><time>2024-05-17T15:44:45Z</time></trkpt>
<trkpt lat="46.47449" lon="6.81933"><ele>518.8</ele><time>2024-05-17T15:44:47Z</time></trkpt>
<trkpt lat="46.47453" lon="6.81942"><ele>519.6</ele><time>2024-05-17T15:44:52Z</time></trkpt>
<trkpt lat="46.47454" lon="6.81943"><ele>519.8</ele><time>2024-05-17T15:44:53Z</time></trkpt>
<trkpt lat="46.47457" lon="6.81949"><ele>521</ele><time>2024-05-17T15:44:58Z</time></trkpt>
<trkpt lat="46.47457" lon="6.81949"><ele>521</ele><time>2024-05-17T15:44:58Z</time></trkpt>
<trkpt lat="46.47457" lon="6.81949"><ele>521</ele><time>2024-05-17T15:44:58Z</time></trkpt>
<trkpt lat="46.47457" lon="6.81949"><ele>521</ele><time>2024-05-17T15:44:58Z</time></trkpt>
<trkpt lat="46.47457" lon="6.81949"><ele>521</ele><time>2024-05-17T15:44:58Z</time></trkpt>
<trkpt lat="46.47486" lon="6.81959"><ele>523.2</ele><time>2024-05-17T15:45:12Z</time></trkpt>
<trkpt lat="46.47489" lon="6.81961"><ele>523.4</ele><time>2024-05-17T15:45:13Z</time></trkpt>
<trkpt lat="46.47489" lon="6.81959"><ele>523.6</ele><time>2024-05-17T15:45:14Z</time></trkpt>
<trkpt lat="46.47489" lon="6.81965"><ele>524</ele><time>2024-05-17T15:45:16Z</time></trkpt>
<trkpt lat="46.47486" lon="6.8197"><ele>524</ele><time>2024-05-17T15:45:17Z</time></trkpt>
<trkpt lat="46.47485" lon="6.81973"><ele>524.6</ele><time>2024-05-17T15:45:20Z</time></trkpt>
<trkpt lat="46.47483" lon="6.81979"><ele>525.2</ele><time>2024-05-17T15:45:23Z</time></trkpt>
<trkpt lat="46.47484" lon="6.81979"><ele>525.2</ele><time>2024-05-17T15:45:24Z</time></trkpt>
<trkpt lat="46.47485" lon="6.81982"><ele>525.6</ele><time>2024-05-17T15:45:26Z</time></trkpt>
<trkpt lat="46.47485" lon="6.81984"><ele>525.8</ele><time>2024-05-17T15:45:28Z</time></trkpt>
<trkpt lat="46.47486" lon="6.81988"><ele>526.2</ele><time>2024-05-17T15:45:30Z</time></trkpt>
<trkpt lat="46.47487" lon="6.8199"><ele>526.4</ele><time>2024-05-17T15:45:31Z</time></trkpt>
<trkpt lat="46.47487" lon="6.81994"><ele>526.8</ele><time>2024-05-17T15:45:33Z</time></trkpt>
<trkpt lat="46.47486" lon="6.81997"><ele>527.2</ele><time>2024-05-17T15:45:35Z</time></trkpt>
<trkpt lat="46.47486" lon="6.82"><ele>527.6</ele><time>2024-05-17T15:45:37Z</time></trkpt>
<trkpt lat="46.47485" lon="6.82001"><ele>527.6</ele><time>2024-05-17T15:45:38Z</time></trkpt>
<trkpt lat="46.47487" lon="6.82008"><ele>528.4</ele><time>2024-05-17T15:45:42Z</time></trkpt>
<trkpt lat="46.47486" lon="6.8201"><ele>528.6</ele><time>2024-05-17T15:45:43Z</time></trkpt>
<trkpt lat="46.47486" lon="6.82012"><ele>529</ele><time>2024-05-17T15:45:45Z</time></trkpt>
<trkpt lat="46.47485" lon="6.82016"><ele>529.4</ele><time>2024-05-17T15:45:48Z</time></trkpt>
<trkpt lat="46.47482" lon="6.82024"><ele>530.4</ele><time>2024-05-17T15:45:54Z</time></trkpt>
<trkpt lat="46.47481" lon="6.82026"><ele>530.6</ele><time>2024-05-17T15:45:56Z</time></trkpt>
<trkpt lat="46.47479" lon="6.82033"><ele>531</ele><time>2024-05-17T15:46:01Z</time></trkpt>
<trkpt lat="46.47478" lon="6.82037"><ele>531.6</ele><time>2024-05-17T15:46:05Z</time></trkpt>
<trkpt lat="46.47476" lon="6.82041"><ele>532</ele><time>2024-05-17T15:46:08Z</time></trkpt>
<trkpt lat="46.47475" lon="6.82046"><ele>532.8</ele><time>2024-05-17T15:46:12Z</time></trkpt>
<trkpt lat="46.47474" lon="6.82048"><ele>533</ele><time>2024-05-17T15:46:14Z</time></trkpt>
<trkpt lat="46.47474" lon="6.82057"><ele>533.8</ele><time>2024-05-17T15:46:20Z</time></trkpt>
<trkpt lat="46.47474" lon="6.8206"><ele>534</ele><time>2024-05-17T15:46:21Z</time></trkpt>
<trkpt lat="46.47474" lon="6.82065"><ele>534.8</ele><time>2024-05-17T15:46:26Z</time></trkpt>
<trkpt lat="46.47474" lon="6.82067"><ele>535</ele><time>2024-05-17T15:46:28Z</time></trkpt>
<trkpt lat="46.47476" lon="6.82075"><ele>536</ele><time>2024-05-17T15:46:33Z</time></trkpt>
<trkpt lat="46.47477" lon="6.82078"><ele>536</ele><time>2024-05-17T15:46:35Z</time></trkpt>
<trkpt lat="46.47481" lon="6.82086"><ele>537</ele><time>2024-05-17T15:46:41Z</time></trkpt>
<trkpt lat="46.47482" lon="6.82087"><ele>537.2</ele><time>2024-05-17T15:46:42Z</time></trkpt>
<trkpt lat="46.47485" lon="6.82091"><ele>537.8</ele><time>2024-05-17T15:46:46Z</time></trkpt>
<trkpt lat="46.47485" lon="6.82094"><ele>538.2</ele><time>2024-05-17T15:46:48Z</time></trkpt>
<trkpt lat="46.47485" lon="6.82095"><ele>538.4</ele><time>2024-05-17T15:46:49Z</time></trkpt>
<trkpt lat="46.47489" lon="6.82102"><ele>539.4</ele><time>2024-05-17T15:46:54Z</time></trkpt>
<trkpt lat="46.4749" lon="6.82104"><ele>539.4</ele><time>2024-05-17T15:46:55Z</time></trkpt>
<trkpt lat="46.47492" lon="6.82107"><ele>540.4</ele><time>2024-05-17T15:47:00Z</time></trkpt>
<trkpt lat="46.47493" lon="6.8211"><ele>540.4</ele><time>2024-05-17T15:47:02Z</time></trkpt>
<trkpt lat="46.47496" lon="6.82114"><ele>541.2</ele><time>2024-05-17T15:47:06Z</time></trkpt>
<trkpt lat="46.47497" lon="6.82115"><ele>541.4</ele><time>2024-05-17T15:47:07Z</time></trkpt>
<trkpt lat="46.47498" lon="6.82116"><ele>541.6</ele><time>2024-05-17T15:47:08Z</time></trkpt>
<trkpt lat="46.47499" lon="6.82121"><ele>542.4</ele><time>2024-05-17T15:47:13Z</time></trkpt>
<trkpt lat="46.475" lon="6.82122"><ele>542.6</ele><time>2024-05-17T15:47:14Z</time></trkpt>
<trkpt lat="46.47503" lon="6.82126"><ele>543.6</ele><time>2024-05-17T15:47:19Z</time></trkpt>
<trkpt lat="46.47505" lon="6.82131"><ele>544</ele><time>2024-05-17T15:47:23Z</time></trkpt>
<trkpt lat="46.47507" lon="6.82134"><ele>544.6</ele><time>2024-05-17T15:47:26Z</time></trkpt>
<trkpt lat="46.47509" lon="6.82139"><ele>545.4</ele><time>2024-05-17T15:47:31Z</time></trkpt>
<trkpt lat="46.4751" lon="6.82142"><ele>545.8</ele><time>2024-05-17T15:47:33Z</time></trkpt>
<trkpt lat="46.47511" lon="6.82142"><ele>546</ele><time>2024-05-17T15:47:34Z</time></trkpt>
<trkpt lat="46.47512" lon="6.82146"><ele>546.8</ele><time>2024-05-17T15:47:38Z</time></trkpt>
<trkpt lat="46.47514" lon="6.82153"><ele>548</ele><time>2024-05-17T15:47:44Z</time></trkpt>
<trkpt lat="46.47517" lon="6.82158"><ele>549.2</ele><time>2024-05-17T15:47:50Z</time></trkpt>
<trkpt lat="46.47518" lon="6.82161"><ele>549.6</ele><time>2024-05-17T15:47:52Z</time></trkpt>
<trkpt lat="46.47519" lon="6.82162"><ele>549.8</ele><time>2024-05-17T15:47:53Z</time></trkpt>
<trkpt lat="46.4752" lon="6.82165"><ele>550.4</ele><time>2024-05-17T15:47:56Z</time></trkpt>
<trkpt lat="46.4752" lon="6.82167"><ele>550.6</ele><time>2024-05-17T15:47:57Z</time></trkpt>
<trkpt lat="46.4752" lon="6.82174"><ele>551.4</ele><time>2024-05-17T15:48:02Z</time></trkpt>
<trkpt lat="46.47521" lon="6.82176"><ele>551.8</ele><time>2024-05-17T15:48:04Z</time></trkpt>
<trkpt lat="46.47522" lon="6.8218"><ele>552.4</ele><time>2024-05-17T15:48:07Z</time></trkpt>
<trkpt lat="46.47523" lon="6.82183"><ele>552.6</ele><time>2024-05-17T15:48:09Z</time></trkpt>
<trkpt lat="46.47523" lon="6.82187"><ele>553</ele><time>2024-05-17T15:48:11Z</time></trkpt>
<trkpt lat="46.47523" lon="6.82197"><ele>554</ele><time>2024-05-17T15:48:16Z</time></trkpt>
<trkpt lat="46.47523" lon="6.82206"><ele>554.8</ele><time>2024-05-17T15:48:21Z</time></trkpt>
<trkpt lat="46.47523" lon="6.82209"><ele>555</ele><time>2024-05-17T15:48:23Z</time></trkpt>
<trkpt lat="46.47523" lon="6.82222"><ele>556.4</ele><time>2024-05-17T15:48:30Z</time></trkpt>
<trkpt lat="46.47524" lon="6.82236"><ele>557.4</ele><time>2024-05-17T15:48:37Z</time></trkpt>
<trkpt lat="46.47524" lon="6.82242"><ele>557.8</ele><time>2024-05-17T15:48:40Z</time></trkpt>
<trkpt lat="46.47525" lon="6.82248"><ele>558.4</ele><time>2024-05-17T15:48:43Z</time></trkpt>
<trkpt lat="46.47526" lon="6.82256"><ele>559.4</ele><time>2024-05-17T15:48:47Z</time></trkpt>
<trkpt lat="46.47526" lon="6.82258"><ele>559.6</ele><time>2024-05-17T15:48:48Z</time></trkpt>
<trkpt lat="46.47526" lon="6.82268"><ele>560.6</ele><time>2024-05-17T15:48:54Z</time></trkpt>
<trkpt lat="46.47527" lon="6.82269"><ele>560.8</ele><time>2024-05-17T15:48:55Z</time></trkpt>
<trkpt lat="46.47532" lon="6.82277"><ele>561.6</ele><time>2024-05-17T15:49:01Z</time></trkpt>
<trkpt lat="46.47536" lon="6.82285"><ele>563</ele><time>2024-05-17T15:49:06Z</time></trkpt>
<trkpt lat="46.47538" lon="6.8229"><ele>563.4</ele><time>2024-05-17T15:49:09Z</time></trkpt>
<trkpt lat="46.4754" lon="6.82293"><ele>564</ele><time>2024-05-17T15:49:12Z</time></trkpt>
<trkpt lat="46.47544" lon="6.82294"><ele>564.6</ele><time>2024-05-17T15:49:16Z</time></trkpt>
<trkpt lat="46.47544" lon="6.82296"><ele>564.8</ele><time>2024-05-17T15:49:17Z</time></trkpt>
<trkpt lat="46.47545" lon="6.82298"><ele>565.2</ele><time>2024-05-17T15:49:19Z</time></trkpt>
<trkpt lat="46.47547" lon="6.823"><ele>565.4</ele><time>2024-05-17T15:49:21Z</time></trkpt>
<trkpt lat="46.47552" lon="6.823"><ele>566.2</ele><time>2024-05-17T15:49:26Z</time></trkpt>
<trkpt lat="46.47556" lon="6.82301"><ele>566.8</ele><time>2024-05-17T15:49:29Z</time></trkpt>
<trkpt lat="46.47559" lon="6.82303"><ele>567.4</ele><time>2024-05-17T15:49:32Z</time></trkpt>
<trkpt lat="46.47561" lon="6.82302"><ele>568</ele><time>2024-05-17T15:49:35Z</time></trkpt>
<trkpt lat="46.47565" lon="6.82304"><ele>568.6</ele><time>2024-05-17T15:49:39Z</time></trkpt>
<trkpt lat="46.47567" lon="6.82305"><ele>568.8</ele><time>2024-05-17T15:49:41Z</time></trkpt>
<trkpt lat="46.47573" lon="6.82307"><ele>569.6</ele><time>2024-05-17T15:49:45Z</time></trkpt>
<trkpt lat="46.47578" lon="6.82312"><ele>570.2</ele><time>2024-05-17T15:49:48Z</time></trkpt>
<trkpt lat="46.47581" lon="6.82316"><ele>570.8</ele><time>2024-05-17T15:49:51Z</time></trkpt>
<trkpt lat="46.47583" lon="6.82319"><ele>571.6</ele><time>2024-05-17T15:49:55Z</time></trkpt>
<trkpt lat="46.47584" lon="6.8232"><ele>571.8</ele><time>2024-05-17T15:49:56Z</time></trkpt>
<trkpt lat="46.47587" lon="6.8233"><ele>572.8</ele><time>2024-05-17T15:50:02Z</time></trkpt>
<trkpt lat="46.47587" lon="6.82334"><ele>573.2</ele><time>2024-05-17T15:50:04Z</time></trkpt>
<trkpt lat="46.47592" lon="6.82343"><ele>573.8</ele><time>2024-05-17T15:50:10Z</time></trkpt>
<trkpt lat="46.47592" lon="6.82345"><ele>574</ele><time>2024-05-17T15:50:11Z</time></trkpt>
<trkpt lat="46.47596" lon="6.82355"><ele>575</ele><time>2024-05-17T15:50:17Z</time></trkpt>
<trkpt lat="46.47597" lon="6.82364"><ele>575.8</ele><time>2024-05-17T15:50:23Z</time></trkpt>
<trkpt lat="46.47596" lon="6.82365"><ele>575.8</ele><time>2024-05-17T15:50:24Z</time></trkpt>
<trkpt lat="46.47596" lon="6.82366"><ele>576</ele><time>2024-05-17T15:50:25Z</time></trkpt>
<trkpt lat="46.47589" lon="6.82368"><ele>576.4</ele><time>2024-05-17T15:50:31Z</time></trkpt>
<trkpt lat="46.47579" lon="6.82375"><ele>576.4</ele><time>2024-05-17T15:50:38Z</time></trkpt>
<trkpt lat="46.47572" lon="6.8238"><ele>576.2</ele><time>2024-05-17T15:50:43Z</time></trkpt>
<trkpt lat="46.47571" lon="6.82379"><ele>576.2</ele><time>2024-05-17T15:50:44Z</time></trkpt>
<trkpt lat="46.47567" lon="6.82377"><ele>576.4</ele><time>2024-05-17T15:50:48Z</time></trkpt>
<trkpt lat="46.47566" lon="6.82377"><ele>576.4</ele><time>2024-05-17T15:50:53Z</time></trkpt>
<trkpt lat="46.47566" lon="6.82377"><ele>576.4</ele><time>2024-05-17T15:50:54Z</time></trkpt>
<trkpt lat="46.47566" lon="6.82376"><ele>576.4</ele><time>2024-05-17T15:50:59Z</time></trkpt>
<trkpt lat="46.47566" lon="6.82377"><ele>576.4</ele><time>2024-05-17T15:51:01Z</time></trkpt>
<trkpt lat="46.47565" lon="6.82378"><ele>576.6</ele><time>2024-05-17T15:51:07Z</time></trkpt>
<trkpt lat="46.47565" lon="6.82379"><ele>576.6</ele><time>2024-05-17T15:51:11Z</time></trkpt>
<trkpt lat="46.47565" lon="6.82379"><ele>576.4</ele><time>2024-05-17T15:51:23Z</time></trkpt>
<trkpt lat="46.47565" lon="6.82379"><ele>576.2</ele><time>2024-05-17T15:51:27Z</time></trkpt>
<trkpt lat="46.47565" lon="6.82379"><ele>576.2</ele><time>2024-05-17T15:51:28Z</time></trkpt>
<trkpt lat="46.47565" lon="6.82379"><ele>576.4</ele><time>2024-05-17T15:51:35Z</time></trkpt>
<trkpt lat="46.47565" lon="6.82378"><ele>576.2</ele><time>2024-05-17T15:51:42Z</time></trkpt>
<trkpt lat="46.47566" lon="6.82378"><ele>576</ele><time>2024-05-17T15:51:52Z</time></trkpt>
<trkpt lat="46.47565" lon="6.82378"><ele>576</ele><time>2024-05-17T15:52:00Z</time></trkpt>
<trkpt lat="46.47565" lon="6.82378"><ele>576</ele><time>2024-05-17T15:52:01Z</time></trkpt>
<trkpt lat="46.47565" lon="6.82378"><ele>576</ele><time>2024-05-17T15:52:05Z</time></trkpt>
<trkpt lat="46.47565" lon="6.82379"><ele>576</ele><time>2024-05-17T15:52:18Z</time></trkpt>
<trkpt lat="46.47566" lon="6.82377"><ele>576</ele><time>2024-05-17T15:52:24Z</time></trkpt>
<trkpt lat="46.47567" lon="6.82375"><ele>576</ele><time>2024-05-17T15:52:29Z</time></trkpt>
<trkpt lat="46.47569" lon="6.82375"><ele>576.2</ele><time>2024-05-17T15:52:36Z</time></trkpt>
<trkpt lat="46.4757" lon="6.82374"><ele>576</ele><time>2024-05-17T15:52:48Z</time></trkpt>
<trkpt lat="46.47573" lon="6.82374"><ele>575.8</ele><time>2024-05-17T15:52:52Z</time></trkpt>
<trkpt lat="46.47581" lon="6.82376"><ele>575.8</ele><time>2024-05-17T15:53:00Z</time></trkpt>
<trkpt lat="46.47581" lon="6.82376"><ele>575.8</ele><time>2024-05-17T15:53:01Z</time></trkpt>
<trkpt lat="46.47584" lon="6.82373"><ele>575.8</ele><time>2024-05-17T15:53:03Z</time></trkpt>
<trkpt lat="46.47587" lon="6.82372"><ele>575.8</ele><time>2024-05-17T15:53:05Z</time></trkpt>
<trkpt lat="46.47591" lon="6.82372"><ele>575.8</ele><time>2024-05-17T15:53:10Z</time></trkpt>
<trkpt lat="46.47598" lon="6.8237"><ele>575.6</ele><time>2024-05-17T15:53:17Z</time></trkpt>
<trkpt lat="46.476" lon="6.82366"><ele>575.6</ele><time>2024-05-17T15:53:20Z</time></trkpt>
<trkpt lat="46.47598" lon="6.8236"><ele>575.4</ele><time>2024-05-17T15:53:22Z</time></trkpt>
<trkpt lat="46.47594" lon="6.82349"><ele>574.6</ele><time>2024-05-17T15:53:25Z</time></trkpt>
<trkpt lat="46.47591" lon="6.82341"><ele>573.6</ele><time>2024-05-17T15:53:27Z</time></trkpt>
<trkpt lat="46.47588" lon="6.82331"><ele>572.4</ele><time>2024-05-17T15:53:30Z</time></trkpt>
<trkpt lat="46.47587" lon="6.82326"><ele>572</ele><time>2024-05-17T15:53:32Z</time></trkpt>
<trkpt lat="46.4758" lon="6.82314"><ele>571.4</ele><time>2024-05-17T15:53:36Z</time></trkpt>
<trkpt lat="46.47577" lon="6.82311"><ele>570.8</ele><time>2024-05-17T15:53:37Z</time></trkpt>
<trkpt lat="46.47574" lon="6.82308"><ele>570.2</ele><time>2024-05-17T15:53:38Z</time></trkpt>
<trkpt lat="46.47567" lon="6.82305"><ele>568.8</ele><time>2024-05-17T15:53:40Z</time></trkpt>
<trkpt lat="46.47563" lon="6.82304"><ele>567.8</ele><time>2024-05-17T15:53:41Z</time></trkpt>
<trkpt lat="46.47559" lon="6.82303"><ele>567.4</ele><time>2024-05-17T15:53:42Z</time></trkpt>
<trkpt lat="46.4755" lon="6.823"><ele>566.2</ele><time>2024-05-17T15:53:44Z</time></trkpt>
<trkpt lat="46.47546" lon="6.82298"><ele>565.6</ele><time>2024-05-17T15:53:45Z</time></trkpt>
<trkpt lat="46.47542" lon="6.82294"><ele>564.8</ele><time>2024-05-17T15:53:46Z</time></trkpt>
<trkpt lat="46.47538" lon="6.8229"><ele>564</ele><time>2024-05-17T15:53:47Z</time></trkpt>
<trkpt lat="46.47535" lon="6.82285"><ele>563.6</ele><time>2024-05-17T15:53:48Z</time></trkpt>
<trkpt lat="46.47532" lon="6.8228"><ele>562.8</ele><time>2024-05-17T15:53:49Z</time></trkpt>
<trkpt lat="46.4753" lon="6.82274"><ele>562</ele><time>2024-05-17T15:53:50Z</time></trkpt>
<trkpt lat="46.47528" lon="6.82267"><ele>561</ele><time>2024-05-17T15:53:51Z</time></trkpt>
<trkpt lat="46.47526" lon="6.8226"><ele>560.6</ele><time>2024-05-17T15:53:52Z</time></trkpt>
<trkpt lat="46.47523" lon="6.82241"><ele>559</ele><time>2024-05-17T15:53:54Z</time></trkpt>
<trkpt lat="46.47522" lon="6.82231"><ele>557.4</ele><time>2024-05-17T15:53:55Z</time></trkpt>
<trkpt lat="46.47521" lon="6.82209"><ele>556</ele><time>2024-05-17T15:53:57Z</time></trkpt>
<trkpt lat="46.47522" lon="6.82198"><ele>554.4</ele><time>2024-05-17T15:53:58Z</time></trkpt>
<trkpt lat="46.47523" lon="6.82186"><ele>553.8</ele><time>2024-05-17T15:53:59Z</time></trkpt>
<trkpt lat="46.47526" lon="6.82175"><ele>552.4</ele><time>2024-05-17T15:54:00Z</time></trkpt>
<trkpt lat="46.47535" lon="6.82156"><ele>552</ele><time>2024-05-17T15:54:02Z</time></trkpt>
<trkpt lat="46.47538" lon="6.82147"><ele>552</ele><time>2024-05-17T15:54:03Z</time></trkpt>
<trkpt lat="46.47539" lon="6.82129"><ele>552.4</ele><time>2024-05-17T15:54:05Z</time></trkpt>
<trkpt lat="46.47539" lon="6.82072"><ele>552.4</ele><time>2024-05-17T15:54:12Z</time></trkpt>
<trkpt lat="46.47537" lon="6.82018"><ele>551.4</ele><time>2024-05-17T15:54:19Z</time></trkpt>
<trkpt lat="46.47538" lon="6.8201"><ele>551.2</ele><time>2024-05-17T15:54:20Z</time></trkpt>
<trkpt lat="46.4754" lon="6.81979"><ele>550</ele><time>2024-05-17T15:54:24Z</time></trkpt>
<trkpt lat="46.47542" lon="6.81952"><ele>549</ele><time>2024-05-17T15:54:27Z</time></trkpt>
<trkpt lat="46.47543" lon="6.81941"><ele>548.6</ele><time>2024-05-17T15:54:28Z</time></trkpt>
<trkpt lat="46.47545" lon="6.81919"><ele>547.4</ele><time>2024-05-17T15:54:30Z</time></trkpt>
<trkpt lat="46.47547" lon="6.81898"><ele>546.2</ele><time>2024-05-17T15:54:32Z</time></trkpt>
<trkpt lat="46.4755" lon="6.81878"><ele>545.6</ele><time>2024-05-17T15:54:34Z</time></trkpt>
<trkpt lat="46.47549" lon="6.8186"><ele>545.4</ele><time>2024-05-17T15:54:36Z</time></trkpt>
<trkpt lat="46.47546" lon="6.81842"><ele>545.2</ele><time>2024-05-17T15:54:38Z</time></trkpt>
<trkpt lat="46.47538" lon="6.81815"><ele>544.8</ele><time>2024-05-17T15:54:41Z</time></trkpt>
<trkpt lat="46.47535" lon="6.81805"><ele>544.8</ele><time>2024-05-17T15:54:42Z</time></trkpt>
<trkpt lat="46.47532" lon="6.81795"><ele>544.6</ele><time>2024-05-17T15:54:43Z</time></trkpt>
<trkpt lat="46.47529" lon="6.81785"><ele>544.6</ele><time>2024-05-17T15:54:44Z</time></trkpt>
<trkpt lat="46.47526" lon="6.81766"><ele>544.4</ele><time>2024-05-17T15:54:46Z</time></trkpt>
<trkpt lat="46.47525" lon="6.81748"><ele>544.6</ele><time>2024-05-17T15:54:48Z</time></trkpt>
<trkpt lat="46.47525" lon="6.8174"><ele>544.8</ele><time>2024-05-17T15:54:49Z</time></trkpt>
<trkpt lat="46.47526" lon="6.81731"><ele>545.4</ele><time>2024-05-17T15:54:51Z</time></trkpt>
<trkpt lat="46.47527" lon="6.81726"><ele>546.6</ele><time>2024-05-17T15:54:53Z</time></trkpt>
<trkpt lat="46.47526" lon="6.81723"><ele>547.4</ele><time>2024-05-17T15:54:55Z</time></trkpt>
<trkpt lat="46.47526" lon="6.81718"><ele>547.6</ele><time>2024-05-17T15:54:57Z</time></trkpt>
<trkpt lat="46.47526" lon="6.8171"><ele>548.6</ele><time>2024-05-17T15:55:01Z</time></trkpt>
<trkpt lat="46.47526" lon="6.81707"><ele>548.8</ele><time>2024-05-17T15:55:02Z</time></trkpt>
<trkpt lat="46.47528" lon="6.81696"><ele>549.8</ele><time>2024-05-17T15:55:07Z</time></trkpt>
<trkpt lat="46.47528" lon="6.81693"><ele>550.2</ele><time>2024-05-17T15:55:08Z</time></trkpt>
<trkpt lat="46.47528" lon="6.81687"><ele>550.8</ele><time>2024-05-17T15:55:11Z</time></trkpt>
<trkpt lat="46.47529" lon="6.81672"><ele>551.8</ele><time>2024-05-17T15:55:17Z</time></trkpt>
<trkpt lat="46.4753" lon="6.81669"><ele>552</ele><time>2024-05-17T15:55:18Z</time></trkpt>
<trkpt lat="46.47532" lon="6.81641"><ele>552.4</ele><time>2024-05-17T15:55:27Z</time></trkpt>
<trkpt lat="46.47535" lon="6.81612"><ele>551.6</ele><time>2024-05-17T15:55:32Z</time></trkpt>
<trkpt lat="46.47536" lon="6.81595"><ele>550.8</ele><time>2024-05-17T15:55:34Z</time></trkpt>
<trkpt lat="46.47536" lon="6.81576"><ele>549.6</ele><time>2024-05-17T15:55:36Z</time></trkpt>
<trkpt lat="46.47537" lon="6.81565"><ele>549</ele><time>2024-05-17T15:55:37Z</time></trkpt>
<trkpt lat="46.47537" lon="6.81555"><ele>548.8</ele><time>2024-05-17T15:55:38Z</time></trkpt>
<trkpt lat="46.47538" lon="6.81546"><ele>548.2</ele><time>2024-05-17T15:55:39Z</time></trkpt>
<trkpt lat="46.47538" lon="6.81538"><ele>548.2</ele><time>2024-05-17T15:55:40Z</time></trkpt>
<trkpt lat="46.47538" lon="6.81523"><ele>548.2</ele><time>2024-05-17T15:55:42Z</time></trkpt>
<trkpt lat="46.47539" lon="6.8151"><ele>549.4</ele><time>2024-05-17T15:55:44Z</time></trkpt>
<trkpt lat="46.47539" lon="6.81495"><ele>550.4</ele><time>2024-05-17T15:55:47Z</time></trkpt>
<trkpt lat="46.47541" lon="6.81471"><ele>551.8</ele><time>2024-05-17T15:55:52Z</time></trkpt>
<trkpt lat="46.47543" lon="6.81457"><ele>552.4</ele><time>2024-05-17T15:55:55Z</time></trkpt>
<trkpt lat="46.47543" lon="6.81447"><ele>553</ele><time>2024-05-17T15:55:57Z</time></trkpt>
<trkpt lat="46.47545" lon="6.81426"><ele>554.2</ele><time>2024-05-17T15:56:02Z</time></trkpt>
<trkpt lat="46.47545" lon="6.81419"><ele>554.6</ele><time>2024-05-17T15:56:04Z</time></trkpt>
<trkpt lat="46.47549" lon="6.81389"><ele>555</ele><time>2024-05-17T15:56:11Z</time></trkpt>
<trkpt lat="46.47553" lon="6.81353"><ele>553.6</ele><time>2024-05-17T15:56:16Z</time></trkpt>
<trkpt lat="46.47554" lon="6.81314"><ele>554.4</ele><time>2024-05-17T15:56:23Z</time></trkpt>
<trkpt lat="46.47552" lon="6.81283"><ele>555.2</ele><time>2024-05-17T15:56:29Z</time></trkpt>
<trkpt lat="46.47552" lon="6.81259"><ele>556</ele><time>2024-05-17T15:56:34Z</time></trkpt>
<trkpt lat="46.47552" lon="6.81233"><ele>556.2</ele><time>2024-05-17T15:56:39Z</time></trkpt>
<trkpt lat="46.47549" lon="6.81224"><ele>556.4</ele><time>2024-05-17T15:56:41Z</time></trkpt>
<trkpt lat="46.47537" lon="6.81192"><ele>556.4</ele><time>2024-05-17T15:56:47Z</time></trkpt>
<trkpt lat="46.47532" lon="6.8117"><ele>555.2</ele><time>2024-05-17T15:56:50Z</time></trkpt>
<trkpt lat="46.4753" lon="6.81148"><ele>555</ele><time>2024-05-17T15:56:53Z</time></trkpt>
<trkpt lat="46.47525" lon="6.81085"><ele>555.6</ele><time>2024-05-17T15:57:02Z</time></trkpt>
<trkpt lat="46.47525" lon="6.81052"><ele>556.2</ele><time>2024-05-17T15:57:07Z</time></trkpt>
<trkpt lat="46.47524" lon="6.81034"><ele>556.6</ele><time>2024-05-17T15:57:10Z</time></trkpt>
<trkpt lat="46.47523" lon="6.81004"><ele>557.2</ele><time>2024-05-17T15:57:15Z</time></trkpt>
<trkpt lat="46.47522" lon="6.80991"><ele>557.6</ele><time>2024-05-17T15:57:18Z</time></trkpt>
<trkpt lat="46.47522" lon="6.80985"><ele>558.4</ele><time>2024-05-17T15:57:20Z</time></trkpt>
<trkpt lat="46.47522" lon="6.80979"><ele>558.8</ele><time>2024-05-17T15:57:23Z</time></trkpt>
<trkpt lat="46.47522" lon="6.80976"><ele>559.4</ele><time>2024-05-17T15:57:25Z</time></trkpt>
<trkpt lat="46.47524" lon="6.80972"><ele>559.8</ele><time>2024-05-17T15:57:28Z</time></trkpt>
<trkpt lat="46.47524" lon="6.80971"><ele>560</ele><time>2024-05-17T15:57:29Z</time></trkpt>
<trkpt lat="46.47524" lon="6.80967"><ele>560.6</ele><time>2024-05-17T15:57:32Z</time></trkpt>
<trkpt lat="46.47524" lon="6.80961"><ele>561.4</ele><time>2024-05-17T15:57:36Z</time></trkpt>
<trkpt lat="46.47525" lon="6.8096"><ele>561.6</ele><time>2024-05-17T15:57:37Z</time></trkpt>
<trkpt lat="46.47528" lon="6.80954"><ele>562.4</ele><time>2024-05-17T15:57:42Z</time></trkpt>
<trkpt lat="46.47529" lon="6.80953"><ele>562.6</ele><time>2024-05-17T15:57:43Z</time></trkpt>
<trkpt lat="46.47534" lon="6.80947"><ele>563.8</ele><time>2024-05-17T15:57:48Z</time></trkpt>
<trkpt lat="46.47538" lon="6.80942"><ele>564.8</ele><time>2024-05-17T15:57:52Z</time></trkpt>
<trkpt lat="46.47542" lon="6.80938"><ele>565.8</ele><time>2024-05-17T15:57:55Z</time></trkpt>
<trkpt lat="46.47546" lon="6.80934"><ele>567</ele><time>2024-05-17T15:57:59Z</time></trkpt>
<trkpt lat="46.47549" lon="6.8093"><ele>568</ele><time>2024-05-17T15:58:02Z</time></trkpt>
<trkpt lat="46.47554" lon="6.80927"><ele>569.4</ele><time>2024-05-17T15:58:06Z</time></trkpt>
<trkpt lat="46.47554" lon="6.80926"><ele>569.8</ele><time>2024-05-17T15:58:07Z</time></trkpt>
<trkpt lat="46.47555" lon="6.80924"><ele>570</ele><time>2024-05-17T15:58:08Z</time></trkpt>
<trkpt lat="46.47552" lon="6.80906"><ele>569.8</ele><time>2024-05-17T15:58:13Z</time></trkpt>
<trkpt lat="46.47549" lon="6.809"><ele>569.6</ele><time>2024-05-17T15:58:14Z</time></trkpt>
<trkpt lat="46.47542" lon="6.80886"><ele>567.8</ele><time>2024-05-17T15:58:16Z</time></trkpt>
<trkpt lat="46.47539" lon="6.80878"><ele>567.4</ele><time>2024-05-17T15:58:17Z</time></trkpt>
<trkpt lat="46.47535" lon="6.80868"><ele>566.4</ele><time>2024-05-17T15:58:18Z</time></trkpt>
<trkpt lat="46.47532" lon="6.80845"><ele>564.6</ele><time>2024-05-17T15:58:20Z</time></trkpt>
<trkpt lat="46.47533" lon="6.80822"><ele>563</ele><time>2024-05-17T15:58:22Z</time></trkpt>
<trkpt lat="46.47534" lon="6.8081"><ele>561.8</ele><time>2024-05-17T15:58:23Z</time></trkpt>
<trkpt lat="46.47535" lon="6.808"><ele>561</ele><time>2024-05-17T15:58:24Z</time></trkpt>
<trkpt lat="46.47535" lon="6.8079"><ele>560</ele><time>2024-05-17T15:58:25Z</time></trkpt>
<trkpt lat="46.47527" lon="6.8078"><ele>558.6</ele><time>2024-05-17T15:58:27Z</time></trkpt>
<trkpt lat="46.47519" lon="6.80775"><ele>557.4</ele><time>2024-05-17T15:58:29Z</time></trkpt>
<trkpt lat="46.47515" lon="6.8077"><ele>556.4</ele><time>2024-05-17T15:58:30Z</time></trkpt>
<trkpt lat="46.4751" lon="6.80764"><ele>556</ele><time>2024-05-17T15:58:31Z</time></trkpt>
<trkpt lat="46.47504" lon="6.80761"><ele>555.8</ele><time>2024-05-17T15:58:32Z</time></trkpt>
<trkpt lat="46.47496" lon="6.80764"><ele>555.6</ele><time>2024-05-17T15:58:33Z</time></trkpt>
<trkpt lat="46.47488" lon="6.80756"><ele>555.6</ele><time>2024-05-17T15:58:36Z</time></trkpt>
<trkpt lat="46.47487" lon="6.8075"><ele>557</ele><time>2024-05-17T15:58:39Z</time></trkpt>
<trkpt lat="46.47487" lon="6.80748"><ele>557.2</ele><time>2024-05-17T15:58:40Z</time></trkpt>
<trkpt lat="46.47489" lon="6.80738"><ele>558.4</ele><time>2024-05-17T15:58:45Z</time></trkpt>
<trkpt lat="46.4749" lon="6.80737"><ele>558.6</ele><time>2024-05-17T15:58:46Z</time></trkpt>
<trkpt lat="46.47494" lon="6.80724"><ele>559.4</ele><time>2024-05-17T15:58:52Z</time></trkpt>
<trkpt lat="46.47499" lon="6.80704"><ele>559.8</ele><time>2024-05-17T15:58:59Z</time></trkpt>
<trkpt lat="46.47502" lon="6.8069"><ele>559.4</ele><time>2024-05-17T15:59:02Z</time></trkpt>
<trkpt lat="46.47504" lon="6.80677"><ele>558.8</ele><time>2024-05-17T15:59:04Z</time></trkpt>
<trkpt lat="46.47505" lon="6.80669"><ele>558.4</ele><time>2024-05-17T15:59:05Z</time></trkpt>
<trkpt lat="46.47509" lon="6.80643"><ele>557.2</ele><time>2024-05-17T15:59:08Z</time></trkpt>
<trkpt lat="46.47512" lon="6.80624"><ele>556.6</ele><time>2024-05-17T15:59:10Z</time></trkpt>
<trkpt lat="46.47514" lon="6.80615"><ele>555.8</ele><time>2024-05-17T15:59:11Z</time></trkpt>
<trkpt lat="46.47525" lon="6.80558"><ele>555.2</ele><time>2024-05-17T15:59:18Z</time></trkpt>
<trkpt lat="46.47533" lon="6.80529"><ele>555.2</ele><time>2024-05-17T15:59:22Z</time></trkpt>
<trkpt lat="46.47538" lon="6.8051"><ele>555.8</ele><time>2024-05-17T15:59:25Z</time></trkpt>
<trkpt lat="46.47547" lon="6.80478"><ele>557.2</ele><time>2024-05-17T15:59:31Z</time></trkpt>
<trkpt lat="46.47549" lon="6.80474"><ele>557.4</ele><time>2024-05-17T15:59:32Z</time></trkpt>
<trkpt lat="46.47554" lon="6.80453"><ele>558.4</ele><time>2024-05-17T15:59:37Z</time></trkpt>
<trkpt lat="46.47556" lon="6.80446"><ele>559</ele><time>2024-05-17T15:59:39Z</time></trkpt>
<trkpt lat="46.47558" lon="6.80439"><ele>559.6</ele><time>2024-05-17T15:59:42Z</time></trkpt>
<trkpt lat="46.4756" lon="6.80432"><ele>560.2</ele><time>2024-05-17T15:59:45Z</time></trkpt>
<trkpt lat="46.47563" lon="6.80422"><ele>560.8</ele><time>2024-05-17T15:59:49Z</time></trkpt>
<trkpt lat="46.47565" lon="6.80416"><ele>561.4</ele><time>2024-05-17T15:59:52Z</time></trkpt>
<trkpt lat="46.47567" lon="6.80408"><ele>562</ele><time>2024-05-17T15:59:55Z</time></trkpt>
<trkpt lat="46.47569" lon="6.80396"><ele>562.8</ele><time>2024-05-17T16:00:01Z</time></trkpt>
<trkpt lat="46.4757" lon="6.80394"><ele>563</ele><time>2024-05-17T16:00:02Z</time></trkpt>
<trkpt lat="46.47575" lon="6.80378"><ele>563.8</ele><time>2024-05-17T16:00:09Z</time></trkpt>
<trkpt lat="46.47575" lon="6.80376"><ele>564</ele><time>2024-05-17T16:00:10Z</time></trkpt>
<trkpt lat="46.47579" lon="6.80359"><ele>564.8</ele><time>2024-05-17T16:00:18Z</time></trkpt>
<trkpt lat="46.47582" lon="6.80352"><ele>565.2</ele><time>2024-05-17T16:00:21Z</time></trkpt>
<trkpt lat="46.47585" lon="6.80338"><ele>565.6</ele><time>2024-05-17T16:00:26Z</time></trkpt>
<trkpt lat="46.47588" lon="6.80315"><ele>566.2</ele><time>2024-05-17T16:00:34Z</time></trkpt>
<trkpt lat="46.47588" lon="6.80312"><ele>566.2</ele><time>2024-05-17T16:00:35Z</time></trkpt>
<trkpt lat="46.47591" lon="6.80295"><ele>567.2</ele><time>2024-05-17T16:00:42Z</time></trkpt>
<trkpt lat="46.47593" lon="6.8029"><ele>567.4</ele><time>2024-05-17T16:00:44Z</time></trkpt>
<trkpt lat="46.47595" lon="6.80277"><ele>568.4</ele><time>2024-05-17T16:00:50Z</time></trkpt>
<trkpt lat="46.47598" lon="6.80263"><ele>569.4</ele><time>2024-05-17T16:00:57Z</time></trkpt>
<trkpt lat="46.476" lon="6.80257"><ele>569.8</ele><time>2024-05-17T16:01:00Z</time></trkpt>
<trkpt lat="46.47601" lon="6.80249"><ele>570.4</ele><time>2024-05-17T16:01:04Z</time></trkpt>
<trkpt lat="46.47602" lon="6.80239"><ele>571.2</ele><time>2024-05-17T16:01:09Z</time></trkpt>
<trkpt lat="46.47602" lon="6.80236"><ele>571.6</ele><time>2024-05-17T16:01:11Z</time></trkpt>
<trkpt lat="46.47602" lon="6.8023"><ele>572</ele><time>2024-05-17T16:01:15Z</time></trkpt>
<trkpt lat="46.47603" lon="6.80225"><ele>572.8</ele><time>2024-05-17T16:01:18Z</time></trkpt>
<trkpt lat="46.47604" lon="6.80224"><ele>572.8</ele><time>2024-05-17T16:01:19Z</time></trkpt>
<trkpt lat="46.47605" lon="6.8022"><ele>573.6</ele><time>2024-05-17T16:01:22Z</time></trkpt>
<trkpt lat="46.47605" lon="6.80217"><ele>574</ele><time>2024-05-17T16:01:24Z</time></trkpt>
<trkpt lat="46.47606" lon="6.80208"><ele>574.8</ele><time>2024-05-17T16:01:29Z</time></trkpt>
<trkpt lat="46.47607" lon="6.80206"><ele>575</ele><time>2024-05-17T16:01:30Z</time></trkpt>
<trkpt lat="46.47608" lon="6.80196"><ele>576</ele><time>2024-05-17T16:01:35Z</time></trkpt>
<trkpt lat="46.47608" lon="6.80194"><ele>576.2</ele><time>2024-05-17T16:01:36Z</time></trkpt>
<trkpt lat="46.47609" lon="6.80189"><ele>576.6</ele><time>2024-05-17T16:01:39Z</time></trkpt>
<trkpt lat="46.4761" lon="6.80185"><ele>577</ele><time>2024-05-17T16:01:41Z</time></trkpt>
<trkpt lat="46.47609" lon="6.80183"><ele>577.2</ele><time>2024-05-17T16:01:42Z</time></trkpt>
<trkpt lat="46.47611" lon="6.80172"><ele>578.2</ele><time>2024-05-17T16:01:47Z</time></trkpt>
<trkpt lat="46.47616" lon="6.80153"><ele>579.4</ele><time>2024-05-17T16:01:54Z</time></trkpt>
<trkpt lat="46.47618" lon="6.80129"><ele>579.6</ele><time>2024-05-17T16:02:02Z</time></trkpt>
<trkpt lat="46.47621" lon="6.80102"><ele>579.2</ele><time>2024-05-17T16:02:09Z</time></trkpt>
<trkpt lat="46.47624" lon="6.80064"><ele>578.4</ele><time>2024-05-17T16:02:16Z</time></trkpt>
<trkpt lat="46.47624" lon="6.80026"><ele>577.4</ele><time>2024-05-17T16:02:22Z</time></trkpt>
<trkpt lat="46.47625" lon="6.8002"><ele>577.4</ele><time>2024-05-17T16:02:23Z</time></trkpt>
<trkpt lat="46.4763" lon="6.80011"><ele>577.2</ele><time>2024-05-17T16:02:25Z</time></trkpt>
<trkpt lat="46.47636" lon="6.80007"><ele>577</ele><time>2024-05-17T16:02:27Z</time></trkpt>
<trkpt lat="46.47644" lon="6.80002"><ele>576</ele><time>2024-05-17T16:02:31Z</time></trkpt>
<trkpt lat="46.47648" lon="6.8"><ele>575.8</ele><time>2024-05-17T16:02:32Z</time></trkpt>
<trkpt lat="46.4765" lon="6.79995"><ele>575.2</ele><time>2024-05-17T16:02:33Z</time></trkpt>
<trkpt lat="46.47653" lon="6.79989"><ele>575</ele><time>2024-05-17T16:02:34Z</time></trkpt>
<trkpt lat="46.47654" lon="6.79983"><ele>574.8</ele><time>2024-05-17T16:02:35Z</time></trkpt>
<trkpt lat="46.47661" lon="6.79951"><ele>574.2</ele><time>2024-05-17T16:02:39Z</time></trkpt>
<trkpt lat="46.47662" lon="6.79945"><ele>574.2</ele><time>2024-05-17T16:02:40Z</time></trkpt>
<trkpt lat="46.47661" lon="6.79933"><ele>574</ele><time>2024-05-17T16:02:42Z</time></trkpt>
<trkpt lat="46.4766" lon="6.79927"><ele>574</ele><time>2024-05-17T16:02:43Z</time></trkpt>
<trkpt lat="46.47655" lon="6.79916"><ele>573.6</ele><time>2024-05-17T16:02:45Z</time></trkpt>
<trkpt lat="46.47647" lon="6.79899"><ele>572.2</ele><time>2024-05-17T16:02:48Z</time></trkpt>
<trkpt lat="46.4764" lon="6.79885"><ele>571</ele><time>2024-05-17T16:02:50Z</time></trkpt>
<trkpt lat="46.47634" lon="6.7987"><ele>569.8</ele><time>2024-05-17T16:02:52Z</time></trkpt>
<trkpt lat="46.47629" lon="6.79854"><ele>568</ele><time>2024-05-17T16:02:54Z</time></trkpt>
<trkpt lat="46.47626" lon="6.79835"><ele>566</ele><time>2024-05-17T16:02:56Z</time></trkpt>
<trkpt lat="46.47626" lon="6.79825"><ele>564.2</ele><time>2024-05-17T16:02:57Z</time></trkpt>
<trkpt lat="46.47626" lon="6.79814"><ele>563</ele><time>2024-05-17T16:02:58Z</time></trkpt>
<trkpt lat="46.47625" lon="6.79803"><ele>561.8</ele><time>2024-05-17T16:02:59Z</time></trkpt>
<trkpt lat="46.47624" lon="6.79793"><ele>560.6</ele><time>2024-05-17T16:03:00Z</time></trkpt>
<trkpt lat="46.47622" lon="6.79782"><ele>558.6</ele><time>2024-05-17T16:03:01Z</time></trkpt>
<trkpt lat="46.47621" lon="6.79773"><ele>557.2</ele><time>2024-05-17T16:03:02Z</time></trkpt>
<trkpt lat="46.47618" lon="6.79762"><ele>556.2</ele><time>2024-05-17T16:03:03Z</time></trkpt>
<trkpt lat="46.47616" lon="6.79752"><ele>555.4</ele><time>2024-05-17T16:03:04Z</time></trkpt>
<trkpt lat="46.47617" lon="6.79743"><ele>553.8</ele><time>2024-05-17T16:03:05Z</time></trkpt>
<trkpt lat="46.47617" lon="6.79704"><ele>554.2</ele><time>2024-05-17T16:03:10Z</time></trkpt>
<trkpt lat="46.47617" lon="6.79693"><ele>555</ele><time>2024-05-17T16:03:12Z</time></trkpt>
<trkpt lat="46.47618" lon="6.7968"><ele>556</ele><time>2024-05-17T16:03:15Z</time></trkpt>
<trkpt lat="46.47619" lon="6.79677"><ele>556.2</ele><time>2024-05-17T16:03:16Z</time></trkpt>
<trkpt lat="46.47626" lon="6.79657"><ele>557.2</ele><time>2024-05-17T16:03:22Z</time></trkpt>
<trkpt lat="46.47631" lon="6.79647"><ele>558.2</ele><time>2024-05-17T16:03:26Z</time></trkpt>
<trkpt lat="46.47633" lon="6.79642"><ele>558.8</ele><time>2024-05-17T16:03:29Z</time></trkpt>
<trkpt lat="46.47634" lon="6.79641"><ele>558.8</ele><time>2024-05-17T16:03:30Z</time></trkpt>
<trkpt lat="46.47636" lon="6.79642"><ele>559</ele><time>2024-05-17T16:03:32Z</time></trkpt>
<trkpt lat="46.47637" lon="6.79642"><ele>559</ele><time>2024-05-17T16:03:33Z</time></trkpt>
<trkpt lat="46.47637" lon="6.79643"><ele>558.8</ele><time>2024-05-17T16:03:38Z</time></trkpt>
<trkpt lat="46.47639" lon="6.79637"><ele>559.4</ele><time>2024-05-17T16:03:44Z</time></trkpt>
<trkpt lat="46.47639" lon="6.79638"><ele>560</ele><time>2024-05-17T16:03:51Z</time></trkpt>
<trkpt lat="46.47639" lon="6.79639"><ele>559.4</ele><time>2024-05-17T16:03:55Z</time></trkpt>
<trkpt lat="46.47638" lon="6.79637"><ele>559.4</ele><time>2024-05-17T16:03:58Z</time></trkpt>
<trkpt lat="46.47638" lon="6.79634"><ele>559.6</ele><time>2024-05-17T16:04:03Z</time></trkpt>
<trkpt lat="46.47638" lon="6.79633"><ele>559.6</ele><time>2024-05-17T16:04:05Z</time></trkpt>
<trkpt lat="46.47638" lon="6.79633"><ele>558.8</ele><time>2024-05-17T16:04:16Z</time></trkpt>
<trkpt lat="46.47638" lon="6.79633"><ele>559</ele><time>2024-05-17T16:04:21Z</time></trkpt>
<trkpt lat="46.47638" lon="6.79634"><ele>559</ele><time>2024-05-17T16:04:25Z</time></trkpt>
<trkpt lat="46.47638" lon="6.79633"><ele>559.2</ele><time>2024-05-17T16:04:32Z</time></trkpt>
<trkpt lat="46.47639" lon="6.79633"><ele>559.2</ele><time>2024-05-17T16:04:43Z</time></trkpt>
<trkpt lat="46.47639" lon="6.79634"><ele>559.2</ele><time>2024-05-17T16:04:50Z</time></trkpt>
<trkpt lat="46.47639" lon="6.79634"><ele>559.4</ele><time>2024-05-17T16:04:59Z</time></trkpt>
<trkpt lat="46.47639" lon="6.79635"><ele>559</ele><time>2024-05-17T16:05:10Z</time></trkpt>
<trkpt lat="46.47639" lon="6.79635"><ele>559.2</ele><time>2024-05-17T16:05:23Z</time></trkpt>
<trkpt lat="46.47639" lon="6.79635"><ele>559.4</ele><time>2024-05-17T16:05:30Z</time></trkpt>
<trkpt lat="46.47639" lon="6.79635"><ele>559.4</ele><time>2024-05-17T16:05:34Z</time></trkpt>
<trkpt lat="46.47639" lon="6.79634"><ele>559.4</ele><time>2024-05-17T16:05:39Z</time></trkpt>
<trkpt lat="46.47639" lon="6.79633"><ele>559</ele><time>2024-05-17T16:05:43Z</time></trkpt>
<trkpt lat="46.47639" lon="6.79633"><ele>559</ele><time>2024-05-17T16:05:47Z</time></trkpt>
<trkpt lat="46.47639" lon="6.79633"><ele>559</ele><time>2024-05-17T16:05:58Z</time></trkpt>
<trkpt lat="46.47639" lon="6.79635"><ele>559</ele><time>2024-05-17T16:06:00Z</time></trkpt>
<trkpt lat="46.47639" lon="6.79635"><ele>559</ele><time>2024-05-17T16:06:07Z</time></trkpt>
<trkpt lat="46.47639" lon="6.79635"><ele>559</ele><time>2024-05-17T16:06:10Z</time></trkpt>
<trkpt lat="46.47639" lon="6.79635"><ele>559</ele><time>2024-05-17T16:06:11Z</time></trkpt>
<trkpt lat="46.47639" lon="6.79635"><ele>559</ele><time>2024-05-17T16:06:18Z</time></trkpt>
<trkpt lat="46.47639" lon="6.79635"><ele>559</ele><time>2024-05-17T16:06:19Z</time></trkpt>
<trkpt lat="46.47639" lon="6.79635"><ele>559</ele><time>2024-05-17T16:06:20Z</time></trkpt>
<trkpt lat="46.47639" lon="6.79635"><ele>559</ele><time>2024-05-17T16:06:21Z</time></trkpt>
<trkpt lat="46.47639" lon="6.79635"><ele>559</ele><time>2024-05-17T16:06:23Z</time></trkpt>
<trkpt lat="46.47639" lon="6.79635"><ele>559</ele><time>2024-05-17T16:06:26Z</time></trkpt>
<trkpt lat="46.47639" lon="6.79635"><ele>559</ele><time>2024-05-17T16:06:39Z</time></trkpt>
<trkpt lat="46.47638" lon="6.79634"><ele>559</ele><time>2024-05-17T16:06:54Z</time></trkpt>
<trkpt lat="46.4764" lon="6.79633"><ele>559</ele><time>2024-05-17T16:07:04Z</time></trkpt>
<trkpt lat="46.4764" lon="6.79633"><ele>559</ele><time>2024-05-17T16:07:09Z</time></trkpt>
<trkpt lat="46.4764" lon="6.79632"><ele>559</ele><time>2024-05-17T16:07:12Z</time></trkpt>
<trkpt lat="46.4764" lon="6.79632"><ele>559</ele><time>2024-05-17T16:07:16Z</time></trkpt>
<trkpt lat="46.47641" lon="6.79632"><ele>559</ele><time>2024-05-17T16:07:19Z</time></trkpt>
<trkpt lat="46.4764" lon="6.79632"><ele>559</ele><time>2024-05-17T16:07:25Z</time></trkpt>
<trkpt lat="46.47639" lon="6.79632"><ele>559</ele><time>2024-05-17T16:07:34Z</time></trkpt>
<trkpt lat="46.47639" lon="6.79632"><ele>559</ele><time>2024-05-17T16:07:39Z</time></trkpt>
<trkpt lat="46.47639" lon="6.79632"><ele>559</ele><time>2024-05-17T16:07:44Z</time></trkpt>
<trkpt lat="46.47638" lon="6.79631"><ele>559</ele><time>2024-05-17T16:07:48Z</time></trkpt>
<trkpt lat="46.47638" lon="6.79631"><ele>559</ele><time>2024-05-17T16:07:51Z</time></trkpt>
<trkpt lat="46.47639" lon="6.79631"><ele>559</ele><time>2024-05-17T16:07:53Z</time></trkpt>
<trkpt lat="46.47639" lon="6.79634"><ele>559</ele><time>2024-05-17T16:08:01Z</time></trkpt>
<trkpt lat="46.47639" lon="6.79634"><ele>559</ele><time>2024-05-17T16:08:12Z</time></trkpt>
<trkpt lat="46.47639" lon="6.79635"><ele>559</ele><time>2024-05-17T16:08:21Z</time></trkpt>
<trkpt lat="46.47639" lon="6.79633"><ele>559</ele><time>2024-05-17T16:08:30Z</time></trkpt>
<trkpt lat="46.47639" lon="6.79633"><ele>559</ele><time>2024-05-17T16:08:35Z</time></trkpt>
<trkpt lat="46.47639" lon="6.79633"><ele>559</ele><time>2024-05-17T16:08:39Z</time></trkpt>
<trkpt lat="46.47639" lon="6.79633"><ele>559</ele><time>2024-05-17T16:08:46Z</time></trkpt>
<trkpt lat="46.47639" lon="6.79633"><ele>559</ele><time>2024-05-17T16:08:47Z</time></trkpt>
<trkpt lat="46.47639" lon="6.79633"><ele>559</ele><time>2024-05-17T16:08:48Z</time></trkpt>
<trkpt lat="46.47639" lon="6.79634"><ele>559</ele><time>2024-05-17T16:08:53Z</time></trkpt>
<trkpt lat="46.47639" lon="6.79634"><ele>559</ele><time>2024-05-17T16:08:55Z</time></trkpt>
<trkpt lat="46.47638" lon="6.79633"><ele>559</ele><time>2024-05-17T16:08:59Z</time></trkpt>
<trkpt lat="46.47639" lon="6.79633"><ele>559</ele><time>2024-05-17T16:09:02Z</time></trkpt>
<trkpt lat="46.47639" lon="6.79634"><ele>559</ele><time>2024-05-17T16:09:03Z</time></trkpt>
<trkpt lat="46.47639" lon="6.79634"><ele>559</ele><time>2024-05-17T16:09:19Z</time></trkpt>
<trkpt lat="46.47639" lon="6.79634"><ele>559</ele><time>2024-05-17T16:09:21Z</time></trkpt>
<trkpt lat="46.47639" lon="6.79634"><ele>559</ele><time>2024-05-17T16:09:40Z</time></trkpt>
<trkpt lat="46.47639" lon="6.79634"><ele>559</ele><time>2024-05-17T16:09:41Z</time></trkpt>
<trkpt lat="46.47639" lon="6.79634"><ele>559</ele><time>2024-05-17T16:09:44Z</time></trkpt>
<trkpt lat="46.47639" lon="6.79634"><ele>559</ele><time>2024-05-17T16:09:48Z</time></trkpt>
<trkpt lat="46.47639" lon="6.79634"><ele>559</ele><time>2024-05-17T16:09:49Z</time></trkpt>
<trkpt lat="46.47639" lon="6.79634"><ele>559</ele><time>2024-05-17T16:09:52Z</time></trkpt>
<trkpt lat="46.4764" lon="6.79634"><ele>559</ele><time>2024-05-17T16:10:04Z</time></trkpt>
<trkpt lat="46.47639" lon="6.79634"><ele>559</ele><time>2024-05-17T16:10:26Z</time></trkpt>
<trkpt lat="46.4764" lon="6.79635"><ele>559</ele><time>2024-05-17T16:10:35Z</time></trkpt>
<trkpt lat="46.47638" lon="6.79635"><ele>559</ele><time>2024-05-17T16:10:41Z</time></trkpt>
<trkpt lat="46.47639" lon="6.79635"><ele>559</ele><time>2024-05-17T16:10:47Z</time></trkpt>
<trkpt lat="46.47639" lon="6.79635"><ele>559</ele><time>2024-05-17T16:10:49Z</time></trkpt>
<trkpt lat="46.47638" lon="6.79634"><ele>559</ele><time>2024-05-17T16:10:52Z</time></trkpt>
<trkpt lat="46.47638" lon="6.79633"><ele>559</ele><time>2024-05-17T16:10:56Z</time></trkpt>
<trkpt lat="46.47638" lon="6.79633"><ele>559</ele><time>2024-05-17T16:11:01Z</time></trkpt>
<trkpt lat="46.47638" lon="6.79635"><ele>559</ele><time>2024-05-17T16:11:07Z</time></trkpt>
<trkpt lat="46.47638" lon="6.79634"><ele>559</ele><time>2024-05-17T16:11:12Z</time></trkpt>
<trkpt lat="46.47637" lon="6.79634"><ele>559</ele><time>2024-05-17T16:11:14Z</time></trkpt>
<trkpt lat="46.47637" lon="6.79634"><ele>559</ele><time>2024-05-17T16:11:21Z</time></trkpt>
<trkpt lat="46.47638" lon="6.79634"><ele>559</ele><time>2024-05-17T16:11:31Z</time></trkpt>
<trkpt lat="46.47638" lon="6.79638"><ele>559</ele><time>2024-05-17T16:11:37Z</time></trkpt>
<trkpt lat="46.4764" lon="6.79639"><ele>559</ele><time>2024-05-17T16:11:43Z</time></trkpt>
<trkpt lat="46.47639" lon="6.79641"><ele>559</ele><time>2024-05-17T16:11:45Z</time></trkpt>
<trkpt lat="46.47635" lon="6.79643"><ele>559.2</ele><time>2024-05-17T16:11:47Z</time></trkpt>
<trkpt lat="46.47635" lon="6.79637"><ele>559.2</ele><time>2024-05-17T16:11:50Z</time></trkpt>
<trkpt lat="46.47637" lon="6.79631"><ele>559</ele><time>2024-05-17T16:11:52Z</time></trkpt>
<trkpt lat="46.47642" lon="6.79617"><ele>558.8</ele><time>2024-05-17T16:11:55Z</time></trkpt>
<trkpt lat="46.47646" lon="6.796"><ele>558.4</ele><time>2024-05-17T16:11:58Z</time></trkpt>
<trkpt lat="46.4765" lon="6.79578"><ele>557.8</ele><time>2024-05-17T16:12:01Z</time></trkpt>
<trkpt lat="46.47652" lon="6.7957"><ele>557.8</ele><time>2024-05-17T16:12:02Z</time></trkpt>
<trkpt lat="46.47656" lon="6.79553"><ele>556.8</ele><time>2024-05-17T16:12:04Z</time></trkpt>
<trkpt lat="46.47662" lon="6.79535"><ele>556</ele><time>2024-05-17T16:12:06Z</time></trkpt>
<trkpt lat="46.47665" lon="6.79527"><ele>555.6</ele><time>2024-05-17T16:12:07Z</time></trkpt>
<trkpt lat="46.47677" lon="6.79505"><ele>555.2</ele><time>2024-05-17T16:12:10Z</time></trkpt>
<trkpt lat="46.4768" lon="6.795"><ele>555</ele><time>2024-05-17T16:12:11Z</time></trkpt>
<trkpt lat="46.47682" lon="6.79493"><ele>555</ele><time>2024-05-17T16:12:12Z</time></trkpt>
<trkpt lat="46.4768" lon="6.79479"><ele>554.8</ele><time>2024-05-17T16:12:14Z</time></trkpt>
<trkpt lat="46.47678" lon="6.79463"><ele>554</ele><time>2024-05-17T16:12:16Z</time></trkpt>
<trkpt lat="46.47679" lon="6.79447"><ele>552.6</ele><time>2024-05-17T16:12:18Z</time></trkpt>
<trkpt lat="46.47679" lon="6.79441"><ele>552.2</ele><time>2024-05-17T16:12:19Z</time></trkpt>
<trkpt lat="46.47683" lon="6.79427"><ele>551.4</ele><time>2024-05-17T16:12:21Z</time></trkpt>
<trkpt lat="46.47691" lon="6.79414"><ele>550</ele><time>2024-05-17T16:12:23Z</time></trkpt>
<trkpt lat="46.477" lon="6.79398"><ele>548.4</ele><time>2024-05-17T16:12:25Z</time></trkpt>
<trkpt lat="46.47708" lon="6.79379"><ele>546.2</ele><time>2024-05-17T16:12:27Z</time></trkpt>
<trkpt lat="46.47715" lon="6.79356"><ele>544.8</ele><time>2024-05-17T16:12:29Z</time></trkpt>
<trkpt lat="46.47719" lon="6.79343"><ele>543.6</ele><time>2024-05-17T16:12:30Z</time></trkpt>
<trkpt lat="46.47722" lon="6.7933"><ele>542.2</ele><time>2024-05-17T16:12:31Z</time></trkpt>
<trkpt lat="46.47725" lon="6.79316"><ele>541.2</ele><time>2024-05-17T16:12:32Z</time></trkpt>
<trkpt lat="46.47728" lon="6.79302"><ele>540.2</ele><time>2024-05-17T16:12:33Z</time></trkpt>
<trkpt lat="46.47729" lon="6.79288"><ele>538.6</ele><time>2024-05-17T16:12:34Z</time></trkpt>
<trkpt lat="46.4773" lon="6.79275"><ele>537.8</ele><time>2024-05-17T16:12:35Z</time></trkpt>
<trkpt lat="46.47731" lon="6.79264"><ele>536.6</ele><time>2024-05-17T16:12:36Z</time></trkpt>
<trkpt lat="46.47733" lon="6.79243"><ele>535.8</ele><time>2024-05-17T16:12:38Z</time></trkpt>
<trkpt lat="46.47736" lon="6.79235"><ele>535.6</ele><time>2024-05-17T16:12:39Z</time></trkpt>
<trkpt lat="46.47739" lon="6.79227"><ele>535.6</ele><time>2024-05-17T16:12:40Z</time></trkpt>
<trkpt lat="46.47749" lon="6.79207"><ele>535.4</ele><time>2024-05-17T16:12:43Z</time></trkpt>
<trkpt lat="46.47772" lon="6.79168"><ele>534.8</ele><time>2024-05-17T16:12:49Z</time></trkpt>
<trkpt lat="46.47775" lon="6.79161"><ele>534.6</ele><time>2024-05-17T16:12:50Z</time></trkpt>
<trkpt lat="46.47777" lon="6.79155"><ele>534.6</ele><time>2024-05-17T16:12:51Z</time></trkpt>
<trkpt lat="46.47779" lon="6.79148"><ele>534.6</ele><time>2024-05-17T16:12:52Z</time></trkpt>
<trkpt lat="46.4778" lon="6.79142"><ele>534.6</ele><time>2024-05-17T16:12:53Z</time></trkpt>
<trkpt lat="46.47783" lon="6.79115"><ele>534.6</ele><time>2024-05-17T16:12:58Z</time></trkpt>
<trkpt lat="46.47788" lon="6.79095"><ele>534</ele><time>2024-05-17T16:13:01Z</time></trkpt>
<trkpt lat="46.47791" lon="6.79085"><ele>533.4</ele><time>2024-05-17T16:13:02Z</time></trkpt>
<trkpt lat="46.47795" lon="6.79076"><ele>532</ele><time>2024-05-17T16:13:03Z</time></trkpt>
<trkpt lat="46.478" lon="6.79057"><ele>530.8</ele><time>2024-05-17T16:13:05Z</time></trkpt>
<trkpt lat="46.47801" lon="6.79048"><ele>530</ele><time>2024-05-17T16:13:06Z</time></trkpt>
<trkpt lat="46.47802" lon="6.79039"><ele>529.6</ele><time>2024-05-17T16:13:07Z</time></trkpt>
<trkpt lat="46.47801" lon="6.79032"><ele>529.4</ele><time>2024-05-17T16:13:08Z</time></trkpt>
<trkpt lat="46.47798" lon="6.79019"><ele>529.2</ele><time>2024-05-17T16:13:10Z</time></trkpt>
<trkpt lat="46.47795" lon="6.79009"><ele>529.2</ele><time>2024-05-17T16:13:12Z</time></trkpt>
<trkpt lat="46.47795" lon="6.78998"><ele>529</ele><time>2024-05-17T16:13:14Z</time></trkpt>
<trkpt lat="46.47795" lon="6.78992"><ele>529</ele><time>2024-05-17T16:13:15Z</time></trkpt>
<trkpt lat="46.47799" lon="6.78959"><ele>528.8</ele><time>2024-05-17T16:13:21Z</time></trkpt>
<trkpt lat="46.478" lon="6.78943"><ele>528.6</ele><time>2024-05-17T16:13:24Z</time></trkpt>
<trkpt lat="46.47804" lon="6.78919"><ele>528</ele><time>2024-05-17T16:13:28Z</time></trkpt>
<trkpt lat="46.47805" lon="6.78914"><ele>527.4</ele><time>2024-05-17T16:13:29Z</time></trkpt>
<trkpt lat="46.47807" lon="6.78903"><ele>526.2</ele><time>2024-05-17T16:13:32Z</time></trkpt>
<trkpt lat="46.47808" lon="6.789"><ele>526.2</ele><time>2024-05-17T16:13:33Z</time></trkpt>
<trkpt lat="46.47814" lon="6.78875"><ele>526.4</ele><time>2024-05-17T16:13:38Z</time></trkpt>
<trkpt lat="46.47825" lon="6.78845"><ele>527.2</ele><time>2024-05-17T16:13:44Z</time></trkpt>
<trkpt lat="46.47827" lon="6.7884"><ele>527.4</ele><time>2024-05-17T16:13:45Z</time></trkpt>
<trkpt lat="46.4783" lon="6.78829"><ele>527.4</ele><time>2024-05-17T16:13:47Z</time></trkpt>
<trkpt lat="46.47833" lon="6.78817"><ele>527.6</ele><time>2024-05-17T16:13:49Z</time></trkpt>
<trkpt lat="46.47833" lon="6.78807"><ele>527.8</ele><time>2024-05-17T16:13:51Z</time></trkpt>
<trkpt lat="46.47831" lon="6.78804"><ele>527.8</ele><time>2024-05-17T16:13:52Z</time></trkpt>
<trkpt lat="46.47827" lon="6.78807"><ele>527.8</ele><time>2024-05-17T16:13:54Z</time></trkpt>
<trkpt lat="46.47821" lon="6.78817"><ele>527.6</ele><time>2024-05-17T16:13:56Z</time></trkpt>
<trkpt lat="46.47817" lon="6.78823"><ele>527</ele><time>2024-05-17T16:13:57Z</time></trkpt>
<trkpt lat="46.47813" lon="6.7883"><ele>526</ele><time>2024-05-17T16:13:58Z</time></trkpt>
<trkpt lat="46.47809" lon="6.78836"><ele>524.8</ele><time>2024-05-17T16:13:59Z</time></trkpt>
<trkpt lat="46.47801" lon="6.78849"><ele>523.2</ele><time>2024-05-17T16:14:01Z</time></trkpt>
<trkpt lat="46.47795" lon="6.78862"><ele>521.4</ele><time>2024-05-17T16:14:03Z</time></trkpt>
<trkpt lat="46.47788" lon="6.78874"><ele>519.8</ele><time>2024-05-17T16:14:05Z</time></trkpt>
<trkpt lat="46.47785" lon="6.78879"><ele>518.6</ele><time>2024-05-17T16:14:06Z</time></trkpt>
<trkpt lat="46.47774" lon="6.78897"><ele>516.6</ele><time>2024-05-17T16:14:09Z</time></trkpt>
<trkpt lat="46.47765" lon="6.7891"><ele>514.8</ele><time>2024-05-17T16:14:11Z</time></trkpt>
<trkpt lat="46.47755" lon="6.78924"><ele>513</ele><time>2024-05-17T16:14:13Z</time></trkpt>
<trkpt lat="46.4775" lon="6.78933"><ele>511.4</ele><time>2024-05-17T16:14:14Z</time></trkpt>
<trkpt lat="46.47745" lon="6.78941"><ele>510.4</ele><time>2024-05-17T16:14:15Z</time></trkpt>
<trkpt lat="46.4774" lon="6.7895"><ele>509</ele><time>2024-05-17T16:14:16Z</time></trkpt>
<trkpt lat="46.47732" lon="6.78965"><ele>507.4</ele><time>2024-05-17T16:14:18Z</time></trkpt>
<trkpt lat="46.47728" lon="6.78973"><ele>506.6</ele><time>2024-05-17T16:14:19Z</time></trkpt>
<trkpt lat="46.47726" lon="6.78981"><ele>505.6</ele><time>2024-05-17T16:14:20Z</time></trkpt>
<trkpt lat="46.47723" lon="6.7899"><ele>504.2</ele><time>2024-05-17T16:14:21Z</time></trkpt>
<trkpt lat="46.47719" lon="6.78998"><ele>503.6</ele><time>2024-05-17T16:14:22Z</time></trkpt>
<trkpt lat="46.47716" lon="6.79005"><ele>502</ele><time>2024-05-17T16:14:23Z</time></trkpt>
<trkpt lat="46.47711" lon="6.79012"><ele>501.4</ele><time>2024-05-17T16:14:24Z</time></trkpt>
<trkpt lat="46.47707" lon="6.79018"><ele>500.8</ele><time>2024-05-17T16:14:25Z</time></trkpt>
<trkpt lat="46.47702" lon="6.79024"><ele>499.6</ele><time>2024-05-17T16:14:26Z</time></trkpt>
<trkpt lat="46.47693" lon="6.79037"><ele>497.4</ele><time>2024-05-17T16:14:28Z</time></trkpt>
<trkpt lat="46.47683" lon="6.79051"><ele>495.6</ele><time>2024-05-17T16:14:30Z</time></trkpt>
<trkpt lat="46.47678" lon="6.79058"><ele>494.4</ele><time>2024-05-17T16:14:31Z</time></trkpt>
<trkpt lat="46.47672" lon="6.79065"><ele>493</ele><time>2024-05-17T16:14:32Z</time></trkpt>
<trkpt lat="46.47659" lon="6.79077"><ele>491.6</ele><time>2024-05-17T16:14:34Z</time></trkpt>
<trkpt lat="46.47654" lon="6.79083"><ele>490.2</ele><time>2024-05-17T16:14:35Z</time></trkpt>
<trkpt lat="46.47649" lon="6.79087"><ele>489.2</ele><time>2024-05-17T16:14:36Z</time></trkpt>
<trkpt lat="46.4764" lon="6.79094"><ele>487.8</ele><time>2024-05-17T16:14:38Z</time></trkpt>
<trkpt lat="46.47632" lon="6.79102"><ele>486.6</ele><time>2024-05-17T16:14:40Z</time></trkpt>
<trkpt lat="46.47629" lon="6.79109"><ele>486.2</ele><time>2024-05-17T16:14:41Z</time></trkpt>
<trkpt lat="46.47626" lon="6.79115"><ele>485.2</ele><time>2024-05-17T16:14:42Z</time></trkpt>
<trkpt lat="46.47619" lon="6.79132"><ele>483.6</ele><time>2024-05-17T16:14:44Z</time></trkpt>
<trkpt lat="46.47615" lon="6.7914"><ele>482.8</ele><time>2024-05-17T16:14:45Z</time></trkpt>
<trkpt lat="46.4761" lon="6.79149"><ele>482</ele><time>2024-05-17T16:14:46Z</time></trkpt>
<trkpt lat="46.47595" lon="6.79173"><ele>480</ele><time>2024-05-17T16:14:49Z</time></trkpt>
<trkpt lat="46.47582" lon="6.79187"><ele>479</ele><time>2024-05-17T16:14:51Z</time></trkpt>
<trkpt lat="46.47575" lon="6.79193"><ele>477.4</ele><time>2024-05-17T16:14:52Z</time></trkpt>
<trkpt lat="46.47569" lon="6.79199"><ele>476</ele><time>2024-05-17T16:14:53Z</time></trkpt>
<trkpt lat="46.47557" lon="6.79211"><ele>472.6</ele><time>2024-05-17T16:14:55Z</time></trkpt>
<trkpt lat="46.47548" lon="6.79224"><ele>470.6</ele><time>2024-05-17T16:14:57Z</time></trkpt>
<trkpt lat="46.47542" lon="6.79229"><ele>469.6</ele><time>2024-05-17T16:14:58Z</time></trkpt>
<trkpt lat="46.47537" lon="6.79234"><ele>468.6</ele><time>2024-05-17T16:14:59Z</time></trkpt>
<trkpt lat="46.47531" lon="6.79239"><ele>467.4</ele><time>2024-05-17T16:15:00Z</time></trkpt>
<trkpt lat="46.47525" lon="6.79245"><ele>466</ele><time>2024-05-17T16:15:01Z</time></trkpt>
<trkpt lat="46.47519" lon="6.7925"><ele>464.2</ele><time>2024-05-17T16:15:02Z</time></trkpt>
<trkpt lat="46.47513" lon="6.79255"><ele>462.8</ele><time>2024-05-17T16:15:03Z</time></trkpt>
<trkpt lat="46.47507" lon="6.79261"><ele>461.6</ele><time>2024-05-17T16:15:04Z</time></trkpt>
<trkpt lat="46.47503" lon="6.79269"><ele>460.6</ele><time>2024-05-17T16:15:05Z</time></trkpt>
<trkpt lat="46.47501" lon="6.79279"><ele>459.2</ele><time>2024-05-17T16:15:06Z</time></trkpt>
<trkpt lat="46.47495" lon="6.79296"><ele>456.6</ele><time>2024-05-17T16:15:08Z</time></trkpt>
<trkpt lat="46.47491" lon="6.79302"><ele>455.2</ele><time>2024-05-17T16:15:09Z</time></trkpt>
<trkpt lat="46.47487" lon="6.79308"><ele>454</ele><time>2024-05-17T16:15:10Z</time></trkpt>
<trkpt lat="46.47483" lon="6.79311"><ele>453</ele><time>2024-05-17T16:15:11Z</time></trkpt>
<trkpt lat="46.47476" lon="6.79312"><ele>450.8</ele><time>2024-05-17T16:15:13Z</time></trkpt>
<trkpt lat="46.47475" lon="6.79304"><ele>450.2</ele><time>2024-05-17T16:15:15Z</time></trkpt>
<trkpt lat="46.4748" lon="6.79294"><ele>449.6</ele><time>2024-05-17T16:15:17Z</time></trkpt>
<trkpt lat="46.47485" lon="6.79283"><ele>449.4</ele><time>2024-05-17T16:15:19Z</time></trkpt>
<trkpt lat="46.47493" lon="6.79265"><ele>449.2</ele><time>2024-05-17T16:15:22Z</time></trkpt>
<trkpt lat="46.47498" lon="6.79247"><ele>449.2</ele><time>2024-05-17T16:15:25Z</time></trkpt>
<trkpt lat="46.47514" lon="6.792"><ele>449.4</ele><time>2024-05-17T16:15:33Z</time></trkpt>
<trkpt lat="46.47528" lon="6.79145"><ele>449.8</ele><time>2024-05-17T16:15:41Z</time></trkpt>
<trkpt lat="46.47542" lon="6.79104"><ele>450.4</ele><time>2024-05-17T16:15:48Z</time></trkpt>
<trkpt lat="46.47548" lon="6.79084"><ele>451</ele><time>2024-05-17T16:15:52Z</time></trkpt>
<trkpt lat="46.47553" lon="6.79072"><ele>451.4</ele><time>2024-05-17T16:15:55Z</time></trkpt>
<trkpt lat="46.47562" lon="6.79056"><ele>452</ele><time>2024-05-17T16:16:00Z</time></trkpt>
<trkpt lat="46.47563" lon="6.79053"><ele>452</ele><time>2024-05-17T16:16:01Z</time></trkpt>
<trkpt lat="46.47573" lon="6.7904"><ele>453</ele><time>2024-05-17T16:16:07Z</time></trkpt>
<trkpt lat="46.47576" lon="6.79036"><ele>453.4</ele><time>2024-05-17T16:16:09Z</time></trkpt>
<trkpt lat="46.47586" lon="6.79024"><ele>454.2</ele><time>2024-05-17T16:16:15Z</time></trkpt>
<trkpt lat="46.4759" lon="6.79018"><ele>454.4</ele><time>2024-05-17T16:16:18Z</time></trkpt>
<trkpt lat="46.47591" lon="6.79015"><ele>454.8</ele><time>2024-05-17T16:16:23Z</time></trkpt>
<trkpt lat="46.47591" lon="6.79016"><ele>454.6</ele><time>2024-05-17T16:16:30Z</time></trkpt>
<trkpt lat="46.47591" lon="6.79015"><ele>454.8</ele><time>2024-05-17T16:16:34Z</time></trkpt>
<trkpt lat="46.47591" lon="6.79015"><ele>454.6</ele><time>2024-05-17T16:16:38Z</time></trkpt>
<trkpt lat="46.47591" lon="6.79015"><ele>454.6</ele><time>2024-05-17T16:16:43Z</time></trkpt>
<trkpt lat="46.47591" lon="6.79017"><ele>454.6</ele><time>2024-05-17T16:16:47Z</time></trkpt>
<trkpt lat="46.4759" lon="6.79017"><ele>454.6</ele><time>2024-05-17T16:16:53Z</time></trkpt>
<trkpt lat="46.47592" lon="6.79015"><ele>454.6</ele><time>2024-05-17T16:17:00Z</time></trkpt>
<trkpt lat="46.47592" lon="6.79015"><ele>454.4</ele><time>2024-05-17T16:17:06Z</time></trkpt>
<trkpt lat="46.47592" lon="6.79015"><ele>454.4</ele><time>2024-05-17T16:17:07Z</time></trkpt>
<trkpt lat="46.47592" lon="6.79015"><ele>454.4</ele><time>2024-05-17T16:17:09Z</time></trkpt>
<trkpt lat="46.47592" lon="6.79014"><ele>454.6</ele><time>2024-05-17T16:17:11Z</time></trkpt>
<trkpt lat="46.47592" lon="6.79014"><ele>454.6</ele><time>2024-05-17T16:17:19Z</time></trkpt>
<trkpt lat="46.47593" lon="6.79013"><ele>454.6</ele><time>2024-05-17T16:17:21Z</time></trkpt>
<trkpt lat="46.47593" lon="6.79009"><ele>454.6</ele><time>2024-05-17T16:17:23Z</time></trkpt>
<trkpt lat="46.476" lon="6.78998"><ele>454.8</ele><time>2024-05-17T16:17:29Z</time></trkpt>
<trkpt lat="46.47602" lon="6.78994"><ele>454.8</ele><time>2024-05-17T16:17:31Z</time></trkpt>
<trkpt lat="46.47605" lon="6.78989"><ele>455.2</ele><time>2024-05-17T16:17:33Z</time></trkpt>
<trkpt lat="46.47606" lon="6.78987"><ele>455.2</ele><time>2024-05-17T16:17:34Z</time></trkpt>
<trkpt lat="46.47615" lon="6.78973"><ele>455.8</ele><time>2024-05-17T16:17:41Z</time></trkpt>
<trkpt lat="46.47618" lon="6.78968"><ele>456.2</ele><time>2024-05-17T16:17:44Z</time></trkpt>
<trkpt lat="46.47621" lon="6.78964"><ele>456.4</ele><time>2024-05-17T16:17:46Z</time></trkpt>
<trkpt lat="46.47628" lon="6.78949"><ele>457.2</ele><time>2024-05-17T16:17:52Z</time></trkpt>
<trkpt lat="46.47631" lon="6.78944"><ele>457.4</ele><time>2024-05-17T16:17:54Z</time></trkpt>
<trkpt lat="46.47634" lon="6.78938"><ele>457.8</ele><time>2024-05-17T16:17:57Z</time></trkpt>
<trkpt lat="46.4764" lon="6.78927"><ele>458.4</ele><time>2024-05-17T16:18:02Z</time></trkpt>
<trkpt lat="46.47645" lon="6.7892"><ele>458.6</ele><time>2024-05-17T16:18:05Z</time></trkpt>
<trkpt lat="46.47648" lon="6.78913"><ele>459</ele><time>2024-05-17T16:18:08Z</time></trkpt>
<trkpt lat="46.4765" lon="6.78905"><ele>459.6</ele><time>2024-05-17T16:18:11Z</time></trkpt>
<trkpt lat="46.47651" lon="6.78902"><ele>459.6</ele><time>2024-05-17T16:18:12Z</time></trkpt>
<trkpt lat="46.47655" lon="6.78881"><ele>460.4</ele><time>2024-05-17T16:18:19Z</time></trkpt>
<trkpt lat="46.47656" lon="6.78875"><ele>460.6</ele><time>2024-05-17T16:18:21Z</time></trkpt>
<trkpt lat="46.47657" lon="6.78868"><ele>460.8</ele><time>2024-05-17T16:18:23Z</time></trkpt>
<trkpt lat="46.47657" lon="6.78864"><ele>461</ele><time>2024-05-17T16:18:24Z</time></trkpt>
<trkpt lat="46.47658" lon="6.78861"><ele>461</ele><time>2024-05-17T16:18:25Z</time></trkpt>
<trkpt lat="46.47659" lon="6.78855"><ele>461.2</ele><time>2024-05-17T16:18:27Z</time></trkpt>
<trkpt lat="46.4766" lon="6.78851"><ele>461.4</ele><time>2024-05-17T16:18:28Z</time></trkpt>
<trkpt lat="46.47662" lon="6.78842"><ele>461.6</ele><time>2024-05-17T16:18:31Z</time></trkpt>
<trkpt lat="46.47662" lon="6.78838"><ele>461.8</ele><time>2024-05-17T16:18:32Z</time></trkpt>
<trkpt lat="46.47664" lon="6.78827"><ele>462</ele><time>2024-05-17T16:18:35Z</time></trkpt>
<trkpt lat="46.47669" lon="6.78804"><ele>463</ele><time>2024-05-17T16:18:42Z</time></trkpt>
<trkpt lat="46.4767" lon="6.78801"><ele>463</ele><time>2024-05-17T16:18:43Z</time></trkpt>
<trkpt lat="46.47677" lon="6.78769"><ele>464</ele><time>2024-05-17T16:18:52Z</time></trkpt>
<trkpt lat="46.47683" lon="6.78741"><ele>465</ele><time>2024-05-17T16:19:00Z</time></trkpt>
<trkpt lat="46.47684" lon="6.78737"><ele>465.2</ele><time>2024-05-17T16:19:01Z</time></trkpt>
<trkpt lat="46.47691" lon="6.78706"><ele>466.2</ele><time>2024-05-17T16:19:09Z</time></trkpt>
<trkpt lat="46.47694" lon="6.78694"><ele>466.4</ele><time>2024-05-17T16:19:12Z</time></trkpt>
<trkpt lat="46.47697" lon="6.78679"><ele>467.2</ele><time>2024-05-17T16:19:16Z</time></trkpt>
<trkpt lat="46.47703" lon="6.78657"><ele>468</ele><time>2024-05-17T16:19:22Z</time></trkpt>
<trkpt lat="46.47704" lon="6.78653"><ele>468.2</ele><time>2024-05-17T16:19:23Z</time></trkpt>
<trkpt lat="46.47707" lon="6.78624"><ele>469.4</ele><time>2024-05-17T16:19:31Z</time></trkpt>
<trkpt lat="46.47709" lon="6.78611"><ele>469.8</ele><time>2024-05-17T16:19:35Z</time></trkpt>
<trkpt lat="46.47709" lon="6.78601"><ele>470.4</ele><time>2024-05-17T16:19:38Z</time></trkpt>
<trkpt lat="46.47711" lon="6.78587"><ele>471.2</ele><time>2024-05-17T16:19:43Z</time></trkpt>
<trkpt lat="46.47713" lon="6.78576"><ele>471.6</ele><time>2024-05-17T16:19:47Z</time></trkpt>
<trkpt lat="46.47716" lon="6.78553"><ele>472.8</ele><time>2024-05-17T16:19:55Z</time></trkpt>
<trkpt lat="46.47716" lon="6.7855"><ele>472.8</ele><time>2024-05-17T16:19:56Z</time></trkpt>
<trkpt lat="46.4772" lon="6.78523"><ele>473.8</ele><time>2024-05-17T16:20:05Z</time></trkpt>
<trkpt lat="46.47725" lon="6.78502"><ele>474.8</ele><time>2024-05-17T16:20:12Z</time></trkpt>
<trkpt lat="46.47725" lon="6.78499"><ele>475</ele><time>2024-05-17T16:20:13Z</time></trkpt>
<trkpt lat="46.47732" lon="6.78479"><ele>476</ele><time>2024-05-17T16:20:20Z</time></trkpt>
<trkpt lat="46.47733" lon="6.78473"><ele>476.4</ele><time>2024-05-17T16:20:22Z</time></trkpt>
<trkpt lat="46.47739" lon="6.78455"><ele>477.2</ele><time>2024-05-17T16:20:28Z</time></trkpt>
<trkpt lat="46.47746" lon="6.78438"><ele>478</ele><time>2024-05-17T16:20:34Z</time></trkpt>
<trkpt lat="46.47748" lon="6.78432"><ele>478.4</ele><time>2024-05-17T16:20:36Z</time></trkpt>
<trkpt lat="46.4775" lon="6.78425"><ele>478.4</ele><time>2024-05-17T16:20:38Z</time></trkpt>
<trkpt lat="46.47754" lon="6.78413"><ele>479.2</ele><time>2024-05-17T16:20:42Z</time></trkpt>
<trkpt lat="46.47756" lon="6.78407"><ele>479.4</ele><time>2024-05-17T16:20:44Z</time></trkpt>
<trkpt lat="46.47764" lon="6.78385"><ele>480.4</ele><time>2024-05-17T16:20:51Z</time></trkpt>
<trkpt lat="46.47767" lon="6.78378"><ele>480.6</ele><time>2024-05-17T16:20:53Z</time></trkpt>
<trkpt lat="46.47781" lon="6.78347"><ele>481.6</ele><time>2024-05-17T16:21:02Z</time></trkpt>
<trkpt lat="46.47782" lon="6.78344"><ele>481.6</ele><time>2024-05-17T16:21:03Z</time></trkpt>
<trkpt lat="46.47794" lon="6.78315"><ele>482.6</ele><time>2024-05-17T16:21:11Z</time></trkpt>
<trkpt lat="46.47801" lon="6.78298"><ele>483.2</ele><time>2024-05-17T16:21:16Z</time></trkpt>
<trkpt lat="46.47809" lon="6.7828"><ele>483.8</ele><time>2024-05-17T16:21:21Z</time></trkpt>
<trkpt lat="46.47818" lon="6.78263"><ele>484.8</ele><time>2024-05-17T16:21:26Z</time></trkpt>
<trkpt lat="46.47821" lon="6.78257"><ele>485</ele><time>2024-05-17T16:21:28Z</time></trkpt>
<trkpt lat="46.4783" lon="6.7824"><ele>486.2</ele><time>2024-05-17T16:21:34Z</time></trkpt>
<trkpt lat="46.4784" lon="6.78219"><ele>487.4</ele><time>2024-05-17T16:21:41Z</time></trkpt>
<trkpt lat="46.47845" lon="6.78206"><ele>488</ele><time>2024-05-17T16:21:45Z</time></trkpt>
<trkpt lat="46.47847" lon="6.78195"><ele>488.4</ele><time>2024-05-17T16:21:48Z</time></trkpt>
<trkpt lat="46.47847" lon="6.78183"><ele>488.8</ele><time>2024-05-17T16:21:51Z</time></trkpt>
<trkpt lat="46.47846" lon="6.7818"><ele>489</ele><time>2024-05-17T16:21:52Z</time></trkpt>
<trkpt lat="46.47844" lon="6.78166"><ele>489.4</ele><time>2024-05-17T16:21:56Z</time></trkpt>
<trkpt lat="46.4784" lon="6.78153"><ele>490.2</ele><time>2024-05-17T16:22:00Z</time></trkpt>
<trkpt lat="46.47837" lon="6.78143"><ele>490.6</ele><time>2024-05-17T16:22:03Z</time></trkpt>
<trkpt lat="46.47834" lon="6.78131"><ele>491.4</ele><time>2024-05-17T16:22:08Z</time></trkpt>
<trkpt lat="46.47833" lon="6.78129"><ele>491.6</ele><time>2024-05-17T16:22:09Z</time></trkpt>
<trkpt lat="46.4783" lon="6.78122"><ele>492</ele><time>2024-05-17T16:22:14Z</time></trkpt>
<trkpt lat="46.47823" lon="6.78106"><ele>491.4</ele><time>2024-05-17T16:22:19Z</time></trkpt>
<trkpt lat="46.47817" lon="6.78097"><ele>490.4</ele><time>2024-05-17T16:22:21Z</time></trkpt>
<trkpt lat="46.47813" lon="6.78092"><ele>489.2</ele><time>2024-05-17T16:22:22Z</time></trkpt>
<trkpt lat="46.47809" lon="6.78086"><ele>488.6</ele><time>2024-05-17T16:22:23Z</time></trkpt>
<trkpt lat="46.47805" lon="6.7808"><ele>487.2</ele><time>2024-05-17T16:22:24Z</time></trkpt>
<trkpt lat="46.47798" lon="6.78069"><ele>484.6</ele><time>2024-05-17T16:22:26Z</time></trkpt>
<trkpt lat="46.4779" lon="6.78061"><ele>483</ele><time>2024-05-17T16:22:28Z</time></trkpt>
<trkpt lat="46.47786" lon="6.78056"><ele>482.4</ele><time>2024-05-17T16:22:29Z</time></trkpt>
<trkpt lat="46.47784" lon="6.7805"><ele>481</ele><time>2024-05-17T16:22:30Z</time></trkpt>
<trkpt lat="46.47781" lon="6.78044"><ele>479.8</ele><time>2024-05-17T16:22:31Z</time></trkpt>
<trkpt lat="46.47778" lon="6.78028"><ele>478.6</ele><time>2024-05-17T16:22:33Z</time></trkpt>
<trkpt lat="46.47776" lon="6.7802"><ele>477.2</ele><time>2024-05-17T16:22:34Z</time></trkpt>
<trkpt lat="46.47776" lon="6.78012"><ele>476.4</ele><time>2024-05-17T16:22:35Z</time></trkpt>
<trkpt lat="46.47775" lon="6.78004"><ele>475</ele><time>2024-05-17T16:22:36Z</time></trkpt>
<trkpt lat="46.47775" lon="6.77995"><ele>473.8</ele><time>2024-05-17T16:22:37Z</time></trkpt>
<trkpt lat="46.47774" lon="6.77986"><ele>472.8</ele><time>2024-05-17T16:22:38Z</time></trkpt>
<trkpt lat="46.47773" lon="6.77976"><ele>471.4</ele><time>2024-05-17T16:22:39Z</time></trkpt>
<trkpt lat="46.47769" lon="6.77957"><ele>468.6</ele><time>2024-05-17T16:22:41Z</time></trkpt>
<trkpt lat="46.47765" lon="6.77948"><ele>468</ele><time>2024-05-17T16:22:42Z</time></trkpt>
<trkpt lat="46.47761" lon="6.7794"><ele>467.2</ele><time>2024-05-17T16:22:43Z</time></trkpt>
<trkpt lat="46.47757" lon="6.77932"><ele>466</ele><time>2024-05-17T16:22:44Z</time></trkpt>
<trkpt lat="46.47749" lon="6.77918"><ele>464.2</ele><time>2024-05-17T16:22:46Z</time></trkpt>
<trkpt lat="46.47746" lon="6.77911"><ele>463.4</ele><time>2024-05-17T16:22:47Z</time></trkpt>
<trkpt lat="46.47742" lon="6.77905"><ele>462.8</ele><time>2024-05-17T16:22:48Z</time></trkpt>
<trkpt lat="46.47737" lon="6.77895"><ele>461.6</ele><time>2024-05-17T16:22:50Z</time></trkpt>
<trkpt lat="46.47734" lon="6.77891"><ele>460.8</ele><time>2024-05-17T16:22:51Z</time></trkpt>
<trkpt lat="46.47729" lon="6.77885"><ele>460.6</ele><time>2024-05-17T16:22:53Z</time></trkpt>
<trkpt lat="46.4773" lon="6.77879"><ele>459.6</ele><time>2024-05-17T16:22:56Z</time></trkpt>
<trkpt lat="46.4773" lon="6.77878"><ele>459.6</ele><time>2024-05-17T16:22:57Z</time></trkpt>
<trkpt lat="46.47732" lon="6.77876"><ele>459.4</ele><time>2024-05-17T16:22:59Z</time></trkpt>
<trkpt lat="46.47733" lon="6.77875"><ele>459.6</ele><time>2024-05-17T16:23:01Z</time></trkpt>
<trkpt lat="46.47738" lon="6.77867"><ele>460.6</ele><time>2024-05-17T16:23:06Z</time></trkpt>
<trkpt lat="46.47738" lon="6.77866"><ele>461.2</ele><time>2024-05-17T16:23:07Z</time></trkpt>
<trkpt lat="46.47738" lon="6.77863"><ele>461.6</ele><time>2024-05-17T16:23:09Z</time></trkpt>
<trkpt lat="46.47738" lon="6.77862"><ele>461.8</ele><time>2024-05-17T16:23:10Z</time></trkpt>
<trkpt lat="46.47738" lon="6.77857"><ele>462.2</ele><time>2024-05-17T16:23:13Z</time></trkpt>
<trkpt lat="46.47739" lon="6.77853"><ele>462.8</ele><time>2024-05-17T16:23:15Z</time></trkpt>
<trkpt lat="46.4774" lon="6.7785"><ele>463.2</ele><time>2024-05-17T16:23:17Z</time></trkpt>
<trkpt lat="46.47739" lon="6.77846"><ele>463.8</ele><time>2024-05-17T16:23:19Z</time></trkpt>
<trkpt lat="46.47738" lon="6.77842"><ele>464.4</ele><time>2024-05-17T16:23:21Z</time></trkpt>
<trkpt lat="46.47737" lon="6.7784"><ele>465</ele><time>2024-05-17T16:23:23Z</time></trkpt>
<trkpt lat="46.47735" lon="6.77835"><ele>466.2</ele><time>2024-05-17T16:23:27Z</time></trkpt>
<trkpt lat="46.47734" lon="6.77834"><ele>466.4</ele><time>2024-05-17T16:23:28Z</time></trkpt>
<trkpt lat="46.47731" lon="6.77829"><ele>467.2</ele><time>2024-05-17T16:23:32Z</time></trkpt>
<trkpt lat="46.47728" lon="6.77826"><ele>468.4</ele><time>2024-05-17T16:23:36Z</time></trkpt>
<trkpt lat="46.47727" lon="6.77824"><ele>468.6</ele><time>2024-05-17T16:23:37Z</time></trkpt>
<trkpt lat="46.47724" lon="6.77819"><ele>469.4</ele><time>2024-05-17T16:23:42Z</time></trkpt>
<trkpt lat="46.47722" lon="6.77817"><ele>470</ele><time>2024-05-17T16:23:44Z</time></trkpt>
<trkpt lat="46.47721" lon="6.77815"><ele>470.4</ele><time>2024-05-17T16:23:46Z</time></trkpt>
<trkpt lat="46.4772" lon="6.77813"><ele>470.6</ele><time>2024-05-17T16:23:47Z</time></trkpt>
<trkpt lat="46.47719" lon="6.77811"><ele>471</ele><time>2024-05-17T16:23:49Z</time></trkpt>
<trkpt lat="46.47718" lon="6.77806"><ele>471.6</ele><time>2024-05-17T16:23:53Z</time></trkpt>
<trkpt lat="46.47717" lon="6.77805"><ele>471.8</ele><time>2024-05-17T16:23:54Z</time></trkpt>
<trkpt lat="46.47713" lon="6.77799"><ele>473</ele><time>2024-05-17T16:23:59Z</time></trkpt>
<trkpt lat="46.47713" lon="6.77797"><ele>473.2</ele><time>2024-05-17T16:24:00Z</time></trkpt>
<trkpt lat="46.47711" lon="6.77791"><ele>474</ele><time>2024-05-17T16:24:05Z</time></trkpt>
<trkpt lat="46.47711" lon="6.7779"><ele>474.4</ele><time>2024-05-17T16:24:06Z</time></trkpt>
<trkpt lat="46.4771" lon="6.77789"><ele>474.6</ele><time>2024-05-17T16:24:07Z</time></trkpt>
<trkpt lat="46.47707" lon="6.77786"><ele>474.8</ele><time>2024-05-17T16:24:12Z</time></trkpt>
<trkpt lat="46.47705" lon="6.77785"><ele>474.8</ele><time>2024-05-17T16:24:15Z</time></trkpt>
<trkpt lat="46.47704" lon="6.77785"><ele>474.8</ele><time>2024-05-17T16:24:18Z</time></trkpt>
<trkpt lat="46.47704" lon="6.77784"><ele>474.8</ele><time>2024-05-17T16:24:28Z</time></trkpt>
<trkpt lat="46.47705" lon="6.77784"><ele>474.8</ele><time>2024-05-17T16:24:32Z</time></trkpt>
<trkpt lat="46.47705" lon="6.77784"><ele>474.8</ele><time>2024-05-17T16:24:38Z</time></trkpt>
<trkpt lat="46.47705" lon="6.77784"><ele>474.6</ele><time>2024-05-17T16:24:39Z</time></trkpt>
<trkpt lat="46.47704" lon="6.77784"><ele>474.8</ele><time>2024-05-17T16:24:44Z</time></trkpt>
<trkpt lat="46.47704" lon="6.77784"><ele>474.8</ele><time>2024-05-17T16:24:47Z</time></trkpt>
<trkpt lat="46.47704" lon="6.77783"><ele>474.6</ele><time>2024-05-17T16:24:53Z</time></trkpt>
<trkpt lat="46.47704" lon="6.77783"><ele>474.6</ele><time>2024-05-17T16:24:56Z</time></trkpt>
<trkpt lat="46.47704" lon="6.77784"><ele>474.6</ele><time>2024-05-17T16:24:58Z</time></trkpt>
<trkpt lat="46.47704" lon="6.77784"><ele>474.6</ele><time>2024-05-17T16:25:00Z</time></trkpt>
<trkpt lat="46.47703" lon="6.77786"><ele>474.6</ele><time>2024-05-17T16:25:03Z</time></trkpt>
<trkpt lat="46.47702" lon="6.77789"><ele>474.6</ele><time>2024-05-17T16:25:05Z</time></trkpt>
<trkpt lat="46.47706" lon="6.77788"><ele>474.6</ele><time>2024-05-17T16:25:09Z</time></trkpt>
<trkpt lat="46.47712" lon="6.77788"><ele>474.8</ele><time>2024-05-17T16:25:14Z</time></trkpt>
<trkpt lat="46.47713" lon="6.77791"><ele>474.8</ele><time>2024-05-17T16:25:15Z</time></trkpt>
<trkpt lat="46.47718" lon="6.77807"><ele>473.6</ele><time>2024-05-17T16:25:19Z</time></trkpt>
<trkpt lat="46.4772" lon="6.77811"><ele>473</ele><time>2024-05-17T16:25:20Z</time></trkpt>
<trkpt lat="46.47725" lon="6.7782"><ele>471.4</ele><time>2024-05-17T16:25:22Z</time></trkpt>
<trkpt lat="46.47729" lon="6.77827"><ele>470</ele><time>2024-05-17T16:25:24Z</time></trkpt>
<trkpt lat="46.47732" lon="6.77831"><ele>469.4</ele><time>2024-05-17T16:25:25Z</time></trkpt>
<trkpt lat="46.47735" lon="6.77835"><ele>468.8</ele><time>2024-05-17T16:25:26Z</time></trkpt>
<trkpt lat="46.47739" lon="6.77844"><ele>467.4</ele><time>2024-05-17T16:25:28Z</time></trkpt>
<trkpt lat="46.47738" lon="6.77855"><ele>465.6</ele><time>2024-05-17T16:25:30Z</time></trkpt>
<trkpt lat="46.47739" lon="6.7786"><ele>464.4</ele><time>2024-05-17T16:25:31Z</time></trkpt>
<trkpt lat="46.47736" lon="6.77868"><ele>462.8</ele><time>2024-05-17T16:25:33Z</time></trkpt>
<trkpt lat="46.47733" lon="6.7787"><ele>461.8</ele><time>2024-05-17T16:25:34Z</time></trkpt>
<trkpt lat="46.4773" lon="6.77872"><ele>460.6</ele><time>2024-05-17T16:25:35Z</time></trkpt>
<trkpt lat="46.47726" lon="6.77874"><ele>459.4</ele><time>2024-05-17T16:25:37Z</time></trkpt>
<trkpt lat="46.47718" lon="6.77874"><ele>458.8</ele><time>2024-05-17T16:25:39Z</time></trkpt>
<trkpt lat="46.47713" lon="6.77873"><ele>458</ele><time>2024-05-17T16:25:40Z</time></trkpt>
<trkpt lat="46.47704" lon="6.77874"><ele>456.8</ele><time>2024-05-17T16:25:42Z</time></trkpt>
<trkpt lat="46.47695" lon="6.77874"><ele>455.6</ele><time>2024-05-17T16:25:44Z</time></trkpt>
<trkpt lat="46.4768" lon="6.7787"><ele>454.6</ele><time>2024-05-17T16:25:47Z</time></trkpt>
<trkpt lat="46.47676" lon="6.77868"><ele>454.2</ele><time>2024-05-17T16:25:48Z</time></trkpt>
<trkpt lat="46.47671" lon="6.77868"><ele>453.4</ele><time>2024-05-17T16:25:49Z</time></trkpt>
<trkpt lat="46.47666" lon="6.77869"><ele>453</ele><time>2024-05-17T16:25:50Z</time></trkpt>
<trkpt lat="46.47662" lon="6.7787"><ele>452.2</ele><time>2024-05-17T16:25:51Z</time></trkpt>
<trkpt lat="46.47657" lon="6.7787"><ele>451.6</ele><time>2024-05-17T16:25:52Z</time></trkpt>
<trkpt lat="46.47653" lon="6.7787"><ele>451</ele><time>2024-05-17T16:25:53Z</time></trkpt>
<trkpt lat="46.47649" lon="6.7787"><ele>450.6</ele><time>2024-05-17T16:25:54Z</time></trkpt>
<trkpt lat="46.47639" lon="6.77862"><ele>450</ele><time>2024-05-17T16:25:57Z</time></trkpt>
<trkpt lat="46.47635" lon="6.7785"><ele>449.2</ele><time>2024-05-17T16:25:59Z</time></trkpt>
<trkpt lat="46.47634" lon="6.77843"><ele>448.8</ele><time>2024-05-17T16:26:00Z</time></trkpt>
<trkpt lat="46.47632" lon="6.77835"><ele>448</ele><time>2024-05-17T16:26:01Z</time></trkpt>
<trkpt lat="46.47629" lon="6.77827"><ele>446.8</ele><time>2024-05-17T16:26:02Z</time></trkpt>
<trkpt lat="46.47625" lon="6.77821"><ele>445.2</ele><time>2024-05-17T16:26:03Z</time></trkpt>
<trkpt lat="46.4762" lon="6.77815"><ele>444</ele><time>2024-05-17T16:26:04Z</time></trkpt>
<trkpt lat="46.47613" lon="6.77801"><ele>442.2</ele><time>2024-05-17T16:26:06Z</time></trkpt>
<trkpt lat="46.47602" lon="6.77785"><ele>441.2</ele><time>2024-05-17T16:26:09Z</time></trkpt>
<trkpt lat="46.47599" lon="6.77777"><ele>441</ele><time>2024-05-17T16:26:11Z</time></trkpt>
<trkpt lat="46.476" lon="6.77772"><ele>440.8</ele><time>2024-05-17T16:26:12Z</time></trkpt>
<trkpt lat="46.47602" lon="6.77767"><ele>440.6</ele><time>2024-05-17T16:26:13Z</time></trkpt>
<trkpt lat="46.47606" lon="6.77761"><ele>440.2</ele><time>2024-05-17T16:26:14Z</time></trkpt>
<trkpt lat="46.4761" lon="6.77756"><ele>439.6</ele><time>2024-05-17T16:26:15Z</time></trkpt>
<trkpt lat="46.47615" lon="6.77751"><ele>439</ele><time>2024-05-17T16:26:16Z</time></trkpt>
<trkpt lat="46.47626" lon="6.77735"><ele>438.6</ele><time>2024-05-17T16:26:19Z</time></trkpt>
<trkpt lat="46.47631" lon="6.77723"><ele>438.6</ele><time>2024-05-17T16:26:21Z</time></trkpt>
<trkpt lat="46.47638" lon="6.77716"><ele>438.8</ele><time>2024-05-17T16:26:23Z</time></trkpt>
<trkpt lat="46.47647" lon="6.77714"><ele>439.6</ele><time>2024-05-17T16:26:27Z</time></trkpt>
<trkpt lat="46.47654" lon="6.77704"><ele>440</ele><time>2024-05-17T16:26:32Z</time></trkpt>
<trkpt lat="46.47655" lon="6.77702"><ele>440.4</ele><time>2024-05-17T16:26:33Z</time></trkpt>
<trkpt lat="46.47663" lon="6.77692"><ele>441.2</ele><time>2024-05-17T16:26:39Z</time></trkpt>
<trkpt lat="46.47665" lon="6.7769"><ele>441.4</ele><time>2024-05-17T16:26:40Z</time></trkpt>
<trkpt lat="46.47672" lon="6.77687"><ele>442.2</ele><time>2024-05-17T16:26:45Z</time></trkpt>
<trkpt lat="46.47675" lon="6.77685"><ele>442.4</ele><time>2024-05-17T16:26:47Z</time></trkpt>
<trkpt lat="46.47682" lon="6.77677"><ele>443</ele><time>2024-05-17T16:26:52Z</time></trkpt>
<trkpt lat="46.47684" lon="6.77674"><ele>443.4</ele><time>2024-05-17T16:26:54Z</time></trkpt>
<trkpt lat="46.47685" lon="6.77673"><ele>443.6</ele><time>2024-05-17T16:26:55Z</time></trkpt>
<trkpt lat="46.47687" lon="6.77669"><ele>444</ele><time>2024-05-17T16:26:58Z</time></trkpt>
<trkpt lat="46.47687" lon="6.77667"><ele>444.6</ele><time>2024-05-17T16:27:00Z</time></trkpt>
<trkpt lat="46.47688" lon="6.77664"><ele>444.8</ele><time>2024-05-17T16:27:02Z</time></trkpt>
<trkpt lat="46.4769" lon="6.77656"><ele>445.6</ele><time>2024-05-17T16:27:07Z</time></trkpt>
<trkpt lat="46.47692" lon="6.77651"><ele>446</ele><time>2024-05-17T16:27:10Z</time></trkpt>
<trkpt lat="46.47693" lon="6.77645"><ele>446.6</ele><time>2024-05-17T16:27:14Z</time></trkpt>
<trkpt lat="46.47695" lon="6.77639"><ele>447.2</ele><time>2024-05-17T16:27:18Z</time></trkpt>
<trkpt lat="46.47694" lon="6.77634"><ele>447.6</ele><time>2024-05-17T16:27:21Z</time></trkpt>
<trkpt lat="46.47694" lon="6.77632"><ele>447.8</ele><time>2024-05-17T16:27:22Z</time></trkpt>
<trkpt lat="46.47695" lon="6.77631"><ele>448</ele><time>2024-05-17T16:27:23Z</time></trkpt>
<trkpt lat="46.47695" lon="6.7763"><ele>448</ele><time>2024-05-17T16:27:24Z</time></trkpt>
<trkpt lat="46.47697" lon="6.77618"><ele>448.8</ele><time>2024-05-17T16:27:31Z</time></trkpt>
<trkpt lat="46.47698" lon="6.77616"><ele>449</ele><time>2024-05-17T16:27:32Z</time></trkpt>
<trkpt lat="46.47701" lon="6.77602"><ele>449.8</ele><time>2024-05-17T16:27:40Z</time></trkpt>
<trkpt lat="46.47703" lon="6.77595"><ele>450.4</ele><time>2024-05-17T16:27:45Z</time></trkpt>
<trkpt lat="46.47706" lon="6.77588"><ele>450.8</ele><time>2024-05-17T16:27:49Z</time></trkpt>
<trkpt lat="46.47708" lon="6.77584"><ele>451.4</ele><time>2024-05-17T16:27:52Z</time></trkpt>
<trkpt lat="46.4771" lon="6.77578"><ele>451.8</ele><time>2024-05-17T16:27:57Z</time></trkpt>
<trkpt lat="46.47715" lon="6.7757"><ele>453</ele><time>2024-05-17T16:28:03Z</time></trkpt>
<trkpt lat="46.47715" lon="6.77567"><ele>453.2</ele><time>2024-05-17T16:28:05Z</time></trkpt>
<trkpt lat="46.47716" lon="6.77558"><ele>454</ele><time>2024-05-17T16:28:11Z</time></trkpt>
<trkpt lat="46.47716" lon="6.77557"><ele>454</ele><time>2024-05-17T16:28:12Z</time></trkpt>
<trkpt lat="46.47719" lon="6.77549"><ele>455</ele><time>2024-05-17T16:28:19Z</time></trkpt>
<trkpt lat="46.47719" lon="6.77549"><ele>455.2</ele><time>2024-05-17T16:28:20Z</time></trkpt>
<trkpt lat="46.4772" lon="6.7754"><ele>456</ele><time>2024-05-17T16:28:26Z</time></trkpt>
<trkpt lat="46.4772" lon="6.77539"><ele>456.2</ele><time>2024-05-17T16:28:27Z</time></trkpt>
<trkpt lat="46.47721" lon="6.77537"><ele>456.4</ele><time>2024-05-17T16:28:29Z</time></trkpt>
<trkpt lat="46.47721" lon="6.77532"><ele>456.8</ele><time>2024-05-17T16:28:32Z</time></trkpt>
<trkpt lat="46.47722" lon="6.7753"><ele>457</ele><time>2024-05-17T16:28:34Z</time></trkpt>
<trkpt lat="46.47722" lon="6.77529"><ele>457.2</ele><time>2024-05-17T16:28:35Z</time></trkpt>
<trkpt lat="46.47722" lon="6.77525"><ele>457.6</ele><time>2024-05-17T16:28:38Z</time></trkpt>
<trkpt lat="46.47723" lon="6.77521"><ele>458</ele><time>2024-05-17T16:28:41Z</time></trkpt>
<trkpt lat="46.47723" lon="6.77518"><ele>458.2</ele><time>2024-05-17T16:28:43Z</time></trkpt>
<trkpt lat="46.47723" lon="6.77517"><ele>458.4</ele><time>2024-05-17T16:28:44Z</time></trkpt>
<trkpt lat="46.47722" lon="6.77509"><ele>459.2</ele><time>2024-05-17T16:28:50Z</time></trkpt>
<trkpt lat="46.47723" lon="6.77499"><ele>460</ele><time>2024-05-17T16:28:57Z</time></trkpt>
<trkpt lat="46.47723" lon="6.77497"><ele>460.4</ele><time>2024-05-17T16:28:59Z</time></trkpt>
<trkpt lat="46.47719" lon="6.77492"><ele>461.2</ele><time>2024-05-17T16:29:04Z</time></trkpt>
<trkpt lat="46.47717" lon="6.77491"><ele>461.4</ele><time>2024-05-17T16:29:06Z</time></trkpt>
<trkpt lat="46.47713" lon="6.7749"><ele>462</ele><time>2024-05-17T16:29:10Z</time></trkpt>
<trkpt lat="46.47711" lon="6.77491"><ele>462.2</ele><time>2024-05-17T16:29:12Z</time></trkpt>
<trkpt lat="46.47709" lon="6.77491"><ele>462.4</ele><time>2024-05-17T16:29:14Z</time></trkpt>
<trkpt lat="46.47704" lon="6.7749"><ele>462.8</ele><time>2024-05-17T16:29:17Z</time></trkpt>
<trkpt lat="46.47696" lon="6.77487"><ele>463.6</ele><time>2024-05-17T16:29:23Z</time></trkpt>
<trkpt lat="46.47693" lon="6.77487"><ele>463.8</ele><time>2024-05-17T16:29:25Z</time></trkpt>
<trkpt lat="46.47682" lon="6.77486"><ele>464.6</ele><time>2024-05-17T16:29:32Z</time></trkpt>
<trkpt lat="46.4768" lon="6.77486"><ele>464.8</ele><time>2024-05-17T16:29:33Z</time></trkpt>
<trkpt lat="46.47668" lon="6.77481"><ele>465.4</ele><time>2024-05-17T16:29:41Z</time></trkpt>
<trkpt lat="46.47665" lon="6.77479"><ele>465.6</ele><time>2024-05-17T16:29:43Z</time></trkpt>
<trkpt lat="46.47657" lon="6.77476"><ele>466.6</ele><time>2024-05-17T16:29:49Z</time></trkpt>
<trkpt lat="46.47654" lon="6.77474"><ele>466.8</ele><time>2024-05-17T16:29:51Z</time></trkpt>
<trkpt lat="46.47651" lon="6.77469"><ele>467.2</ele><time>2024-05-17T16:29:55Z</time></trkpt>
<trkpt lat="46.47652" lon="6.77457"><ele>467.2</ele><time>2024-05-17T16:30:00Z</time></trkpt>
<trkpt lat="46.47657" lon="6.77439"><ele>466.4</ele><time>2024-05-17T16:30:05Z</time></trkpt>
<trkpt lat="46.47665" lon="6.77412"><ele>466.2</ele><time>2024-05-17T16:30:11Z</time></trkpt>
<trkpt lat="46.47676" lon="6.77378"><ele>465.6</ele><time>2024-05-17T16:30:17Z</time></trkpt>
<trkpt lat="46.47678" lon="6.77372"><ele>465.4</ele><time>2024-05-17T16:30:18Z</time></trkpt>
<trkpt lat="46.47681" lon="6.77365"><ele>465.2</ele><time>2024-05-17T16:30:19Z</time></trkpt>
<trkpt lat="46.47684" lon="6.77359"><ele>464.8</ele><time>2024-05-17T16:30:20Z</time></trkpt>
<trkpt lat="46.47687" lon="6.77352"><ele>464.6</ele><time>2024-05-17T16:30:21Z</time></trkpt>
<trkpt lat="46.47697" lon="6.7733"><ele>464</ele><time>2024-05-17T16:30:24Z</time></trkpt>
<trkpt lat="46.477" lon="6.77321"><ele>463.4</ele><time>2024-05-17T16:30:25Z</time></trkpt>
<trkpt lat="46.47706" lon="6.773"><ele>462.8</ele><time>2024-05-17T16:30:27Z</time></trkpt>
<trkpt lat="46.47709" lon="6.77289"><ele>461.6</ele><time>2024-05-17T16:30:28Z</time></trkpt>
<trkpt lat="46.47713" lon="6.77267"><ele>459.4</ele><time>2024-05-17T16:30:30Z</time></trkpt>
<trkpt lat="46.47717" lon="6.77255"><ele>458.6</ele><time>2024-05-17T16:30:31Z</time></trkpt>
<trkpt lat="46.47721" lon="6.77242"><ele>457.6</ele><time>2024-05-17T16:30:32Z</time></trkpt>
<trkpt lat="46.47725" lon="6.7723"><ele>456.4</ele><time>2024-05-17T16:30:33Z</time></trkpt>
<trkpt lat="46.47728" lon="6.77218"><ele>455</ele><time>2024-05-17T16:30:34Z</time></trkpt>
<trkpt lat="46.47733" lon="6.77196"><ele>453.6</ele><time>2024-05-17T16:30:36Z</time></trkpt>
<trkpt lat="46.47734" lon="6.77186"><ele>453.2</ele><time>2024-05-17T16:30:37Z</time></trkpt>
<trkpt lat="46.47743" lon="6.77161"><ele>452.6</ele><time>2024-05-17T16:30:40Z</time></trkpt>
<trkpt lat="46.47747" lon="6.77155"><ele>452.4</ele><time>2024-05-17T16:30:41Z</time></trkpt>
<trkpt lat="46.47752" lon="6.77149"><ele>451.8</ele><time>2024-05-17T16:30:42Z</time></trkpt>
<trkpt lat="46.47769" lon="6.7713"><ele>452.2</ele><time>2024-05-17T16:30:46Z</time></trkpt>
<trkpt lat="46.47778" lon="6.77114"><ele>453.8</ele><time>2024-05-17T16:30:50Z</time></trkpt>
<trkpt lat="46.47779" lon="6.7711"><ele>454</ele><time>2024-05-17T16:30:51Z</time></trkpt>
<trkpt lat="46.47785" lon="6.77084"><ele>454.4</ele><time>2024-05-17T16:30:57Z</time></trkpt>
<trkpt lat="46.47787" lon="6.77073"><ele>454</ele><time>2024-05-17T16:30:59Z</time></trkpt>
<trkpt lat="46.4779" lon="6.77055"><ele>453.6</ele><time>2024-05-17T16:31:02Z</time></trkpt>
<trkpt lat="46.47792" lon="6.7705"><ele>453.4</ele><time>2024-05-17T16:31:03Z</time></trkpt>
<trkpt lat="46.47796" lon="6.77038"><ele>453.2</ele><time>2024-05-17T16:31:05Z</time></trkpt>
<trkpt lat="46.478" lon="6.77016"><ele>452.8</ele><time>2024-05-17T16:31:08Z</time></trkpt>
<trkpt lat="46.47802" lon="6.77008"><ele>452.6</ele><time>2024-05-17T16:31:09Z</time></trkpt>
<trkpt lat="46.47807" lon="6.76993"><ele>452</ele><time>2024-05-17T16:31:11Z</time></trkpt>
<trkpt lat="46.47811" lon="6.76985"><ele>451.4</ele><time>2024-05-17T16:31:12Z</time></trkpt>
<trkpt lat="46.47822" lon="6.76958"><ele>449.6</ele><time>2024-05-17T16:31:15Z</time></trkpt>
<trkpt lat="46.47828" lon="6.76938"><ele>448.6</ele><time>2024-05-17T16:31:17Z</time></trkpt>
<trkpt lat="46.47831" lon="6.76927"><ele>448.2</ele><time>2024-05-17T16:31:18Z</time></trkpt>
<trkpt lat="46.47836" lon="6.76903"><ele>447.2</ele><time>2024-05-17T16:31:20Z</time></trkpt>
<trkpt lat="46.47841" lon="6.76878"><ele>445.6</ele><time>2024-05-17T16:31:22Z</time></trkpt>
<trkpt lat="46.47843" lon="6.76866"><ele>445.2</ele><time>2024-05-17T16:31:23Z</time></trkpt>
<trkpt lat="46.47845" lon="6.76853"><ele>443.8</ele><time>2024-05-17T16:31:24Z</time></trkpt>
<trkpt lat="46.47851" lon="6.76829"><ele>441.8</ele><time>2024-05-17T16:31:26Z</time></trkpt>
<trkpt lat="46.47856" lon="6.76805"><ele>440.4</ele><time>2024-05-17T16:31:28Z</time></trkpt>
<trkpt lat="46.47862" lon="6.76782"><ele>439</ele><time>2024-05-17T16:31:30Z</time></trkpt>
<trkpt lat="46.4787" lon="6.76757"><ele>437.8</ele><time>2024-05-17T16:31:32Z</time></trkpt>
<trkpt lat="46.47874" lon="6.76744"><ele>437.2</ele><time>2024-05-17T16:31:33Z</time></trkpt>
<trkpt lat="46.47879" lon="6.76731"><ele>436.4</ele><time>2024-05-17T16:31:34Z</time></trkpt>
<trkpt lat="46.47891" lon="6.767"><ele>436</ele><time>2024-05-17T16:31:37Z</time></trkpt>
<trkpt lat="46.47898" lon="6.76685"><ele>436.4</ele><time>2024-05-17T16:31:39Z</time></trkpt>
<trkpt lat="46.47904" lon="6.76671"><ele>437.2</ele><time>2024-05-17T16:31:41Z</time></trkpt>
<trkpt lat="46.47925" lon="6.76622"><ele>436.8</ele><time>2024-05-17T16:31:48Z</time></trkpt>
<trkpt lat="46.47928" lon="6.76615"><ele>436.8</ele><time>2024-05-17T16:31:49Z</time></trkpt>
<trkpt lat="46.47939" lon="6.7658"><ele>436.6</ele><time>2024-05-17T16:31:54Z</time></trkpt>
<trkpt lat="46.47945" lon="6.76567"><ele>436.4</ele><time>2024-05-17T16:31:56Z</time></trkpt>
<trkpt lat="46.47957" lon="6.76537"><ele>435.2</ele><time>2024-05-17T16:32:00Z</time></trkpt>
<trkpt lat="46.47961" lon="6.76521"><ele>435</ele><time>2024-05-17T16:32:02Z</time></trkpt>
<trkpt lat="46.47962" lon="6.76514"><ele>435</ele><time>2024-05-17T16:32:03Z</time></trkpt>
<trkpt lat="46.47964" lon="6.76508"><ele>435</ele><time>2024-05-17T16:32:04Z</time></trkpt>
<trkpt lat="46.47965" lon="6.76503"><ele>435.2</ele><time>2024-05-17T16:32:05Z</time></trkpt>
<trkpt lat="46.47966" lon="6.76497"><ele>436.2</ele><time>2024-05-17T16:32:06Z</time></trkpt>
<trkpt lat="46.47967" lon="6.76493"><ele>436.6</ele><time>2024-05-17T16:32:07Z</time></trkpt>
<trkpt lat="46.4797" lon="6.76473"><ele>437.4</ele><time>2024-05-17T16:32:12Z</time></trkpt>
<trkpt lat="46.4798" lon="6.76444"><ele>436.6</ele><time>2024-05-17T16:32:17Z</time></trkpt>
<trkpt lat="46.47993" lon="6.76415"><ele>435.6</ele><time>2024-05-17T16:32:21Z</time></trkpt>
<trkpt lat="46.48" lon="6.76401"><ele>435.4</ele><time>2024-05-17T16:32:23Z</time></trkpt>
<trkpt lat="46.48009" lon="6.76385"><ele>436.4</ele><time>2024-05-17T16:32:27Z</time></trkpt>
<trkpt lat="46.48011" lon="6.76383"><ele>437</ele><time>2024-05-17T16:32:28Z</time></trkpt>
<trkpt lat="46.48016" lon="6.76376"><ele>437.8</ele><time>2024-05-17T16:32:32Z</time></trkpt>
<trkpt lat="46.48018" lon="6.76375"><ele>438</ele><time>2024-05-17T16:32:33Z</time></trkpt>
<trkpt lat="46.48021" lon="6.7637"><ele>438.6</ele><time>2024-05-17T16:32:36Z</time></trkpt>
<trkpt lat="46.48022" lon="6.76368"><ele>438.8</ele><time>2024-05-17T16:32:37Z</time></trkpt>
<trkpt lat="46.48024" lon="6.76365"><ele>439.2</ele><time>2024-05-17T16:32:39Z</time></trkpt>
<trkpt lat="46.48033" lon="6.76353"><ele>440.4</ele><time>2024-05-17T16:32:46Z</time></trkpt>
<trkpt lat="46.4804" lon="6.76344"><ele>441.4</ele><time>2024-05-17T16:32:51Z</time></trkpt>
<trkpt lat="46.48042" lon="6.76341"><ele>441.8</ele><time>2024-05-17T16:32:53Z</time></trkpt>
<trkpt lat="46.48046" lon="6.76335"><ele>442.4</ele><time>2024-05-17T16:32:56Z</time></trkpt>
<trkpt lat="46.48051" lon="6.76325"><ele>443.6</ele><time>2024-05-17T16:33:01Z</time></trkpt>
<trkpt lat="46.48057" lon="6.76314"><ele>444.6</ele><time>2024-05-17T16:33:07Z</time></trkpt>
<trkpt lat="46.48059" lon="6.76308"><ele>444.6</ele><time>2024-05-17T16:33:09Z</time></trkpt>
<trkpt lat="46.48061" lon="6.76302"><ele>444.8</ele><time>2024-05-17T16:33:11Z</time></trkpt>
<trkpt lat="46.48062" lon="6.76299"><ele>444.8</ele><time>2024-05-17T16:33:12Z</time></trkpt>
<trkpt lat="46.48064" lon="6.76295"><ele>444.8</ele><time>2024-05-17T16:33:13Z</time></trkpt>
<trkpt lat="46.48065" lon="6.76292"><ele>444.8</ele><time>2024-05-17T16:33:14Z</time></trkpt>
<trkpt lat="46.48067" lon="6.76288"><ele>444.4</ele><time>2024-05-17T16:33:15Z</time></trkpt>
<trkpt lat="46.48072" lon="6.76276"><ele>444.2</ele><time>2024-05-17T16:33:18Z</time></trkpt>
<trkpt lat="46.48078" lon="6.76263"><ele>444</ele><time>2024-05-17T16:33:21Z</time></trkpt>
<trkpt lat="46.4808" lon="6.76259"><ele>444</ele><time>2024-05-17T16:33:22Z</time></trkpt>
<trkpt lat="46.48082" lon="6.76255"><ele>443.8</ele><time>2024-05-17T16:33:23Z</time></trkpt>
<trkpt lat="46.4809" lon="6.76237"><ele>443.8</ele><time>2024-05-17T16:33:27Z</time></trkpt>
<trkpt lat="46.48097" lon="6.76225"><ele>443.6</ele><time>2024-05-17T16:33:30Z</time></trkpt>
<trkpt lat="46.48109" lon="6.76203"><ele>443.8</ele><time>2024-05-17T16:33:36Z</time></trkpt>
<trkpt lat="46.48119" lon="6.76185"><ele>444.8</ele><time>2024-05-17T16:33:42Z</time></trkpt>
<trkpt lat="46.48134" lon="6.76164"><ele>445.8</ele><time>2024-05-17T16:33:50Z</time></trkpt>
<trkpt lat="46.48135" lon="6.76161"><ele>446</ele><time>2024-05-17T16:33:51Z</time></trkpt>
<trkpt lat="46.48146" lon="6.7614"><ele>446.8</ele><time>2024-05-17T16:33:58Z</time></trkpt>
<trkpt lat="46.4815" lon="6.76131"><ele>447</ele><time>2024-05-17T16:34:01Z</time></trkpt>
<trkpt lat="46.48162" lon="6.76106"><ele>447.2</ele><time>2024-05-17T16:34:08Z</time></trkpt>
<trkpt lat="46.48166" lon="6.76095"><ele>446.6</ele><time>2024-05-17T16:34:10Z</time></trkpt>
<trkpt lat="46.48174" lon="6.7608"><ele>446</ele><time>2024-05-17T16:34:12Z</time></trkpt>
<trkpt lat="46.48178" lon="6.76073"><ele>445.4</ele><time>2024-05-17T16:34:13Z</time></trkpt>
<trkpt lat="46.48183" lon="6.76066"><ele>444</ele><time>2024-05-17T16:34:14Z</time></trkpt>
<trkpt lat="46.48195" lon="6.76049"><ele>443.4</ele><time>2024-05-17T16:34:17Z</time></trkpt>
<trkpt lat="46.48203" lon="6.76038"><ele>445.8</ele><time>2024-05-17T16:34:21Z</time></trkpt>
<trkpt lat="46.48208" lon="6.76031"><ele>446.8</ele><time>2024-05-17T16:34:24Z</time></trkpt>
<trkpt lat="46.48213" lon="6.76026"><ele>447</ele><time>2024-05-17T16:34:26Z</time></trkpt>
<trkpt lat="46.48233" lon="6.76006"><ele>447.2</ele><time>2024-05-17T16:34:34Z</time></trkpt>
<trkpt lat="46.4825" lon="6.75987"><ele>447.4</ele><time>2024-05-17T16:34:40Z</time></trkpt>
<trkpt lat="46.48258" lon="6.75978"><ele>447.6</ele><time>2024-05-17T16:34:43Z</time></trkpt>
<trkpt lat="46.48261" lon="6.75975"><ele>448</ele><time>2024-05-17T16:34:44Z</time></trkpt>
<trkpt lat="46.48275" lon="6.75959"><ele>448.4</ele><time>2024-05-17T16:34:49Z</time></trkpt>
<trkpt lat="46.48286" lon="6.75945"><ele>448.4</ele><time>2024-05-17T16:34:53Z</time></trkpt>
<trkpt lat="46.4831" lon="6.75915"><ele>447.4</ele><time>2024-05-17T16:35:01Z</time></trkpt>
<trkpt lat="46.48341" lon="6.75881"><ele>447</ele><time>2024-05-17T16:35:10Z</time></trkpt>
<trkpt lat="46.48344" lon="6.75877"><ele>446.8</ele><time>2024-05-17T16:35:11Z</time></trkpt>
<trkpt lat="46.48357" lon="6.75863"><ele>446.8</ele><time>2024-05-17T16:35:15Z</time></trkpt>
<trkpt lat="46.48366" lon="6.75852"><ele>446.6</ele><time>2024-05-17T16:35:18Z</time></trkpt>
<trkpt lat="46.48372" lon="6.75842"><ele>446.6</ele><time>2024-05-17T16:35:20Z</time></trkpt>
<trkpt lat="46.48386" lon="6.75818"><ele>445.2</ele><time>2024-05-17T16:35:24Z</time></trkpt>
<trkpt lat="46.48391" lon="6.75813"><ele>444.8</ele><time>2024-05-17T16:35:25Z</time></trkpt>
<trkpt lat="46.484" lon="6.75805"><ele>444.8</ele><time>2024-05-17T16:35:27Z</time></trkpt>
<trkpt lat="46.48408" lon="6.758"><ele>445.6</ele><time>2024-05-17T16:35:29Z</time></trkpt>
<trkpt lat="46.48412" lon="6.75797"><ele>446.4</ele><time>2024-05-17T16:35:31Z</time></trkpt>
<trkpt lat="46.48418" lon="6.75793"><ele>447.4</ele><time>2024-05-17T16:35:34Z</time></trkpt>
<trkpt lat="46.48428" lon="6.75781"><ele>448.4</ele><time>2024-05-17T16:35:39Z</time></trkpt>
<trkpt lat="46.4843" lon="6.75778"><ele>448.4</ele><time>2024-05-17T16:35:40Z</time></trkpt>
<trkpt lat="46.48442" lon="6.75762"><ele>448.2</ele><time>2024-05-17T16:35:46Z</time></trkpt>
<trkpt lat="46.48449" lon="6.75753"><ele>448</ele><time>2024-05-17T16:35:49Z</time></trkpt>
<trkpt lat="46.48463" lon="6.75731"><ele>447.8</ele><time>2024-05-17T16:35:55Z</time></trkpt>
<trkpt lat="46.48473" lon="6.75717"><ele>447.4</ele><time>2024-05-17T16:35:59Z</time></trkpt>
<trkpt lat="46.48481" lon="6.75701"><ele>447.4</ele><time>2024-05-17T16:36:03Z</time></trkpt>
<trkpt lat="46.4849" lon="6.75681"><ele>448</ele><time>2024-05-17T16:36:09Z</time></trkpt>
<trkpt lat="46.48503" lon="6.75664"><ele>447.6</ele><time>2024-05-17T16:36:14Z</time></trkpt>
<trkpt lat="46.48524" lon="6.75637"><ele>446.6</ele><time>2024-05-17T16:36:21Z</time></trkpt>
<trkpt lat="46.48527" lon="6.75631"><ele>446.6</ele><time>2024-05-17T16:36:22Z</time></trkpt>
<trkpt lat="46.48536" lon="6.75611"><ele>446.4</ele><time>2024-05-17T16:36:25Z</time></trkpt>
<trkpt lat="46.48546" lon="6.75587"><ele>445.2</ele><time>2024-05-17T16:36:28Z</time></trkpt>
<trkpt lat="46.48563" lon="6.75553"><ele>444.2</ele><time>2024-05-17T16:36:32Z</time></trkpt>
<trkpt lat="46.48567" lon="6.75543"><ele>442.6</ele><time>2024-05-17T16:36:33Z</time></trkpt>
<trkpt lat="46.48572" lon="6.75533"><ele>441.4</ele><time>2024-05-17T16:36:34Z</time></trkpt>
<trkpt lat="46.48582" lon="6.75513"><ele>440</ele><time>2024-05-17T16:36:36Z</time></trkpt>
<trkpt lat="46.48588" lon="6.75504"><ele>439.2</ele><time>2024-05-17T16:36:37Z</time></trkpt>
<trkpt lat="46.48594" lon="6.75497"><ele>438.8</ele><time>2024-05-17T16:36:38Z</time></trkpt>
<trkpt lat="46.48601" lon="6.7549"><ele>438.6</ele><time>2024-05-17T16:36:39Z</time></trkpt>
<trkpt lat="46.48613" lon="6.75479"><ele>438.6</ele><time>2024-05-17T16:36:41Z</time></trkpt>
<trkpt lat="46.48638" lon="6.75458"><ele>439.6</ele><time>2024-05-17T16:36:46Z</time></trkpt>
<trkpt lat="46.48642" lon="6.75455"><ele>439.8</ele><time>2024-05-17T16:36:47Z</time></trkpt>
<trkpt lat="46.48648" lon="6.75449"><ele>441</ele><time>2024-05-17T16:36:49Z</time></trkpt>
<trkpt lat="46.48653" lon="6.75445"><ele>442</ele><time>2024-05-17T16:36:51Z</time></trkpt>
<trkpt lat="46.48655" lon="6.75444"><ele>442</ele><time>2024-05-17T16:36:52Z</time></trkpt>
<trkpt lat="46.48663" lon="6.75432"><ele>442.4</ele><time>2024-05-17T16:36:57Z</time></trkpt>
<trkpt lat="46.48666" lon="6.75429"><ele>442.4</ele><time>2024-05-17T16:36:58Z</time></trkpt>
<trkpt lat="46.4868" lon="6.75415"><ele>441.6</ele><time>2024-05-17T16:37:02Z</time></trkpt>
<trkpt lat="46.48687" lon="6.75405"><ele>440.8</ele><time>2024-05-17T16:37:04Z</time></trkpt>
<trkpt lat="46.48695" lon="6.7539"><ele>439.8</ele><time>2024-05-17T16:37:07Z</time></trkpt>
<trkpt lat="46.48697" lon="6.75385"><ele>439.6</ele><time>2024-05-17T16:37:08Z</time></trkpt>
<trkpt lat="46.48704" lon="6.75371"><ele>438.2</ele><time>2024-05-17T16:37:11Z</time></trkpt>
<trkpt lat="46.48709" lon="6.75362"><ele>437.2</ele><time>2024-05-17T16:37:13Z</time></trkpt>
<trkpt lat="46.48719" lon="6.75343"><ele>436.2</ele><time>2024-05-17T16:37:19Z</time></trkpt>
<trkpt lat="46.48725" lon="6.75332"><ele>436.6</ele><time>2024-05-17T16:37:25Z</time></trkpt>
<trkpt lat="46.48734" lon="6.75319"><ele>437.8</ele><time>2024-05-17T16:37:31Z</time></trkpt>
<trkpt lat="46.48737" lon="6.75315"><ele>438.2</ele><time>2024-05-17T16:37:33Z</time></trkpt>
<trkpt lat="46.48744" lon="6.75302"><ele>439.4</ele><time>2024-05-17T16:37:38Z</time></trkpt>
<trkpt lat="46.48745" lon="6.75299"><ele>439.6</ele><time>2024-05-17T16:37:39Z</time></trkpt>
<trkpt lat="46.48754" lon="6.75281"><ele>440.6</ele><time>2024-05-17T16:37:45Z</time></trkpt>
<trkpt lat="46.48757" lon="6.75272"><ele>440.8</ele><time>2024-05-17T16:37:48Z</time></trkpt>
<trkpt lat="46.48761" lon="6.75262"><ele>441.2</ele><time>2024-05-17T16:37:51Z</time></trkpt>
<trkpt lat="46.4877" lon="6.75249"><ele>441.4</ele><time>2024-05-17T16:37:56Z</time></trkpt>
<trkpt lat="46.48771" lon="6.75247"><ele>441.4</ele><time>2024-05-17T16:37:57Z</time></trkpt>
<trkpt lat="46.48773" lon="6.75244"><ele>441.6</ele><time>2024-05-17T16:37:58Z</time></trkpt>
<trkpt lat="46.48785" lon="6.75225"><ele>442.4</ele><time>2024-05-17T16:38:05Z</time></trkpt>
<trkpt lat="46.48787" lon="6.75222"><ele>442.4</ele><time>2024-05-17T16:38:06Z</time></trkpt>
<trkpt lat="46.48793" lon="6.75213"><ele>442.6</ele><time>2024-05-17T16:38:09Z</time></trkpt>
<trkpt lat="46.48801" lon="6.75204"><ele>443</ele><time>2024-05-17T16:38:14Z</time></trkpt>
<trkpt lat="46.48805" lon="6.752"><ele>443.6</ele><time>2024-05-17T16:38:17Z</time></trkpt>
<trkpt lat="46.48812" lon="6.75196"><ele>443.8</ele><time>2024-05-17T16:38:21Z</time></trkpt>
<trkpt lat="46.48821" lon="6.75189"><ele>444.6</ele><time>2024-05-17T16:38:27Z</time></trkpt>
<trkpt lat="46.48823" lon="6.75189"><ele>444.8</ele><time>2024-05-17T16:38:28Z</time></trkpt>
<trkpt lat="46.48825" lon="6.75188"><ele>445</ele><time>2024-05-17T16:38:30Z</time></trkpt>
<trkpt lat="46.48831" lon="6.75184"><ele>445.8</ele><time>2024-05-17T16:38:36Z</time></trkpt>
<trkpt lat="46.48839" lon="6.7518"><ele>446.6</ele><time>2024-05-17T16:38:42Z</time></trkpt>
<trkpt lat="46.48842" lon="6.75179"><ele>447</ele><time>2024-05-17T16:38:44Z</time></trkpt>
<trkpt lat="46.4885" lon="6.75176"><ele>447.8</ele><time>2024-05-17T16:38:50Z</time></trkpt>
<trkpt lat="46.48852" lon="6.75175"><ele>448</ele><time>2024-05-17T16:38:51Z</time></trkpt>
<trkpt lat="46.4886" lon="6.75167"><ele>449.2</ele><time>2024-05-17T16:38:58Z</time></trkpt>
<trkpt lat="46.48865" lon="6.7516"><ele>450.2</ele><time>2024-05-17T16:39:04Z</time></trkpt>
<trkpt lat="46.48865" lon="6.75159"><ele>450.4</ele><time>2024-05-17T16:39:05Z</time></trkpt>
<trkpt lat="46.4887" lon="6.7515"><ele>451</ele><time>2024-05-17T16:39:11Z</time></trkpt>
<trkpt lat="46.48872" lon="6.75147"><ele>451.4</ele><time>2024-05-17T16:39:13Z</time></trkpt>
<trkpt lat="46.48876" lon="6.75138"><ele>452.2</ele><time>2024-05-17T16:39:19Z</time></trkpt>
<trkpt lat="46.48876" lon="6.75137"><ele>452.4</ele><time>2024-05-17T16:39:20Z</time></trkpt>
<trkpt lat="46.48878" lon="6.75128"><ele>453</ele><time>2024-05-17T16:39:26Z</time></trkpt>
<trkpt lat="46.4888" lon="6.75122"><ele>453.6</ele><time>2024-05-17T16:39:29Z</time></trkpt>
<trkpt lat="46.48883" lon="6.75116"><ele>454</ele><time>2024-05-17T16:39:33Z</time></trkpt>
<trkpt lat="46.48884" lon="6.75109"><ele>454.6</ele><time>2024-05-17T16:39:37Z</time></trkpt>
<trkpt lat="46.48885" lon="6.75104"><ele>455.2</ele><time>2024-05-17T16:39:41Z</time></trkpt>
<trkpt lat="46.48885" lon="6.75099"><ele>455.8</ele><time>2024-05-17T16:39:45Z</time></trkpt>
<trkpt lat="46.48885" lon="6.75097"><ele>456</ele><time>2024-05-17T16:39:46Z</time></trkpt>
<trkpt lat="46.48885" lon="6.75097"><ele>456.2</ele><time>2024-05-17T16:39:51Z</time></trkpt>
<trkpt lat="46.48885" lon="6.75097"><ele>456.2</ele><time>2024-05-17T16:40:00Z</time></trkpt>
<trkpt lat="46.48885" lon="6.75097"><ele>456.2</ele><time>2024-05-17T16:40:09Z</time></trkpt>
<trkpt lat="46.48885" lon="6.75097"><ele>456.2</ele><time>2024-05-17T16:40:14Z</time></trkpt>
<trkpt lat="46.48886" lon="6.75097"><ele>456.4</ele><time>2024-05-17T16:40:15Z</time></trkpt>
<trkpt lat="46.48888" lon="6.75096"><ele>456.4</ele><time>2024-05-17T16:40:17Z</time></trkpt>
<trkpt lat="46.48889" lon="6.75093"><ele>456.4</ele><time>2024-05-17T16:40:19Z</time></trkpt>
<trkpt lat="46.4889" lon="6.75091"><ele>456.4</ele><time>2024-05-17T16:40:20Z</time></trkpt>
<trkpt lat="46.48893" lon="6.75086"><ele>457</ele><time>2024-05-17T16:40:23Z</time></trkpt>
<trkpt lat="46.48896" lon="6.75082"><ele>457.6</ele><time>2024-05-17T16:40:26Z</time></trkpt>
<trkpt lat="46.48898" lon="6.75079"><ele>458.2</ele><time>2024-05-17T16:40:28Z</time></trkpt>
<trkpt lat="46.48903" lon="6.75074"><ele>459.2</ele><time>2024-05-17T16:40:34Z</time></trkpt>
<trkpt lat="46.48904" lon="6.75073"><ele>459.4</ele><time>2024-05-17T16:40:35Z</time></trkpt>
<trkpt lat="46.48909" lon="6.75069"><ele>460.2</ele><time>2024-05-17T16:40:39Z</time></trkpt>
<trkpt lat="46.48911" lon="6.75068"><ele>460.6</ele><time>2024-05-17T16:40:41Z</time></trkpt>
<trkpt lat="46.48914" lon="6.75066"><ele>461.2</ele><time>2024-05-17T16:40:45Z</time></trkpt>
<trkpt lat="46.48917" lon="6.75064"><ele>462</ele><time>2024-05-17T16:40:49Z</time></trkpt>
<trkpt lat="46.4892" lon="6.75062"><ele>462.4</ele><time>2024-05-17T16:40:52Z</time></trkpt>
<trkpt lat="46.48923" lon="6.75062"><ele>463</ele><time>2024-05-17T16:40:55Z</time></trkpt>
<trkpt lat="46.48926" lon="6.75061"><ele>463.4</ele><time>2024-05-17T16:40:58Z</time></trkpt>
<trkpt lat="46.48929" lon="6.7506"><ele>464</ele><time>2024-05-17T16:41:02Z</time></trkpt>
<trkpt lat="46.48932" lon="6.75058"><ele>464.6</ele><time>2024-05-17T16:41:05Z</time></trkpt>
<trkpt lat="46.48938" lon="6.75058"><ele>465.6</ele><time>2024-05-17T16:41:11Z</time></trkpt>
<trkpt lat="46.48944" lon="6.75054"><ele>466.8</ele><time>2024-05-17T16:41:17Z</time></trkpt>
<trkpt lat="46.48945" lon="6.75053"><ele>467</ele><time>2024-05-17T16:41:18Z</time></trkpt>
<trkpt lat="46.4895" lon="6.75051"><ele>467.8</ele><time>2024-05-17T16:41:23Z</time></trkpt>
<trkpt lat="46.48951" lon="6.7505"><ele>468</ele><time>2024-05-17T16:41:24Z</time></trkpt>
<trkpt lat="46.48955" lon="6.75048"><ele>469</ele><time>2024-05-17T16:41:28Z</time></trkpt>
<trkpt lat="46.48957" lon="6.75047"><ele>470</ele><time>2024-05-17T16:41:32Z</time></trkpt>
<trkpt lat="46.48958" lon="6.75046"><ele>470.2</ele><time>2024-05-17T16:41:33Z</time></trkpt>
<trkpt lat="46.48961" lon="6.75043"><ele>470.4</ele><time>2024-05-17T16:41:37Z</time></trkpt>
<trkpt lat="46.48961" lon="6.75043"><ele>470.4</ele><time>2024-05-17T16:41:42Z</time></trkpt>
<trkpt lat="46.48961" lon="6.75042"><ele>470.4</ele><time>2024-05-17T16:41:56Z</time></trkpt>
<trkpt lat="46.48961" lon="6.75042"><ele>470.4</ele><time>2024-05-17T16:41:57Z</time></trkpt>
<trkpt lat="46.48961" lon="6.75042"><ele>470.4</ele><time>2024-05-17T16:42:04Z</time></trkpt>
<trkpt lat="46.48961" lon="6.75042"><ele>470.4</ele><time>2024-05-17T16:42:07Z</time></trkpt>
<trkpt lat="46.48961" lon="6.75042"><ele>470.2</ele><time>2024-05-17T16:42:10Z</time></trkpt>
<trkpt lat="46.48961" lon="6.75042"><ele>470.2</ele><time>2024-05-17T16:42:13Z</time></trkpt>
<trkpt lat="46.48962" lon="6.75043"><ele>470.2</ele><time>2024-05-17T16:42:16Z</time></trkpt>
<trkpt lat="46.48962" lon="6.75043"><ele>470.2</ele><time>2024-05-17T16:42:20Z</time></trkpt>
<trkpt lat="46.48961" lon="6.75042"><ele>470.2</ele><time>2024-05-17T16:42:25Z</time></trkpt>
<trkpt lat="46.48961" lon="6.75042"><ele>470.2</ele><time>2024-05-17T16:42:27Z</time></trkpt>
<trkpt lat="46.48962" lon="6.75043"><ele>470.2</ele><time>2024-05-17T16:42:34Z</time></trkpt>
<trkpt lat="46.48963" lon="6.75042"><ele>470.2</ele><time>2024-05-17T16:42:40Z</time></trkpt>
<trkpt lat="46.48965" lon="6.75041"><ele>470.2</ele><time>2024-05-17T16:42:43Z</time></trkpt>
<trkpt lat="46.48968" lon="6.7504"><ele>470</ele><time>2024-05-17T16:42:48Z</time></trkpt>
<trkpt lat="46.48978" lon="6.75036"><ele>469.8</ele><time>2024-05-17T16:42:51Z</time></trkpt>
<trkpt lat="46.48981" lon="6.75033"><ele>469.8</ele><time>2024-05-17T16:42:52Z</time></trkpt>
<trkpt lat="46.48988" lon="6.75025"><ele>469.2</ele><time>2024-05-17T16:42:54Z</time></trkpt>
<trkpt lat="46.48997" lon="6.75013"><ele>469</ele><time>2024-05-17T16:42:56Z</time></trkpt>
<trkpt lat="46.49007" lon="6.74996"><ele>468.4</ele><time>2024-05-17T16:42:58Z</time></trkpt>
<trkpt lat="46.4901" lon="6.74985"><ele>468</ele><time>2024-05-17T16:42:59Z</time></trkpt>
<trkpt lat="46.49013" lon="6.74973"><ele>467.8</ele><time>2024-05-17T16:43:00Z</time></trkpt>
<trkpt lat="46.49019" lon="6.74947"><ele>465.4</ele><time>2024-05-17T16:43:02Z</time></trkpt>
<trkpt lat="46.49022" lon="6.74935"><ele>465</ele><time>2024-05-17T16:43:03Z</time></trkpt>
<trkpt lat="46.49028" lon="6.74907"><ele>464.6</ele><time>2024-05-17T16:43:06Z</time></trkpt>
<trkpt lat="46.49036" lon="6.74888"><ele>465.8</ele><time>2024-05-17T16:43:10Z</time></trkpt>
<trkpt lat="46.49039" lon="6.74884"><ele>465.8</ele><time>2024-05-17T16:43:11Z</time></trkpt>
<trkpt lat="46.49053" lon="6.74874"><ele>465.8</ele><time>2024-05-17T16:43:15Z</time></trkpt>
<trkpt lat="46.49067" lon="6.74867"><ele>465.2</ele><time>2024-05-17T16:43:19Z</time></trkpt>
<trkpt lat="46.49073" lon="6.74862"><ele>464.4</ele><time>2024-05-17T16:43:21Z</time></trkpt>
<trkpt lat="46.49083" lon="6.74856"><ele>463.2</ele><time>2024-05-17T16:43:24Z</time></trkpt>
<trkpt lat="46.49093" lon="6.74851"><ele>463</ele><time>2024-05-17T16:43:27Z</time></trkpt>
<trkpt lat="46.49103" lon="6.74842"><ele>462.6</ele><time>2024-05-17T16:43:30Z</time></trkpt>
<trkpt lat="46.49115" lon="6.74828"><ele>462</ele><time>2024-05-17T16:43:34Z</time></trkpt>
<trkpt lat="46.49119" lon="6.74823"><ele>461.8</ele><time>2024-05-17T16:43:35Z</time></trkpt>
<trkpt lat="46.49126" lon="6.74812"><ele>461.2</ele><time>2024-05-17T16:43:37Z</time></trkpt>
<trkpt lat="46.49129" lon="6.74806"><ele>460.8</ele><time>2024-05-17T16:43:38Z</time></trkpt>
<trkpt lat="46.49137" lon="6.74792"><ele>459.8</ele><time>2024-05-17T16:43:40Z</time></trkpt>
<trkpt lat="46.49145" lon="6.74779"><ele>459.6</ele><time>2024-05-17T16:43:42Z</time></trkpt>
<trkpt lat="46.49148" lon="6.74773"><ele>459.6</ele><time>2024-05-17T16:43:43Z</time></trkpt>
<trkpt lat="46.49156" lon="6.74763"><ele>459.8</ele><time>2024-05-17T16:43:45Z</time></trkpt>
<trkpt lat="46.49159" lon="6.74757"><ele>459.8</ele><time>2024-05-17T16:43:46Z</time></trkpt>
<trkpt lat="46.49164" lon="6.74744"><ele>459.8</ele><time>2024-05-17T16:43:48Z</time></trkpt>
<trkpt lat="46.49166" lon="6.74739"><ele>459.8</ele><time>2024-05-17T16:43:49Z</time></trkpt>
<trkpt lat="46.49172" lon="6.74723"><ele>459.4</ele><time>2024-05-17T16:43:52Z</time></trkpt>
<trkpt lat="46.49175" lon="6.74714"><ele>459.4</ele><time>2024-05-17T16:43:56Z</time></trkpt>
<trkpt lat="46.49179" lon="6.74703"><ele>459.6</ele><time>2024-05-17T16:44:01Z</time></trkpt>
<trkpt lat="46.49178" lon="6.74697"><ele>459.6</ele><time>2024-05-17T16:44:05Z</time></trkpt>
<trkpt lat="46.49178" lon="6.74695"><ele>459.6</ele><time>2024-05-17T16:44:06Z</time></trkpt>
<trkpt lat="46.49178" lon="6.74681"><ele>459.6</ele><time>2024-05-17T16:44:13Z</time></trkpt>
<trkpt lat="46.49181" lon="6.74667"><ele>459.8</ele><time>2024-05-17T16:44:19Z</time></trkpt>
<trkpt lat="46.49183" lon="6.74657"><ele>460.2</ele><time>2024-05-17T16:44:25Z</time></trkpt>
<trkpt lat="46.49184" lon="6.74644"><ele>460.6</ele><time>2024-05-17T16:44:31Z</time></trkpt>
<trkpt lat="46.49185" lon="6.74639"><ele>460.6</ele><time>2024-05-17T16:44:38Z</time></trkpt>
<trkpt lat="46.49185" lon="6.74639"><ele>460.6</ele><time>2024-05-17T16:44:44Z</time></trkpt>
<trkpt lat="46.49185" lon="6.74639"><ele>460.6</ele><time>2024-05-17T16:44:49Z</time></trkpt>
<trkpt lat="46.49185" lon="6.74639"><ele>460.6</ele><time>2024-05-17T16:44:53Z</time></trkpt>
<trkpt lat="46.49186" lon="6.74633"><ele>460.6</ele><time>2024-05-17T16:45:00Z</time></trkpt>
<trkpt lat="46.49186" lon="6.74627"><ele>460.8</ele><time>2024-05-17T16:45:02Z</time></trkpt>
<trkpt lat="46.49188" lon="6.74619"><ele>461</ele><time>2024-05-17T16:45:06Z</time></trkpt>
<trkpt lat="46.4919" lon="6.74615"><ele>461.2</ele><time>2024-05-17T16:45:13Z</time></trkpt>
<trkpt lat="46.4919" lon="6.74611"><ele>461.2</ele><time>2024-05-17T16:45:19Z</time></trkpt>
<trkpt lat="46.49191" lon="6.74609"><ele>461.2</ele><time>2024-05-17T16:45:25Z</time></trkpt>
<trkpt lat="46.49191" lon="6.74607"><ele>461.2</ele><time>2024-05-17T16:45:30Z</time></trkpt>
<trkpt lat="46.49192" lon="6.74604"><ele>461.2</ele><time>2024-05-17T16:45:35Z</time></trkpt>
<trkpt lat="46.4919" lon="6.74603"><ele>461.2</ele><time>2024-05-17T16:45:38Z</time></trkpt>
<trkpt lat="46.4919" lon="6.74603"><ele>461.4</ele><time>2024-05-17T16:45:43Z</time></trkpt>
<trkpt lat="46.4919" lon="6.74603"><ele>461.4</ele><time>2024-05-17T16:45:46Z</time></trkpt>
<trkpt lat="46.49191" lon="6.74601"><ele>461.2</ele><time>2024-05-17T16:45:57Z</time></trkpt>
<trkpt lat="46.4919" lon="6.74597"><ele>461.2</ele><time>2024-05-17T16:46:00Z</time></trkpt>
<trkpt lat="46.4919" lon="6.74595"><ele>461.2</ele><time>2024-05-17T16:46:01Z</time></trkpt>
<trkpt lat="46.49191" lon="6.74588"><ele>461.4</ele><time>2024-05-17T16:46:04Z</time></trkpt>
<trkpt lat="46.49193" lon="6.74584"><ele>461.4</ele><time>2024-05-17T16:46:06Z</time></trkpt>
<trkpt lat="46.49197" lon="6.74571"><ele>461.6</ele><time>2024-05-17T16:46:11Z</time></trkpt>
<trkpt lat="46.49202" lon="6.74564"><ele>461.8</ele><time>2024-05-17T16:46:13Z</time></trkpt>
<trkpt lat="46.4921" lon="6.7455"><ele>462</ele><time>2024-05-17T16:46:17Z</time></trkpt>
<trkpt lat="46.49212" lon="6.74549"><ele>462</ele><time>2024-05-17T16:46:18Z</time></trkpt>
<trkpt lat="46.49227" lon="6.74537"><ele>462.8</ele><time>2024-05-17T16:46:24Z</time></trkpt>
<trkpt lat="46.49229" lon="6.74535"><ele>463</ele><time>2024-05-17T16:46:25Z</time></trkpt>
<trkpt lat="46.49243" lon="6.74521"><ele>463.6</ele><time>2024-05-17T16:46:30Z</time></trkpt>
<trkpt lat="46.49247" lon="6.74517"><ele>463.4</ele><time>2024-05-17T16:46:31Z</time></trkpt>
<trkpt lat="46.4925" lon="6.74511"><ele>463.2</ele><time>2024-05-17T16:46:32Z</time></trkpt>
<trkpt lat="46.49255" lon="6.74498"><ele>463</ele><time>2024-05-17T16:46:34Z</time></trkpt>
<trkpt lat="46.49256" lon="6.7449"><ele>462.6</ele><time>2024-05-17T16:46:35Z</time></trkpt>
<trkpt lat="46.49256" lon="6.74482"><ele>462.4</ele><time>2024-05-17T16:46:36Z</time></trkpt>
<trkpt lat="46.49253" lon="6.74473"><ele>461.8</ele><time>2024-05-17T16:46:37Z</time></trkpt>
<trkpt lat="46.4925" lon="6.74465"><ele>461.2</ele><time>2024-05-17T16:46:38Z</time></trkpt>
<trkpt lat="46.49233" lon="6.74435"><ele>461.2</ele><time>2024-05-17T16:46:43Z</time></trkpt>
<trkpt lat="46.49231" lon="6.74414"><ele>462.2</ele><time>2024-05-17T16:46:47Z</time></trkpt>
<trkpt lat="46.49232" lon="6.74405"><ele>462.8</ele><time>2024-05-17T16:46:49Z</time></trkpt>
<trkpt lat="46.49232" lon="6.74388"><ele>463.4</ele><time>2024-05-17T16:46:53Z</time></trkpt>
<trkpt lat="46.49231" lon="6.74384"><ele>463.4</ele><time>2024-05-17T16:46:54Z</time></trkpt>
<trkpt lat="46.49227" lon="6.74384"><ele>463.6</ele><time>2024-05-17T16:46:56Z</time></trkpt>
<trkpt lat="46.49225" lon="6.74384"><ele>463.6</ele><time>2024-05-17T16:46:57Z</time></trkpt>
<trkpt lat="46.49222" lon="6.74383"><ele>463.6</ele><time>2024-05-17T16:46:58Z</time></trkpt>
<trkpt lat="46.49208" lon="6.74377"><ele>461.6</ele><time>2024-05-17T16:47:02Z</time></trkpt>
<trkpt lat="46.49204" lon="6.74375"><ele>460.4</ele><time>2024-05-17T16:47:03Z</time></trkpt>
<trkpt lat="46.49198" lon="6.74372"><ele>458.6</ele><time>2024-05-17T16:47:05Z</time></trkpt>
<trkpt lat="46.49193" lon="6.74365"><ele>457.4</ele><time>2024-05-17T16:47:07Z</time></trkpt>
<trkpt lat="46.49193" lon="6.74359"><ele>457</ele><time>2024-05-17T16:47:08Z</time></trkpt>
<trkpt lat="46.49193" lon="6.74345"><ele>455.8</ele><time>2024-05-17T16:47:10Z</time></trkpt>
<trkpt lat="46.49194" lon="6.74328"><ele>453.8</ele><time>2024-05-17T16:47:12Z</time></trkpt>
<trkpt lat="46.49194" lon="6.74317"><ele>452.6</ele><time>2024-05-17T16:47:13Z</time></trkpt>
<trkpt lat="46.49193" lon="6.74305"><ele>451.6</ele><time>2024-05-17T16:47:14Z</time></trkpt>
<trkpt lat="46.49192" lon="6.74293"><ele>450.2</ele><time>2024-05-17T16:47:15Z</time></trkpt>
<trkpt lat="46.49191" lon="6.74281"><ele>449</ele><time>2024-05-17T16:47:16Z</time></trkpt>
<trkpt lat="46.49186" lon="6.74255"><ele>447.6</ele><time>2024-05-17T16:47:18Z</time></trkpt>
<trkpt lat="46.49183" lon="6.74242"><ele>445.6</ele><time>2024-05-17T16:47:19Z</time></trkpt>
<trkpt lat="46.49178" lon="6.74216"><ele>444.2</ele><time>2024-05-17T16:47:21Z</time></trkpt>
<trkpt lat="46.49177" lon="6.74204"><ele>443.2</ele><time>2024-05-17T16:47:22Z</time></trkpt>
<trkpt lat="46.49174" lon="6.74182"><ele>441.4</ele><time>2024-05-17T16:47:24Z</time></trkpt>
<trkpt lat="46.49173" lon="6.74173"><ele>441</ele><time>2024-05-17T16:47:25Z</time></trkpt>
<trkpt lat="46.4917" lon="6.74154"><ele>440.2</ele><time>2024-05-17T16:47:27Z</time></trkpt>
<trkpt lat="46.49166" lon="6.74133"><ele>438.6</ele><time>2024-05-17T16:47:29Z</time></trkpt>
<trkpt lat="46.49163" lon="6.74122"><ele>437</ele><time>2024-05-17T16:47:30Z</time></trkpt>
<trkpt lat="46.49159" lon="6.74113"><ele>436</ele><time>2024-05-17T16:47:31Z</time></trkpt>
<trkpt lat="46.49156" lon="6.74104"><ele>434.6</ele><time>2024-05-17T16:47:32Z</time></trkpt>
<trkpt lat="46.49153" lon="6.74095"><ele>433.4</ele><time>2024-05-17T16:47:33Z</time></trkpt>
<trkpt lat="46.49151" lon="6.74086"><ele>432.8</ele><time>2024-05-17T16:47:34Z</time></trkpt>
<trkpt lat="46.4915" lon="6.74076"><ele>432.2</ele><time>2024-05-17T16:47:35Z</time></trkpt>
<trkpt lat="46.49149" lon="6.74064"><ele>431</ele><time>2024-05-17T16:47:36Z</time></trkpt>
<trkpt lat="46.49147" lon="6.74052"><ele>429.4</ele><time>2024-05-17T16:47:37Z</time></trkpt>
<trkpt lat="46.49147" lon="6.74041"><ele>428.2</ele><time>2024-05-17T16:47:38Z</time></trkpt>
<trkpt lat="46.49148" lon="6.74029"><ele>426.6</ele><time>2024-05-17T16:47:39Z</time></trkpt>
<trkpt lat="46.49149" lon="6.7402"><ele>424.4</ele><time>2024-05-17T16:47:40Z</time></trkpt>
<trkpt lat="46.49149" lon="6.74009"><ele>423.4</ele><time>2024-05-17T16:47:41Z</time></trkpt>
<trkpt lat="46.49149" lon="6.73998"><ele>422.2</ele><time>2024-05-17T16:47:42Z</time></trkpt>
<trkpt lat="46.49147" lon="6.73988"><ele>420.4</ele><time>2024-05-17T16:47:43Z</time></trkpt>
<trkpt lat="46.49144" lon="6.73977"><ele>419.2</ele><time>2024-05-17T16:47:44Z</time></trkpt>
<trkpt lat="46.49141" lon="6.73968"><ele>417.2</ele><time>2024-05-17T16:47:45Z</time></trkpt>
<trkpt lat="46.49136" lon="6.73959"><ele>415.8</ele><time>2024-05-17T16:47:46Z</time></trkpt>
<trkpt lat="46.49123" lon="6.73941"><ele>412.6</ele><time>2024-05-17T16:47:48Z</time></trkpt>
<trkpt lat="46.49118" lon="6.73933"><ele>411.2</ele><time>2024-05-17T16:47:49Z</time></trkpt>
<trkpt lat="46.49114" lon="6.73924"><ele>409.4</ele><time>2024-05-17T16:47:50Z</time></trkpt>
<trkpt lat="46.49109" lon="6.73916"><ele>407.8</ele><time>2024-05-17T16:47:51Z</time></trkpt>
<trkpt lat="46.49107" lon="6.73906"><ele>407</ele><time>2024-05-17T16:47:52Z</time></trkpt>
<trkpt lat="46.49107" lon="6.73895"><ele>406.4</ele><time>2024-05-17T16:47:53Z</time></trkpt>
<trkpt lat="46.49109" lon="6.73885"><ele>406</ele><time>2024-05-17T16:47:54Z</time></trkpt>
<trkpt lat="46.49112" lon="6.73876"><ele>405</ele><time>2024-05-17T16:47:55Z</time></trkpt>
<trkpt lat="46.49117" lon="6.73855"><ele>404</ele><time>2024-05-17T16:47:57Z</time></trkpt>
<trkpt lat="46.49119" lon="6.73844"><ele>403.8</ele><time>2024-05-17T16:47:58Z</time></trkpt>
<trkpt lat="46.49126" lon="6.73793"><ele>402.4</ele><time>2024-05-17T16:48:03Z</time></trkpt>
<trkpt lat="46.49128" lon="6.73783"><ele>402.4</ele><time>2024-05-17T16:48:04Z</time></trkpt>
<trkpt lat="46.49133" lon="6.73717"><ele>401.8</ele><time>2024-05-17T16:48:11Z</time></trkpt>
<trkpt lat="46.49132" lon="6.7367"><ele>402</ele><time>2024-05-17T16:48:17Z</time></trkpt>
<trkpt lat="46.4913" lon="6.73632"><ele>402.6</ele><time>2024-05-17T16:48:23Z</time></trkpt>
<trkpt lat="46.49131" lon="6.73599"><ele>401</ele><time>2024-05-17T16:48:27Z</time></trkpt>
<trkpt lat="46.49132" lon="6.73585"><ele>400</ele><time>2024-05-17T16:48:29Z</time></trkpt>
<trkpt lat="46.4913" lon="6.73568"><ele>398.8</ele><time>2024-05-17T16:48:31Z</time></trkpt>
<trkpt lat="46.49124" lon="6.7355"><ele>397.8</ele><time>2024-05-17T16:48:33Z</time></trkpt>
<trkpt lat="46.49115" lon="6.73532"><ele>396.4</ele><time>2024-05-17T16:48:35Z</time></trkpt>
<trkpt lat="46.49112" lon="6.73522"><ele>395.6</ele><time>2024-05-17T16:48:36Z</time></trkpt>
<trkpt lat="46.4911" lon="6.73511"><ele>395.4</ele><time>2024-05-17T16:48:37Z</time></trkpt>
<trkpt lat="46.49101" lon="6.73449"><ele>394.8</ele><time>2024-05-17T16:48:43Z</time></trkpt>
<trkpt lat="46.49083" lon="6.73387"><ele>394.6</ele><time>2024-05-17T16:48:50Z</time></trkpt>
<trkpt lat="46.49063" lon="6.7332"><ele>394.6</ele><time>2024-05-17T16:48:58Z</time></trkpt>
<trkpt lat="46.49055" lon="6.73274"><ele>395.2</ele><time>2024-05-17T16:49:04Z</time></trkpt>
<trkpt lat="46.4905" lon="6.73254"><ele>395.6</ele><time>2024-05-17T16:49:07Z</time></trkpt>
<trkpt lat="46.49047" lon="6.73242"><ele>395.8</ele><time>2024-05-17T16:49:09Z</time></trkpt>
<trkpt lat="46.49046" lon="6.73236"><ele>395.8</ele><time>2024-05-17T16:49:10Z</time></trkpt>
<trkpt lat="46.49044" lon="6.7323"><ele>396</ele><time>2024-05-17T16:49:11Z</time></trkpt>
<trkpt lat="46.49041" lon="6.7322"><ele>396.6</ele><time>2024-05-17T16:49:13Z</time></trkpt>
<trkpt lat="46.49034" lon="6.7319"><ele>397.4</ele><time>2024-05-17T16:49:19Z</time></trkpt>
<trkpt lat="46.49031" lon="6.7318"><ele>397.6</ele><time>2024-05-17T16:49:21Z</time></trkpt>
<trkpt lat="46.49025" lon="6.73155"><ele>399</ele><time>2024-05-17T16:49:26Z</time></trkpt>
<trkpt lat="46.49023" lon="6.73151"><ele>399.2</ele><time>2024-05-17T16:49:27Z</time></trkpt>
<trkpt lat="46.49012" lon="6.73123"><ele>399.8</ele><time>2024-05-17T16:49:34Z</time></trkpt>
<trkpt lat="46.48999" lon="6.73092"><ele>398.8</ele><time>2024-05-17T16:49:41Z</time></trkpt>
<trkpt lat="46.4899" lon="6.73069"><ele>397.8</ele><time>2024-05-17T16:49:44Z</time></trkpt>
<trkpt lat="46.48987" lon="6.73061"><ele>397.6</ele><time>2024-05-17T16:49:45Z</time></trkpt>
<trkpt lat="46.48981" lon="6.73044"><ele>396.6</ele><time>2024-05-17T16:49:47Z</time></trkpt>
<trkpt lat="46.48975" lon="6.73028"><ele>396</ele><time>2024-05-17T16:49:49Z</time></trkpt>
<trkpt lat="46.48964" lon="6.72999"><ele>396</ele><time>2024-05-17T16:49:53Z</time></trkpt>
<trkpt lat="46.48951" lon="6.72959"><ele>397.4</ele><time>2024-05-17T16:49:59Z</time></trkpt>
<trkpt lat="46.48928" lon="6.72904"><ele>396.8</ele><time>2024-05-17T16:50:07Z</time></trkpt>
<trkpt lat="46.4892" lon="6.7288"><ele>395.6</ele><time>2024-05-17T16:50:10Z</time></trkpt>
<trkpt lat="46.48912" lon="6.72855"><ele>394.4</ele><time>2024-05-17T16:50:13Z</time></trkpt>
<trkpt lat="46.48909" lon="6.72846"><ele>393.8</ele><time>2024-05-17T16:50:14Z</time></trkpt>
<trkpt lat="46.48902" lon="6.72817"><ele>393.2</ele><time>2024-05-17T16:50:17Z</time></trkpt>
<trkpt lat="46.48897" lon="6.72794"><ele>392.6</ele><time>2024-05-17T16:50:20Z</time></trkpt>
<trkpt lat="46.48901" lon="6.72781"><ele>392.6</ele><time>2024-05-17T16:50:22Z</time></trkpt>
<trkpt lat="46.48903" lon="6.72775"><ele>392.6</ele><time>2024-05-17T16:50:23Z</time></trkpt>
<trkpt lat="46.48907" lon="6.72757"><ele>393.4</ele><time>2024-05-17T16:50:27Z</time></trkpt>
<trkpt lat="46.48907" lon="6.72748"><ele>393.6</ele><time>2024-05-17T16:50:29Z</time></trkpt>
<trkpt lat="46.48905" lon="6.7273"><ele>394.2</ele><time>2024-05-17T16:50:33Z</time></trkpt>
<trkpt lat="46.48906" lon="6.72722"><ele>394.2</ele><time>2024-05-17T16:50:35Z</time></trkpt>
<trkpt lat="46.48907" lon="6.72701"><ele>395.2</ele><time>2024-05-17T16:50:41Z</time></trkpt>
<trkpt lat="46.48908" lon="6.72699"><ele>395.2</ele><time>2024-05-17T16:50:42Z</time></trkpt>
<trkpt lat="46.48913" lon="6.72685"><ele>395.6</ele><time>2024-05-17T16:50:46Z</time></trkpt>
<trkpt lat="46.48914" lon="6.72678"><ele>396.2</ele><time>2024-05-17T16:50:48Z</time></trkpt>
<trkpt lat="46.48911" lon="6.72665"><ele>396.4</ele><time>2024-05-17T16:50:51Z</time></trkpt>
<trkpt lat="46.48909" lon="6.7264"><ele>396.4</ele><time>2024-05-17T16:50:56Z</time></trkpt>
<trkpt lat="46.48909" lon="6.7263"><ele>396.6</ele><time>2024-05-17T16:50:58Z</time></trkpt>
<trkpt lat="46.4891" lon="6.72613"><ele>397.2</ele><time>2024-05-17T16:51:02Z</time></trkpt>
<trkpt lat="46.48911" lon="6.72586"><ele>398.4</ele><time>2024-05-17T16:51:08Z</time></trkpt>
<trkpt lat="46.48911" lon="6.72578"><ele>398.6</ele><time>2024-05-17T16:51:10Z</time></trkpt>
<trkpt lat="46.48907" lon="6.72556"><ele>399.4</ele><time>2024-05-17T16:51:16Z</time></trkpt>
<trkpt lat="46.48907" lon="6.72549"><ele>399.8</ele><time>2024-05-17T16:51:18Z</time></trkpt>
<trkpt lat="46.48907" lon="6.72529"><ele>400.6</ele><time>2024-05-17T16:51:24Z</time></trkpt>
<trkpt lat="46.48907" lon="6.72525"><ele>401</ele><time>2024-05-17T16:51:25Z</time></trkpt>
<trkpt lat="46.48908" lon="6.72509"><ele>401.6</ele><time>2024-05-17T16:51:31Z</time></trkpt>
<trkpt lat="46.48911" lon="6.72501"><ele>402.4</ele><time>2024-05-17T16:51:34Z</time></trkpt>
<trkpt lat="46.48912" lon="6.72496"><ele>402.8</ele><time>2024-05-17T16:51:36Z</time></trkpt>
<trkpt lat="46.48919" lon="6.72477"><ele>403.8</ele><time>2024-05-17T16:51:44Z</time></trkpt>
<trkpt lat="46.4892" lon="6.72475"><ele>403.8</ele><time>2024-05-17T16:51:45Z</time></trkpt>
<trkpt lat="46.48926" lon="6.72459"><ele>405</ele><time>2024-05-17T16:51:52Z</time></trkpt>
<trkpt lat="46.4893" lon="6.72451"><ele>405.4</ele><time>2024-05-17T16:51:55Z</time></trkpt>
<trkpt lat="46.48934" lon="6.72442"><ele>406</ele><time>2024-05-17T16:51:59Z</time></trkpt>
<trkpt lat="46.48939" lon="6.72427"><ele>407.2</ele><time>2024-05-17T16:52:05Z</time></trkpt>
<trkpt lat="46.48939" lon="6.72425"><ele>407.2</ele><time>2024-05-17T16:52:06Z</time></trkpt>
<trkpt lat="46.48941" lon="6.72413"><ele>408.2</ele><time>2024-05-17T16:52:11Z</time></trkpt>
<trkpt lat="46.48943" lon="6.72402"><ele>408.8</ele><time>2024-05-17T16:52:15Z</time></trkpt>
<trkpt lat="46.48943" lon="6.72397"><ele>409.4</ele><time>2024-05-17T16:52:17Z</time></trkpt>
<trkpt lat="46.48943" lon="6.72382"><ele>410.4</ele><time>2024-05-17T16:52:22Z</time></trkpt>
<trkpt lat="46.48943" lon="6.72379"><ele>410.6</ele><time>2024-05-17T16:52:23Z</time></trkpt>
<trkpt lat="46.48941" lon="6.72365"><ele>411.6</ele><time>2024-05-17T16:52:28Z</time></trkpt>
<trkpt lat="46.48939" lon="6.72354"><ele>412.2</ele><time>2024-05-17T16:52:32Z</time></trkpt>
<trkpt lat="46.48938" lon="6.72344"><ele>412.8</ele><time>2024-05-17T16:52:35Z</time></trkpt>
<trkpt lat="46.48935" lon="6.72329"><ele>413.6</ele><time>2024-05-17T16:52:41Z</time></trkpt>
<trkpt lat="46.48935" lon="6.72326"><ele>413.8</ele><time>2024-05-17T16:52:42Z</time></trkpt>
<trkpt lat="46.48933" lon="6.72308"><ele>414.8</ele><time>2024-05-17T16:52:49Z</time></trkpt>
<trkpt lat="46.48933" lon="6.72306"><ele>415.2</ele><time>2024-05-17T16:52:50Z</time></trkpt>
<trkpt lat="46.4893" lon="6.72286"><ele>416.2</ele><time>2024-05-17T16:52:57Z</time></trkpt>
<trkpt lat="46.4893" lon="6.72281"><ele>416.6</ele><time>2024-05-17T16:52:59Z</time></trkpt>
<trkpt lat="46.48927" lon="6.72269"><ele>417.4</ele><time>2024-05-17T16:53:04Z</time></trkpt>
<trkpt lat="46.48924" lon="6.72266"><ele>417.6</ele><time>2024-05-17T16:53:06Z</time></trkpt>
<trkpt lat="46.48918" lon="6.72257"><ele>418</ele><time>2024-05-17T16:53:11Z</time></trkpt>
<trkpt lat="46.48917" lon="6.72257"><ele>418</ele><time>2024-05-17T16:53:12Z</time></trkpt>
<trkpt lat="46.48915" lon="6.72261"><ele>418</ele><time>2024-05-17T16:53:14Z</time></trkpt>
<trkpt lat="46.48915" lon="6.72264"><ele>417.8</ele><time>2024-05-17T16:53:15Z</time></trkpt>
<trkpt lat="46.48913" lon="6.72287"><ele>417.6</ele><time>2024-05-17T16:53:23Z</time></trkpt>
<trkpt lat="46.48914" lon="6.72303"><ele>417.4</ele><time>2024-05-17T16:53:28Z</time></trkpt>
<trkpt lat="46.48915" lon="6.72311"><ele>417.6</ele><time>2024-05-17T16:53:31Z</time></trkpt>
<trkpt lat="46.48916" lon="6.72316"><ele>417.4</ele><time>2024-05-17T16:53:34Z</time></trkpt>
<trkpt lat="46.48918" lon="6.72317"><ele>417.4</ele><time>2024-05-17T16:53:36Z</time></trkpt>
<trkpt lat="46.48917" lon="6.72318"><ele>417.4</ele><time>2024-05-17T16:53:42Z</time></trkpt>
</trkseg></trk></gpx>